[[{"header":{"parameterUnit":"m.s-1","parameterCategory":1,"la1":31.0,"la2":29.5877,"lo1":-88.7671,"lo2":-86.6584,"dy":0.0162,"dx":0.0185,"nx":115,"ny":88,"refTime":"2023-07-31T06:00:00:Z","depth":0,"parameterNumber":2,"parameterNumberName":"U-component_of_WINDS"},"data":[0.0,0.0,0.0,0.0,0.0,0.0,0.0,0.0,0.0,0.0,0.0,0.0,0.0,0.0,0.0,0.0,0.0,0.0,0.0,0.0,0.0,0.0,0.0,0.0,0.0,0.0,0.0,0.0,0.0,0.0,0.0,0.0,0.0,0.0,0.0,0.0,0.0,0.0,0.0,0.0,0.0,0.0,0.0,0.0,0.0,0.0,0.0,0.0,0.0,0.0,0.0,0.0,0.0,0.0,0.0,0.0,0.0,0.0,0.0,0.0,0.0,0.0,0.0,0.0,0.0,0.0,0.0,0.0,0.0,0.0,0.0,0.0,0.0,0.0,0.0,0.0,0.0,0.0,0.0,0.0,0.0,0.0,0.0,0.0,0.0,0.0,0.0,0.0,0.0,0.0,0.0,0.0,0.0,0.0,0.0,0.0,0.0,0.0,0.0,0.0,0.0,0.0,0.0,0.0,0.0,0.0,0.0,0.0,0.0,0.0,0.0,0.0,0.0,0.0,0.0,0.0,0.0,0.0,0.0,0.0,0.0,0.0,0.0,0.0,0.0,0.0,0.0,0.0,0.0,0.0,0.0,0.0,0.0,0.0,0.0,0.0,0.0,0.0,0.0,0.0,0.0,0.0,0.0,0.0,0.0,0.0,0.0,0.0,0.0,0.0,0.0,0.0,0.0,0.0,0.0,0.0,0.0,0.0,0.0,0.0,0.0,0.0,0.0,0.0,0.0,0.0,0.0,0.0,0.0,0.0,0.0,0.0,0.0,0.0,0.0,0.0,0.0,0.0,0.0,0.0,0.0,0.0,0.0,0.0,0.0,0.0,0.0,0.0,0.0,0.0,0.0,0.0,0.0,0.0,0.0,0.0,0.0,0.0,0.0,0.0,0.0,0.0,0.0,0.0,0.0,0.0,0.0,0.0,0.0,0.0,0.0,0.0,0.0,0.0,0.0,0.0,0.0,0.0,0.0,0.0,0.0,0.0,0.0,0.0,0.0,0.0,0.0,0.0,0.0,0.0,0.0,0.0,0.0,0.0,0.0,0.0,0.0,0.0,0.0,0.0,0.0,0.0,0.0,0.0,0.0,0.0,0.0,0.0,0.0,0.0,0.0,0.0,0.0,0.0,0.0,0.0,0.0,0.0,0.0,0.0,0.0,0.0,0.0,0.0,0.0,0.0,0.0,0.0,0.0,0.0,0.0,0.0,0.0,0.0,0.0,0.0,0.0,0.0,0.0,0.0,0.0,0.0,0.0,0.0,0.0,0.0,0.0,0.0,0.0,0.0,0.0,0.0,0.0,0.0,0.0,0.0,0.0,0.0,0.0,0.0,0.0,0.0,0.0,0.0,0.0,0.0,0.0,0.0,0.0,0.0,0.0,0.0,0.0,0.0,0.0,0.0,0.0,0.0,0.0,0.0,0.0,0.0,0.0,0.0,0.0,0.0,0.0,0.0,0.0,0.0,0.0,0.0,0.0,0.0,0.0,0.0,0.0,0.0,0.0,0.0,0.0,0.0,0.0,0.0,0.0,0.0,0.0,0.0,0.0,0.0,0.0,0.0,0.0,0.0,0.0,0.0,0.0,0.0,0.0,0.0,0.0,0.0,0.0,0.0,0.0,0.0,0.0,0.0,0.0,0.0,0.0,0.0,0.0,0.0,0.0,0.0,0.0,0.0,0.0,0.0,0.0,0.0,0.0,0.0,0.0,0.0,0.0,0.0,0.0,0.0,0.0,0.0,0.0,0.0,0.0,0.0,0.0,0.0,0.0,0.0,0.0,0.0,0.0,0.0,0.0,0.0,0.0,0.0,0.0,0.0,0.0,0.0,0.0,0.0,0.0,0.0,0.0,0.0,0.0,0.0,0.0,0.0,0.0,0.0,0.0,0.0,0.0,0.0,0.0,0.0,0.0,0.0,0.0,0.0,0.0,0.0,0.0,0.0,0.0,0.0,0.0,0.0,0.0,0.0,0.0,0.0,0.0,0.0,0.0,0.0,0.0,0.0,0.0,0.0,0.0,0.0,0.0,0.0,0.0,0.0,0.0,0.0,0.0,0.0,0.0,0.0,0.0,0.0,0.0,0.0,0.0,0.0,0.0,0.0,0.0,0.0,0.0,0.0,0.0,0.0,0.0,0.0,0.0,0.0,0.0,0.0,0.0,0.0,0.0,0.0,0.0,0.0,0.0,0.0,0.0,0.0,0.0,0.0,0.0,0.0,0.0,0.0,0.0,0.0,0.0,0.0,0.0,0.0,0.0,0.0,0.0,0.0,0.0,0.0,0.0,0.0,0.0,0.0,0.0,0.0,0.0,0.0,0.0,0.0,0.0,0.0,0.0,0.0,0.0,0.0,0.0,0.0,0.0,0.0,0.0,0.0,0.0,0.0,0.0,0.0,0.0,0.0,0.0,0.0,0.0,0.0,0.0,0.0,0.0,0.0,0.0,0.0,0.0,0.0,0.0,0.0,0.0,0.0,0.0,0.0,0.0,0.0,0.0,0.0,0.0,0.0,0.0,0.0,0.0,0.0,0.0,0.0,0.0,0.0,0.0,0.0,0.0,0.0,0.0,0.0,0.0,0.0,0.0,0.0,0.0,0.0,0.0,0.0,0.0,0.0,0.0,0.0,0.0,0.0,0.0,0.0,0.0,0.0,0.0,0.0,0.0,0.0,0.0,0.0,0.0,0.0,0.0,0.0,0.0,0.0,0.0,0.0,0.0,0.0,0.0,0.0,0.0,0.0,0.0,0.0,0.0,0.0,0.0,0.0,0.0,0.0,0.0,0.0,0.0,0.0,0.0,0.0,0.0,0.0,0.0,0.0,0.0,0.0,0.0,0.0,0.0,0.0,0.0,0.0,0.0,0.0,0.0,0.0,0.0,0.0,0.0,0.0,0.0,0.0,0.0,0.0,0.0,0.0,0.0,0.0,0.0,0.0,0.0,0.0,0.0,0.0,0.0,0.0,0.0,0.0,0.0,0.0,0.0,0.0,0.0,0.0,0.0,0.0,0.0,0.0,0.0,0.0,0.0,0.0,0.0,0.0,0.0,0.0,0.0,0.0,0.0,0.0,0.0,0.0,0.0,0.0,0.0,0.0,0.0,0.0,0.0,0.0,0.0,0.0,0.0,0.0,0.0,0.0,0.0,0.0,0.0,0.0,0.0,0.0,0.0,0.0,0.0,0.0,0.0,0.0,0.0,0.0,0.0,0.0,0.0,0.0,0.0,0.0,0.0,0.0,0.0,0.0,0.0,0.0,0.0,0.0,0.0,0.0,0.0,0.0,0.0,0.0,0.0,0.0,0.0,0.0,0.0,0.0,0.0,0.0,0.0,0.0,0.0,0.0,0.0,0.0,0.0,0.0,0.0,0.0,0.0,0.0,0.0,0.0,0.0,0.0,0.0,0.0,0.0,0.0,0.0,0.0,0.0,0.0,0.0,0.0,0.0,0.0,0.0,0.0,0.0,0.0,0.0,0.0,0.0,0.0,0.0,0.0,0.0,0.0,0.0,0.0,0.0,0.0,0.0,0.0,0.0,0.0,0.0,0.0,0.0,0.0,0.0,0.0,0.0,0.0,0.0,0.0,0.0,0.0,0.0,0.0,0.0,0.0,0.0,0.0,0.0,0.0,0.0,0.0,0.0,0.0,0.0,0.0,0.0,0.0,0.0,0.0,0.0,0.0,0.0,0.0,0.0,0.0,0.0,0.0,0.0,0.0,0.0,0.0,0.0,0.0,0.0,0.0,0.0,0.0,0.0,0.0,0.0,0.0,0.0,0.0,0.0,0.0,0.0,0.0,0.0,0.0,0.0,0.0,0.0,0.0,0.0,0.0,0.0,0.0,0.0,0.0,0.0,0.0,0.0,0.0,0.0,0.0,0.0,0.0,0.0,0.0,0.0,0.0,0.0,0.0,0.0,0.0,0.0,0.0,0.0,0.0,0.0,0.0,0.0,0.0,0.0,0.0,0.0,0.0,0.0,0.0,0.0,0.0,0.0,0.0,0.0,0.0,0.0,0.0,0.0,0.0,0.0,0.0,0.0,0.0,0.0,0.0,0.0,0.0,0.0,0.0,0.0,0.0,0.0,0.0,0.0,0.0,0.0,0.0,0.0,0.0,0.0,0.0,0.0,0.0,0.0,0.0,0.0,0.0,0.0,0.0,0.0,0.0,0.0,0.0,0.0,0.0,0.0,0.0,0.0,0.0,0.0,0.0,0.0,0.0,0.0,0.0,0.0,0.0,0.0,0.0,0.0,0.0,0.0,0.0,0.0,0.0,0.0,0.0,-2.0274,0.0,0.0,0.0,0.0,0.0,0.0,0.0,0.0,0.0,0.0,0.0,0.0,0.0,0.0,0.0,0.0,0.0,0.0,0.0,0.0,0.0,0.0,0.0,0.0,0.0,0.0,0.0,0.0,0.0,0.0,0.0,0.0,0.0,0.0,0.0,0.0,0.0,0.0,0.0,0.0,0.0,0.0,0.0,0.0,0.0,0.0,0.0,0.0,0.0,0.0,0.0,0.0,0.0,0.0,0.0,0.0,0.0,0.0,0.0,0.0,0.0,0.0,0.0,0.0,0.0,0.0,0.0,0.0,0.0,0.0,0.0,0.0,0.0,0.0,0.0,0.0,0.0,0.0,0.0,0.0,0.0,0.0,0.0,0.0,0.0,0.0,0.0,0.0,0.0,0.0,0.0,0.0,0.0,0.0,0.0,0.0,0.0,0.0,0.0,0.0,0.0,0.0,0.0,0.0,0.0,0.0,0.0,0.0,0.0,0.0,-2.2462,-2.1628,-2.0827,-2.0426,-2.0399,0.0,0.0,0.0,0.0,0.0,0.0,0.0,0.0,0.0,0.0,0.0,0.0,0.0,0.0,0.0,0.0,0.0,0.0,0.0,0.0,0.0,0.0,0.0,0.0,0.0,0.0,0.0,0.0,0.0,0.0,0.0,0.0,0.0,0.0,0.0,0.0,0.0,0.0,0.0,0.0,0.0,0.0,0.0,0.0,0.0,0.0,0.0,0.0,0.0,0.0,0.0,0.0,0.0,0.0,0.0,0.0,0.0,0.0,0.0,0.0,0.0,0.0,0.0,0.0,0.0,0.0,0.0,0.0,0.0,0.0,0.0,0.0,0.0,0.0,0.0,0.0,0.0,0.0,0.0,0.0,0.0,0.0,0.0,0.0,0.0,0.0,0.0,0.0,0.0,0.0,0.0,0.0,0.0,0.0,0.0,0.0,0.0,0.0,0.0,0.0,0.0,0.0,0.0,0.0,0.0,0.0,0.0,0.0,0.0,0.0,0.0,0.0,-2.1323,-2.069,-2.0527,0.0,0.0,0.0,0.0,0.0,0.0,0.0,0.0,0.0,0.0,0.0,0.0,0.0,0.0,0.0,0.0,0.0,0.0,0.0,0.0,0.0,0.0,0.0,0.0,0.0,0.0,0.0,0.0,0.0,0.0,0.0,0.0,0.0,0.0,0.0,0.0,0.0,0.0,0.0,0.0,0.0,0.0,0.0,0.0,0.0,0.0,0.0,0.0,0.0,0.0,0.0,0.0,0.0,0.0,0.0,0.0,0.0,0.0,0.0,0.0,0.0,0.0,0.0,0.0,0.0,0.0,0.0,0.0,0.0,0.0,0.0,0.0,0.0,0.0,0.0,0.0,0.0,0.0,0.0,0.0,0.0,0.0,0.0,0.0,0.0,0.0,0.0,0.0,0.0,0.0,0.0,0.0,0.0,0.0,0.0,0.0,0.0,0.0,0.0,0.0,0.0,0.0,0.0,0.0,0.0,0.0,0.0,0.0,0.0,0.0,-2.4235,-2.4121,-2.2539,0.0,-2.0552,0.0,0.0,0.0,0.0,0.0,0.0,0.0,0.0,0.0,0.0,0.0,0.0,0.0,0.0,0.0,0.0,0.0,0.0,0.0,0.0,0.0,0.0,0.0,0.0,0.0,0.0,0.0,0.0,0.0,0.0,0.0,0.0,0.0,0.0,0.0,0.0,0.0,0.0,0.0,0.0,0.0,0.0,0.0,0.0,0.0,0.0,0.0,0.0,0.0,0.0,0.0,0.0,0.0,0.0,0.0,0.0,0.0,0.0,0.0,0.0,0.0,0.0,0.0,0.0,0.0,0.0,0.0,0.0,0.0,0.0,0.0,0.0,0.0,0.0,0.0,0.0,0.0,0.0,0.0,0.0,0.0,0.0,0.0,0.0,0.0,0.0,0.0,0.0,0.0,0.0,0.0,0.0,0.0,0.0,0.0,0.0,0.0,0.0,0.0,0.0,0.0,0.0,0.0,0.0,0.0,0.0,0.0,0.0,0.0,0.0,-2.4408,-2.4422,-2.2715,-2.1625,0.0,0.0,0.0,0.0,0.0,0.0,0.0,0.0,0.0,0.0,0.0,0.0,0.0,0.0,0.0,0.0,0.0,0.0,0.0,0.0,0.0,0.0,0.0,0.0,0.0,0.0,0.0,0.0,0.0,0.0,0.0,0.0,0.0,0.0,0.0,0.0,0.0,0.0,0.0,0.0,0.0,0.0,0.0,0.0,0.0,0.0,0.0,0.0,0.0,0.0,0.0,0.0,0.0,0.0,0.0,0.0,0.0,0.0,0.0,0.0,0.0,0.0,0.0,0.0,0.0,0.0,0.0,0.0,0.0,0.0,0.0,0.0,0.0,0.0,0.0,0.0,0.0,0.0,0.0,0.0,0.0,0.0,0.0,0.0,0.0,0.0,0.0,0.0,0.0,0.0,0.0,0.0,0.0,0.0,0.0,0.0,0.0,0.0,0.0,0.0,0.0,0.0,0.0,0.0,0.0,0.0,0.0,0.0,0.0,0.0,-2.5063,-2.4606,-2.4316,-2.3128,-2.2202,-2.1681,0.0,0.0,0.0,0.0,0.0,0.0,0.0,0.0,0.0,0.0,0.0,0.0,0.0,0.0,0.0,0.0,0.0,0.0,0.0,0.0,0.0,0.0,0.0,0.0,0.0,0.0,0.0,0.0,0.0,0.0,0.0,0.0,0.0,0.0,0.0,0.0,0.0,0.0,0.0,0.0,0.0,0.0,0.0,0.0,0.0,0.0,0.0,0.0,0.0,0.0,0.0,0.0,0.0,0.0,0.0,0.0,0.0,0.0,0.0,0.0,0.0,0.0,0.0,0.0,0.0,0.0,0.0,0.0,0.0,0.0,0.0,0.0,0.0,0.0,0.0,0.0,0.0,0.0,0.0,0.0,0.0,0.0,0.0,0.0,0.0,0.0,0.0,0.0,0.0,0.0,0.0,0.0,0.0,0.0,0.0,0.0,0.0,0.0,0.0,0.0,0.0,0.0,0.0,0.0,0.0,0.0,0.0,0.0,-2.5615,-2.5576,-2.5127,-2.4282,-2.4128,-2.3321,0.0,0.0,0.0,0.0,0.0,0.0,0.0,0.0,0.0,0.0,0.0,0.0,0.0,0.0,0.0,0.0,0.0,0.0,0.0,0.0,0.0,0.0,0.0,0.0,0.0,0.0,0.0,0.0,0.0,0.0,0.0,0.0,0.0,0.0,0.0,0.0,0.0,0.0,0.0,0.0,0.0,0.0,0.0,0.0,0.0,0.0,0.0,0.0,0.0,0.0,0.0,0.0,0.0,0.0,0.0,0.0,0.0,0.0,0.0,0.0,0.0,0.0,0.0,0.0,0.0,0.0,0.0,0.0,0.0,0.0,0.0,0.0,0.0,0.0,0.0,0.0,0.0,0.0,0.0,0.0,0.0,0.0,0.0,0.0,0.0,0.0,0.0,0.0,0.0,0.0,0.0,0.0,0.0,0.0,0.0,0.0,0.0,0.0,0.0,0.0,0.0,0.0,0.0,0.0,0.0,0.0,0.0,0.0,0.0,-2.6301,-2.6808,-2.668,-2.5832,-2.5228,-2.4105,0.0,0.0,0.0,0.0,0.0,0.0,0.0,0.0,0.0,0.0,0.0,0.0,0.0,0.0,0.0,0.0,0.0,0.0,0.0,0.0,0.0,0.0,0.0,0.0,0.0,0.0,0.0,0.0,0.0,0.0,0.0,0.0,0.0,0.0,0.0,0.0,0.0,0.0,0.0,0.0,0.0,0.0,0.0,0.0,0.0,0.0,0.0,0.0,0.0,0.0,0.0,0.0,0.0,0.0,0.0,0.0,0.0,0.0,0.0,0.0,0.0,0.0,0.0,0.0,0.0,0.0,0.0,0.0,0.0,0.0,0.0,0.0,0.0,0.0,0.0,0.0,0.0,0.0,0.0,0.0,0.0,0.0,0.0,0.0,0.0,0.0,0.0,0.0,0.0,0.0,0.0,0.0,0.0,0.0,0.0,0.0,0.0,0.0,0.0,0.0,0.0,0.0,0.0,0.0,0.0,0.0,0.0,0.0,0.0,-2.744,0.0,-2.7739,-2.743,-2.6283,-2.5004,0.0,0.0,0.0,0.0,0.0,0.0,0.0,0.0,0.0,0.0,0.0,0.0,0.0,0.0,0.0,0.0,0.0,0.0,0.0,0.0,0.0,0.0,0.0,0.0,0.0,0.0,0.0,0.0,0.0,0.0,0.0,0.0,0.0,0.0,0.0,0.0,0.0,0.0,0.0,0.0,0.0,0.0,0.0,0.0,0.0,0.0,0.0,0.0,0.0,0.0,0.0,0.0,0.0,0.0,0.0,0.0,0.0,0.0,0.0,0.0,0.0,0.0,0.0,0.0,0.0,0.0,0.0,0.0,0.0,0.0,0.0,0.0,0.0,0.0,0.0,0.0,0.0,0.0,0.0,0.0,0.0,0.0,0.0,0.0,0.0,0.0,0.0,0.0,0.0,0.0,0.0,0.0,0.0,0.0,0.0,0.0,0.0,0.0,0.0,0.0,0.0,0.0,0.0,0.0,0.0,0.0,0.0,0.0,-2.8384,-2.9087,-2.8449,-2.8548,-2.9021,-2.7503,-2.609,0.0,0.0,0.0,0.0,0.0,0.0,0.0,0.0,0.0,0.0,0.0,0.0,0.0,0.0,0.0,0.0,0.0,0.0,0.0,0.0,0.0,0.0,0.0,0.0,0.0,0.0,0.0,0.0,0.0,0.0,0.0,0.0,0.0,0.0,0.0,0.0,0.0,0.0,0.0,0.0,0.0,0.0,0.0,0.0,0.0,0.0,0.0,0.0,0.0,0.0,0.0,0.0,0.0,0.0,0.0,0.0,0.0,0.0,0.0,0.0,0.0,0.0,0.0,0.0,0.0,0.0,0.0,0.0,0.0,0.0,0.0,0.0,0.0,0.0,0.0,0.0,0.0,0.0,0.0,0.0,0.0,0.0,0.0,0.0,0.0,0.0,0.0,0.0,0.0,0.0,0.0,0.0,0.0,0.0,0.0,0.0,0.0,0.0,0.0,0.0,0.0,0.0,0.0,0.0,0.0,0.0,0.0,0.0,0.0,-3.2431,-3.3233,-3.347,-3.3108,-3.1428,-2.9345,0.0,0.0,0.0,0.0,0.0,0.0,0.0,0.0,0.0,0.0,0.0,0.0,0.0,0.0,0.0,0.0,0.0,0.0,0.0,0.0,0.0,0.0,0.0,0.0,0.0,0.0,0.0,0.0,0.0,0.0,0.0,0.0,0.0,0.0,0.0,0.0,0.0,0.0,0.0,0.0,0.0,0.0,0.0,0.0,0.0,0.0,0.0,0.0,0.0,0.0,0.0,0.0,0.0,0.0,0.0,0.0,0.0,0.0,0.0,0.0,0.0,0.0,0.0,0.0,0.0,0.0,0.0,0.0,0.0,0.0,0.0,0.0,0.0,0.0,0.0,0.0,0.0,0.0,0.0,0.0,0.0,0.0,0.0,0.0,0.0,0.0,0.0,0.0,0.0,0.0,0.0,0.0,0.0,0.0,0.0,0.0,0.0,0.0,0.0,0.0,0.0,0.0,0.0,0.0,0.0,0.0,0.0,0.0,0.0,-3.8222,-3.8048,-3.7837,-3.761,-3.5576,-3.2805,-2.9228,0.0,0.0,0.0,0.0,0.0,0.0,0.0,0.0,0.0,0.0,0.0,0.0,0.0,0.0,0.0,0.0,0.0,0.0,0.0,0.0,0.0,0.0,0.0,0.0,0.0,0.0,0.0,0.0,0.0,0.0,0.0,0.0,0.0,0.0,0.0,0.0,0.0,0.0,0.0,0.0,0.0,0.0,0.0,0.0,0.0,0.0,0.0,0.0,0.0,0.0,0.0,0.0,0.0,0.0,0.0,0.0,0.0,0.0,0.0,0.0,0.0,0.0,0.0,0.0,0.0,0.0,0.0,0.0,0.0,0.0,0.0,0.0,0.0,0.0,0.0,0.0,0.0,0.0,0.0,0.0,0.0,0.0,0.0,0.0,0.0,0.0,0.0,0.0,0.0,0.0,0.0,0.0,0.0,0.0,0.0,0.0,0.0,0.0,0.0,0.0,0.0,0.0,0.0,0.0,0.0,0.0,0.0,0.0,-4.5881,-4.3053,-4.1844,-4.2227,-3.9765,-3.6447,0.0,0.0,0.0,0.0,0.0,0.0,0.0,0.0,0.0,0.0,0.0,0.0,0.0,0.0,0.0,0.0,0.0,0.0,0.0,0.0,0.0,0.0,0.0,0.0,0.0,0.0,0.0,0.0,0.0,0.0,0.0,0.0,0.0,0.0,0.0,0.0,0.0,0.0,0.0,0.0,0.0,0.0,0.0,0.0,0.0,0.0,0.0,0.0,0.0,0.0,0.0,0.0,0.0,0.0,0.0,0.0,0.0,0.0,0.0,0.0,0.0,0.0,0.0,0.0,0.0,0.0,0.0,0.0,0.0,0.0,0.0,0.0,0.0,0.0,0.0,0.0,0.0,0.0,0.0,0.0,0.0,0.0,0.0,0.0,0.0,0.0,0.0,0.0,0.0,0.0,0.0,0.0,0.0,0.0,0.0,0.0,0.0,0.0,0.0,0.0,0.0,0.0,0.0,0.0,0.0,0.0,0.0,0.0,0.0,-4.9629,-5.1121,-5.0063,-4.6326,-4.4278,-4.0465,0.0,0.0,0.0,0.0,0.0,0.0,0.0,0.0,0.0,0.0,0.0,0.0,0.0,0.0,0.0,0.0,0.0,0.0,0.0,0.0,0.0,0.0,0.0,0.0,0.0,0.0,0.0,0.0,0.0,0.0,0.0,0.0,0.0,0.0,0.0,0.0,0.0,0.0,0.0,0.0,0.0,0.0,0.0,0.0,0.0,0.0,0.0,0.0,0.0,0.0,0.0,0.0,0.0,0.0,0.0,0.0,0.0,0.0,0.0,0.0,0.0,0.0,0.0,0.0,0.0,0.0,0.0,0.0,0.0,0.0,0.0,0.0,0.0,0.0,0.0,0.0,0.0,0.0,0.0,0.0,0.0,0.0,0.0,0.0,0.0,0.0,0.0,0.0,0.0,0.0,0.0,0.0,0.0,0.0,0.0,0.0,0.0,0.0,0.0,0.0,0.0,0.0,0.0,0.0,0.0,0.0,0.0,0.0,-4.7794,-5.2176,-5.5502,-5.557,-5.2098,-4.9122,-4.4668,0.0,0.0,0.0,0.0,0.0,0.0,0.0,0.0,0.0,0.0,0.0,0.0,0.0,0.0,0.0,0.0,0.0,0.0,0.0,0.0,0.0,0.0,0.0,0.0,0.0,0.0,0.0,0.0,0.0,0.0,0.0,0.0,0.0,0.0,0.0,0.0,0.0,0.0,0.0,0.0,0.0,0.0,0.0,0.0,0.0,0.0,0.0,0.0,0.0,0.0,0.0,0.0,0.0,0.0,0.0,0.0,0.0,0.0,0.0,0.0,0.0,0.0,0.0,0.0,0.0,0.0,0.0,0.0,0.0,0.0,0.0,0.0,0.0,0.0,0.0,0.0,0.0,0.0,0.0,0.0,0.0,0.0,0.0,0.0,0.0,0.0,0.0,0.0,0.0,0.0,0.0,0.0,0.0,0.0,0.0,0.0,0.0,0.0,0.0,0.0,0.0,0.0,0.0,0.0,0.0,0.0,0.0,0.0,-4.964,-5.3743,-5.7342,-5.8914,-5.8143,-5.3713,-4.8511,0.0,0.0,0.0,0.0,0.0,0.0,0.0,0.0,0.0,0.0,0.0,0.0,0.0,0.0,0.0,0.0,0.0,0.0,0.0,0.0,0.0,0.0,0.0,0.0,0.0,0.0,0.0,0.0,0.0,0.0,0.0,0.0,0.0,0.0,0.0,0.0,0.0,0.0,0.0,0.0,0.0,0.0,0.0,0.0,0.0,0.0,0.0,0.0,0.0,0.0,0.0,0.0,0.0,0.0,0.0,0.0,0.0,0.0,0.0,0.0,0.0,0.0,0.0,0.0,0.0,0.0,0.0,0.0,0.0,0.0,0.0,0.0,0.0,0.0,0.0,0.0,0.0,0.0,0.0,0.0,0.0,0.0,0.0,0.0,0.0,0.0,0.0,0.0,0.0,0.0,0.0,0.0,0.0,0.0,0.0,0.0,0.0,0.0,0.0,0.0,0.0,0.0,0.0,0.0,0.0,0.0,0.0,0.0,-5.0655,-5.5141,-5.7822,-5.9428,-5.985,-5.5831,-5.0655,0.0,0.0,0.0,0.0,0.0,0.0,0.0,0.0,0.0,0.0,0.0,0.0,0.0,0.0,0.0,0.0,0.0,0.0,0.0,0.0,0.0,0.0,0.0,0.0,0.0,0.0,0.0,0.0,0.0,0.0,0.0,0.0,0.0,0.0,0.0,0.0,0.0,0.0,0.0,0.0,0.0,0.0,0.0,0.0,0.0,0.0,0.0,0.0,-3.7923,0.0,0.0,0.0,0.0,0.0,0.0,0.0,0.0,0.0,0.0,0.0,0.0,0.0,0.0,0.0,0.0,0.0,0.0,0.0,0.0,0.0,0.0,0.0,0.0,0.0,0.0,0.0,0.0,0.0,0.0,0.0,0.0,0.0,0.0,0.0,0.0,0.0,0.0,0.0,0.0,0.0,0.0,0.0,0.0,0.0,0.0,0.0,0.0,0.0,0.0,0.0,0.0,0.0,0.0,0.0,0.0,0.0,0.0,0.0,-5.089,-5.554,-5.762,-5.9208,-6.0199,-5.6813,-5.2328,0.0,0.0,0.0,0.0,0.0,0.0,0.0,0.0,0.0,0.0,0.0,0.0,0.0,0.0,0.0,0.0,0.0,0.0,0.0,0.0,0.0,0.0,0.0,0.0,0.0,0.0,0.0,0.0,0.0,0.0,0.0,0.0,0.0,0.0,0.0,0.0,0.0,0.0,0.0,0.0,0.0,0.0,0.0,0.0,0.0,0.0,0.0,0.0,0.0,0.0,0.0,0.0,0.0,0.0,0.0,0.0,0.0,0.0,0.0,0.0,0.0,0.0,0.0,0.0,0.0,0.0,0.0,0.0,0.0,0.0,0.0,0.0,0.0,0.0,0.0,0.0,0.0,0.0,0.0,0.0,0.0,0.0,0.0,0.0,0.0,0.0,0.0,0.0,0.0,0.0,0.0,0.0,0.0,0.0,0.0,0.0,0.0,0.0,0.0,0.0,0.0,0.0,0.0,0.0,0.0,0.0,0.0,-4.6966,-5.083,-5.5484,-5.7087,-5.8529,-5.9876,-5.7015,-5.3449,-4.9328,0.0,0.0,0.0,0.0,0.0,0.0,0.0,0.0,0.0,0.0,0.0,0.0,0.0,0.0,0.0,0.0,0.0,0.0,0.0,0.0,0.0,0.0,0.0,0.0,0.0,0.0,0.0,0.0,0.0,0.0,0.0,0.0,0.0,0.0,0.0,0.0,0.0,0.0,-3.2225,-3.4385,0.0,0.0,0.0,0.0,0.0,0.0,0.0,0.0,-3.9967,0.0,0.0,0.0,0.0,0.0,0.0,0.0,0.0,0.0,0.0,0.0,0.0,0.0,0.0,0.0,0.0,0.0,0.0,0.0,0.0,0.0,0.0,0.0,0.0,0.0,0.0,0.0,0.0,0.0,0.0,0.0,0.0,0.0,0.0,0.0,0.0,0.0,0.0,0.0,0.0,0.0,0.0,0.0,0.0,0.0,0.0,0.0,0.0,0.0,0.0,0.0,0.0,0.0,0.0,0.0,0.0,-4.4554,-4.7187,-5.0812,-5.5489,-5.651,-5.74,-5.815,-5.6383,-5.3405,-4.9167,0.0,0.0,0.0,0.0,0.0,0.0,0.0,0.0,0.0,0.0,0.0,0.0,0.0,0.0,0.0,0.0,0.0,0.0,0.0,0.0,0.0,0.0,0.0,0.0,0.0,0.0,0.0,0.0,0.0,0.0,0.0,0.0,0.0,0.0,0.0,0.0,0.0,0.0,0.0,-3.7508,-3.9407,0.0,0.0,0.0,0.0,0.0,0.0,0.0,0.0,-4.2118,0.0,0.0,0.0,0.0,0.0,0.0,0.0,0.0,0.0,0.0,0.0,0.0,0.0,0.0,0.0,0.0,0.0,0.0,0.0,0.0,0.0,0.0,0.0,0.0,0.0,0.0,0.0,0.0,0.0,0.0,0.0,0.0,0.0,0.0,0.0,0.0,0.0,0.0,0.0,0.0,0.0,0.0,0.0,0.0,0.0,0.0,0.0,0.0,0.0,0.0,0.0,0.0,0.0,0.0,0.0,-4.5111,-4.739,-5.0472,-5.459,-5.5221,-5.5743,-5.627,-5.4346,-5.1726,0.0,0.0,0.0,0.0,0.0,0.0,0.0,0.0,0.0,0.0,0.0,0.0,0.0,0.0,0.0,0.0,0.0,0.0,0.0,0.0,0.0,0.0,0.0,0.0,0.0,0.0,0.0,0.0,0.0,0.0,0.0,0.0,0.0,0.0,0.0,0.0,0.0,0.0,0.0,0.0,-3.9618,-4.1334,-4.2808,0.0,0.0,0.0,0.0,0.0,0.0,-4.4392,-4.3169,0.0,0.0,0.0,0.0,0.0,0.0,0.0,0.0,0.0,0.0,0.0,0.0,0.0,0.0,0.0,0.0,0.0,0.0,0.0,0.0,0.0,0.0,0.0,0.0,0.0,0.0,0.0,0.0,0.0,0.0,0.0,0.0,0.0,0.0,0.0,0.0,0.0,0.0,0.0,0.0,0.0,0.0,0.0,0.0,0.0,0.0,0.0,0.0,0.0,0.0,0.0,0.0,0.0,0.0,0.0,-4.5389,-4.7349,-4.9903,-5.3244,-5.3845,-5.4136,-5.4302,-5.2154,-4.9756,0.0,0.0,0.0,0.0,0.0,0.0,0.0,0.0,0.0,0.0,0.0,0.0,0.0,0.0,0.0,0.0,0.0,0.0,0.0,0.0,0.0,0.0,0.0,0.0,0.0,0.0,0.0,0.0,0.0,0.0,0.0,0.0,0.0,0.0,0.0,0.0,0.0,0.0,0.0,0.0,0.0,-4.2981,-4.5263,-4.4927,0.0,0.0,0.0,0.0,-4.6279,-4.551,0.0,0.0,0.0,0.0,0.0,0.0,0.0,0.0,0.0,0.0,0.0,0.0,0.0,0.0,0.0,0.0,0.0,0.0,0.0,0.0,0.0,0.0,0.0,0.0,0.0,0.0,0.0,0.0,0.0,0.0,0.0,0.0,0.0,0.0,0.0,0.0,0.0,0.0,0.0,0.0,0.0,0.0,0.0,0.0,0.0,0.0,0.0,0.0,0.0,0.0,0.0,0.0,0.0,0.0,0.0,0.0,-4.4307,-4.6843,-4.9143,-5.1338,-5.2767,-5.3123,-5.2287,-5.0587,-4.8254,0.0,0.0,0.0,0.0,0.0,0.0,0.0,0.0,0.0,0.0,0.0,0.0,0.0,0.0,0.0,0.0,0.0,0.0,0.0,0.0,0.0,0.0,0.0,0.0,0.0,0.0,0.0,0.0,0.0,0.0,0.0,0.0,0.0,0.0,0.0,0.0,0.0,0.0,0.0,0.0,0.0,-4.442,-4.6562,-4.6671,-4.6541,0.0,0.0,-4.7439,-4.6981,-4.7972,0.0,0.0,0.0,0.0,0.0,0.0,0.0,0.0,0.0,0.0,0.0,0.0,0.0,0.0,0.0,0.0,0.0,0.0,0.0,0.0,0.0,0.0,0.0,0.0,0.0,0.0,0.0,0.0,0.0,0.0,0.0,0.0,0.0,0.0,0.0,0.0,0.0,0.0,0.0,0.0,0.0,0.0,0.0,0.0,0.0,0.0,0.0,0.0,0.0,0.0,0.0,0.0,0.0,0.0,0.0,-3.8769,-4.4068,-4.6176,-4.8152,-5.0106,-5.0908,-5.0946,-5.0236,-4.8389,-4.6248,0.0,0.0,0.0,0.0,0.0,0.0,0.0,0.0,0.0,0.0,0.0,0.0,0.0,0.0,0.0,0.0,0.0,0.0,0.0,0.0,0.0,0.0,0.0,0.0,0.0,0.0,0.0,0.0,0.0,0.0,0.0,0.0,0.0,0.0,0.0,0.0,0.0,0.0,0.0,0.0,0.0,0.0,-4.6818,-4.7612,0.0,0.0,0.0,-4.7824,-4.7496,0.0,0.0,0.0,0.0,0.0,0.0,0.0,0.0,0.0,0.0,0.0,0.0,0.0,0.0,0.0,0.0,0.0,0.0,0.0,0.0,0.0,0.0,0.0,0.0,0.0,0.0,0.0,0.0,0.0,0.0,0.0,0.0,0.0,0.0,0.0,0.0,0.0,0.0,0.0,0.0,0.0,0.0,0.0,0.0,0.0,0.0,0.0,0.0,0.0,0.0,0.0,0.0,0.0,0.0,0.0,0.0,0.0,-4.3643,-4.5463,-4.7237,-4.8972,-4.9287,-4.918,-4.8508,-4.6525,0.0,0.0,0.0,0.0,0.0,0.0,0.0,0.0,0.0,0.0,0.0,0.0,0.0,0.0,0.0,0.0,0.0,0.0,0.0,0.0,0.0,0.0,0.0,0.0,0.0,0.0,0.0,-2.738,0.0,0.0,0.0,0.0,0.0,0.0,0.0,0.0,0.0,0.0,0.0,0.0,0.0,0.0,-4.625,-4.7323,-4.847,-4.9343,0.0,0.0,-4.823,-4.7995,-4.8272,-4.7542,0.0,0.0,0.0,0.0,0.0,0.0,0.0,0.0,0.0,0.0,0.0,0.0,0.0,0.0,0.0,0.0,0.0,0.0,0.0,0.0,0.0,0.0,0.0,0.0,0.0,0.0,0.0,0.0,0.0,0.0,0.0,0.0,0.0,0.0,0.0,0.0,0.0,0.0,0.0,0.0,0.0,0.0,0.0,0.0,0.0,0.0,0.0,0.0,0.0,0.0,0.0,0.0,0.0,0.0,0.0,-4.2436,-4.4778,-4.6569,-4.7877,-4.8441,-4.8256,-4.7315,-4.5658,-4.3772,0.0,0.0,0.0,0.0,0.0,0.0,0.0,0.0,0.0,0.0,0.0,0.0,0.0,0.0,0.0,0.0,0.0,0.0,0.0,0.0,0.0,0.0,0.0,0.0,0.0,0.0,0.0,0.0,0.0,0.0,0.0,0.0,0.0,0.0,0.0,0.0,0.0,0.0,0.0,0.0,0.0,-4.6519,-4.8758,-4.9604,-5.0226,0.0,0.0,-4.9451,-4.8569,-4.9703,-4.9397,-4.5564,0.0,0.0,0.0,0.0,0.0,0.0,0.0,0.0,0.0,0.0,0.0,0.0,0.0,0.0,0.0,0.0,0.0,0.0,0.0,0.0,0.0,0.0,0.0,0.0,0.0,0.0,0.0,0.0,0.0,0.0,0.0,0.0,0.0,0.0,0.0,0.0,0.0,0.0,0.0,0.0,0.0,0.0,0.0,0.0,0.0,0.0,0.0,0.0,0.0,0.0,0.0,0.0,0.0,-3.9066,-4.2239,-4.4082,-4.5676,-4.6883,-4.7156,-4.6958,-4.6324,-4.5364,-4.3885,0.0,0.0,0.0,0.0,0.0,0.0,0.0,0.0,0.0,0.0,0.0,0.0,0.0,0.0,0.0,0.0,0.0,0.0,0.0,0.0,0.0,0.0,0.0,0.0,0.0,0.0,0.0,0.0,-3.2765,-3.3259,-3.259,0.0,0.0,0.0,0.0,0.0,0.0,0.0,0.0,0.0,0.0,-4.7083,-4.8816,-4.9608,0.0,0.0,-4.9631,-4.8749,-4.7842,-4.8155,-4.768,-4.5165,-4.3406,0.0,0.0,0.0,0.0,0.0,0.0,0.0,0.0,0.0,0.0,0.0,0.0,0.0,0.0,0.0,0.0,0.0,0.0,0.0,0.0,0.0,0.0,0.0,0.0,0.0,0.0,0.0,0.0,0.0,0.0,0.0,0.0,0.0,0.0,0.0,0.0,0.0,0.0,0.0,0.0,0.0,0.0,0.0,0.0,0.0,0.0,0.0,0.0,0.0,0.0,0.0,0.0,-3.9399,-4.2151,-4.3685,-4.5113,-4.6363,-4.6301,-4.6105,-4.5803,-4.509,-4.391,0.0,0.0,0.0,0.0,0.0,0.0,0.0,0.0,0.0,0.0,0.0,0.0,0.0,0.0,0.0,0.0,0.0,0.0,0.0,0.0,0.0,0.0,0.0,0.0,0.0,0.0,0.0,0.0,-3.3709,-3.3957,-3.2931,0.0,0.0,0.0,0.0,0.0,0.0,0.0,0.0,0.0,0.0,-4.731,-4.8768,-4.926,-4.9559,-4.973,-4.901,-4.8218,-4.7535,-4.7337,-4.6738,-4.5081,0.0,0.0,0.0,0.0,0.0,0.0,0.0,0.0,0.0,0.0,0.0,0.0,0.0,0.0,0.0,0.0,0.0,0.0,0.0,0.0,0.0,0.0,0.0,0.0,0.0,0.0,0.0,0.0,0.0,0.0,0.0,0.0,0.0,0.0,0.0,0.0,0.0,0.0,0.0,0.0,0.0,0.0,0.0,0.0,0.0,0.0,0.0,0.0,0.0,0.0,0.0,0.0,0.0,-3.9953,-4.2068,-4.3554,-4.5004,-4.6328,-4.6005,-4.5838,-4.5752,-4.4836,-4.3611,-4.2009,0.0,0.0,0.0,0.0,0.0,0.0,0.0,0.0,0.0,0.0,0.0,0.0,0.0,0.0,0.0,0.0,0.0,0.0,0.0,0.0,0.0,0.0,0.0,0.0,0.0,0.0,-3.3259,-3.3429,-3.3459,0.0,0.0,0.0,0.0,0.0,0.0,0.0,0.0,0.0,0.0,-4.5727,-4.712,-4.8659,-4.8702,-4.8766,-4.941,-4.879,-4.8197,-4.798,-4.7933,-4.7388,0.0,0.0,0.0,0.0,0.0,0.0,0.0,0.0,0.0,0.0,0.0,0.0,0.0,0.0,0.0,0.0,0.0,0.0,0.0,0.0,0.0,0.0,0.0,0.0,0.0,0.0,0.0,-3.9001,-3.8732,0.0,0.0,0.0,0.0,0.0,0.0,0.0,0.0,0.0,0.0,0.0,-4.1443,-4.0941,0.0,0.0,0.0,0.0,0.0,0.0,0.0,0.0,0.0,0.0,0.0,0.0,-4.0331,-4.1909,-4.3483,-4.4911,-4.6102,-4.5905,-4.5701,-4.5546,-4.4716,-4.332,-4.1174,0.0,0.0,0.0,0.0,0.0,0.0,0.0,0.0,0.0,0.0,0.0,0.0,0.0,0.0,0.0,0.0,0.0,0.0,0.0,0.0,0.0,0.0,0.0,0.0,0.0,-3.3454,0.0,0.0,0.0,0.0,0.0,0.0,0.0,0.0,0.0,0.0,0.0,-4.2831,-4.4833,-4.6345,-4.7633,-4.8461,-4.8497,-4.8496,0.0,0.0,0.0,0.0,0.0,0.0,0.0,0.0,0.0,0.0,0.0,0.0,0.0,0.0,-3.7005,-3.5506,-3.5615,-3.5919,-3.5883,0.0,0.0,0.0,0.0,0.0,0.0,0.0,0.0,0.0,0.0,0.0,0.0,0.0,0.0,0.0,0.0,-3.9665,0.0,0.0,0.0,0.0,0.0,0.0,0.0,0.0,-4.2189,-4.2508,-4.249,-4.1952,-4.1163,0.0,-4.0446,-3.9245,0.0,0.0,0.0,0.0,0.0,0.0,0.0,0.0,-4.06,-4.215,-4.3517,-4.4771,-4.5935,-4.5803,-4.5632,-4.5372,-4.4561,-4.3254,-4.1372,-3.8897,-3.6819,0.0,0.0,0.0,0.0,0.0,0.0,0.0,0.0,0.0,0.0,0.0,0.0,0.0,0.0,0.0,0.0,0.0,0.0,0.0,0.0,0.0,0.0,0.0,-3.4232,0.0,0.0,0.0,0.0,0.0,0.0,0.0,0.0,0.0,-3.9125,-4.1905,-4.4318,-4.5423,-4.6639,-4.7535,-4.7786,0.0,0.0,0.0,0.0,0.0,0.0,0.0,-4.5676,-4.5646,-4.511,-4.4448,-4.3786,-4.2485,-4.1374,-4.0945,0.0,0.0,-3.7724,-3.7739,-3.8033,-3.7976,-3.7857,-3.7737,-3.7755,-3.7656,-3.7615,0.0,0.0,0.0,0.0,0.0,0.0,0.0,0.0,-3.9601,-4.0038,0.0,-3.9914,0.0,0.0,0.0,0.0,0.0,0.0,0.0,0.0,-4.4239,-4.3839,-4.2483,-4.243,-4.2376,-4.2412,-4.3108,-4.2662,-4.1092,-3.9819,0.0,0.0,0.0,0.0,0.0,0.0,-4.0878,-4.2855,-4.3754,-4.4759,-4.592,-4.5752,-4.5529,-4.532,-4.4369,-4.3388,-4.2482,-4.1069,-3.899,-3.6021,-3.3792,0.0,0.0,0.0,0.0,0.0,0.0,0.0,0.0,0.0,0.0,0.0,0.0,0.0,0.0,0.0,0.0,0.0,0.0,0.0,0.0,-3.328,0.0,0.0,0.0,0.0,0.0,0.0,0.0,0.0,0.0,0.0,-4.2352,-4.4083,-4.5353,-4.6,0.0,0.0,0.0,0.0,-4.659,-4.6607,-4.659,-4.6542,-4.6447,-4.6381,-4.6332,-4.6204,0.0,0.0,-4.5168,-4.3799,-4.2363,-4.1209,-4.0955,-4.0676,-3.961,-3.9346,-3.9333,-3.9231,-3.9103,-3.8973,-3.8973,-3.8955,-3.8973,-4.5582,0.0,0.0,0.0,0.0,-4.1049,-4.1791,-4.296,-4.2605,-4.2616,-4.2946,-4.3131,0.0,0.0,0.0,0.0,0.0,0.0,-4.3877,-4.431,-4.45,-4.4678,-4.4803,-4.4803,-4.45,-4.3964,-4.4178,-4.3786,-4.2876,-4.2935,-4.1578,-3.8863,0.0,0.0,0.0,0.0,-4.1839,-4.2908,-4.4138,-4.5106,-4.5854,-4.558,-4.5078,-4.4351,-4.3282,-4.2428,-4.1733,-4.0238,-3.8764,-3.7326,-3.4677,0.0,0.0,0.0,0.0,0.0,0.0,0.0,0.0,0.0,0.0,0.0,0.0,0.0,0.0,0.0,0.0,0.0,0.0,0.0,-3.2298,-3.36,-3.4076,0.0,0.0,0.0,0.0,0.0,0.0,0.0,0.0,0.0,-4.1855,-4.3625,-4.515,0.0,0.0,-4.6731,-4.6447,-4.659,-4.6684,-4.6619,0.0,0.0,0.0,-4.6301,-4.6055,-4.5803,-4.53,-4.4774,-4.4331,-4.3226,-4.2067,-4.1209,-4.096,-4.0538,-3.9658,-3.9939,-4.036,-4.0548,-4.0537,-4.0464,-4.0481,-4.0418,-4.0354,-5.0305,-4.7402,-4.3818,-4.2437,-4.2591,-4.2832,-4.334,-4.4072,-4.4078,-4.4283,-4.4629,-4.4682,-4.4396,-4.3847,-4.4068,0.0,0.0,0.0,-4.4686,-4.5088,-4.5088,-4.5178,-4.532,-4.532,-4.5088,-4.4642,-4.4946,-4.4696,-4.3946,-4.4714,-4.375,-4.1163,0.0,0.0,-3.9944,-4.1226,-4.2494,-4.3704,-4.4523,-4.5187,-4.5701,-4.5113,-4.4489,-4.3849,-4.287,-4.2136,-4.1731,-4.0544,-3.9394,-3.8362,-3.574,-3.3592,0.0,0.0,0.0,0.0,0.0,0.0,0.0,0.0,0.0,0.0,0.0,-2.8224,-2.832,0.0,0.0,0.0,-3.244,-3.3138,-3.3813,-3.4457,0.0,0.0,0.0,0.0,0.0,0.0,0.0,-3.6811,-3.8078,-3.9581,-4.1464,-4.2724,-4.3898,-4.5193,-4.5464,-4.5522,-4.553,0.0,-4.6206,-4.6411,-4.6447,-4.6293,-4.5813,-4.532,-4.4657,-4.3783,-4.3366,-4.2964,-4.2623,-4.1864,-4.1064,-4.038,-3.9989,-3.9534,-3.8836,-3.9364,-4.0158,-4.0832,-4.1029,-4.1047,-4.1047,-4.0935,-4.0871,-5.455,-5.3148,-4.6909,-4.3996,-4.352,-4.4114,-4.4223,-4.3924,-4.4561,-4.5257,-4.5882,-4.5142,-4.5178,-4.5749,-4.5035,0.0,0.0,-4.5802,-4.5784,-4.5802,-4.5802,-4.5427,-4.4732,-4.4785,-4.4803,-4.4839,-4.5534,-4.5534,-4.4874,-4.5534,-4.5499,-4.4678,-4.3286,-4.2394,-4.2129,-4.2182,-4.3057,-4.4851,-4.4956,-4.5157,-4.5459,-4.4387,-4.3746,-4.3639,-4.2664,-4.21,-4.2083,-4.1339,-4.0273,-3.8836,-3.6772,-3.4928,-3.344,0.0,0.0,0.0,0.0,0.0,0.0,0.0,0.0,0.0,0.0,0.0,0.0,0.0,0.0,0.0,-3.4416,0.0,-3.6028,-3.5454,0.0,0.0,0.0,-3.396,-3.3877,-3.4559,-3.5547,-3.6921,0.0,0.0,0.0,0.0,-4.1883,-4.3048,-4.3353,-4.3684,-4.4297,-4.4736,-4.5229,-4.5877,-4.607,-4.5725,-4.4711,-4.39,-4.2852,-4.1349,-4.0922,-4.106,-4.0731,-4.0191,-3.9581,-3.8901,-3.8374,-3.8057,-3.7722,-3.8135,-3.8908,-4.0175,-4.0689,-4.0871,-4.0703,-4.0716,-4.0681,-5.5736,-5.4977,-5.1006,-4.8826,-4.7988,-4.7335,-4.7015,-4.6912,-4.674,-4.6765,-4.6926,-4.6588,-4.6195,-4.5784,-4.5606,-4.5624,-4.5802,-4.5802,-4.5802,-4.5802,-4.5802,-4.5695,-4.5552,-4.6141,-4.6427,-4.6444,-4.6623,-4.6605,-4.6444,-4.6605,-4.6302,-4.5552,-4.5036,-4.4485,-4.3926,-4.4314,-4.4659,-4.4979,-4.5396,-4.5249,-4.4595,-4.3563,-4.3031,-4.2927,-4.1443,-4.0612,-4.0629,-3.9394,-3.8261,-3.733,-3.6231,-3.4945,-3.3491,-3.2205,0.0,0.0,0.0,0.0,0.0,0.0,0.0,0.0,0.0,-3.0006,-3.0637,0.0,-3.3148,0.0,-3.4958,-3.5314,-3.488,-3.5203,0.0,0.0,-3.5751,-3.5989,-3.5989,-3.6632,-3.7225,-3.7564,-3.8241,-3.895,-3.9591,-3.9969,-4.029,-4.0747,-4.2022,-4.2962,-4.3014,-4.3735,-4.4302,-4.456,-4.4993,-4.5044,-4.4182,-4.3167,-4.2142,-4.1643,-4.1154,-4.0849,-4.0485,-3.9674,-3.8834,-3.8164,-3.7797,-3.7364,-3.6586,-3.7282,-3.8094,-3.8526,-3.9617,-4.0394,-3.9829,-3.9834,-3.9819,-5.5365,-5.4589,-5.2153,-5.0745,-5.005,-4.8623,-4.7733,-4.732,-4.7331,-4.7499,-4.7823,-4.7607,-4.7069,-4.6337,-4.6337,-4.632,-4.6337,-4.6337,-4.6337,-4.6337,-4.632,-4.632,-4.6337,-4.6783,-4.6998,-4.6998,-4.6998,-4.6998,-4.6998,-4.6998,-4.6766,-4.6337,-4.5891,-4.5427,-4.4964,-4.517,-4.5351,-4.5457,-4.5594,-4.5356,-4.4716,-4.3425,-4.2603,-4.2091,-4.0527,-3.9445,-3.914,-3.8328,-3.755,-3.6823,-3.6366,-3.5453,-3.3964,-3.2865,-3.1636,0.0,0.0,0.0,0.0,0.0,0.0,0.0,0.0,0.0,0.0,0.0,-3.3604,0.0,-3.5446,0.0,-3.5639,-3.6152,-3.6269,-3.5887,-3.6525,-3.6709,-3.6008,-3.6815,-3.7334,-3.7064,-3.7667,-3.8237,-3.8623,-3.8873,-3.917,-3.9592,-4.0538,-4.1407,-4.1816,-4.2484,-4.3049,-4.3391,-4.3803,-4.3614,-4.2415,-4.1018,-3.9901,-3.9294,-3.8822,-3.8319,-3.8012,-3.7593,-3.7076,-3.658,-3.6527,-3.641,-3.5885,-3.6684,-3.7565,-3.7831,-3.9071,-3.9842,-3.9208,-3.9107,-3.9043,-5.4272,-5.3222,-5.1747,-5.0982,-5.0692,-4.8806,-4.7551,-4.6731,-4.7186,-4.7697,-4.8317,-4.8107,-4.764,-4.6998,-4.6998,-4.6998,-4.6998,-4.6998,-4.6998,-4.6998,-4.6998,-4.6998,-4.6998,-4.6998,-4.6998,-4.6998,-4.6998,-4.6998,-4.6998,-4.689,-4.6837,-4.6819,-4.6052,-4.5525,-4.5397,-4.524,-4.5427,-4.5972,-4.5718,-4.5372,-4.4938,-4.3545,-4.2262,-4.1171,-3.9679,-3.8497,-3.7804,-3.7669,-3.7313,-3.6671,-3.662,-3.6028,-3.4692,-3.3305,-3.2239,0.0,-3.0176,0.0,0.0,0.0,0.0,0.0,0.0,0.0,0.0,-3.2641,-3.3698,-3.5079,-3.5821,-3.6454,-3.7087,-3.7303,-3.7103,-3.6405,-3.6821,-3.6688,-3.5413,-3.6324,-3.6854,-3.6224,-3.6721,-3.7367,-3.7947,-3.8146,-3.8477,-3.9043,-3.9325,-3.9801,-4.057,-4.1205,-4.175,-4.2381,-4.2518,-4.197,-4.0526,-3.8858,-3.7585,-3.6638,-3.63,-3.5559,-3.5542,-3.5532,-3.5459,-3.5241,-3.5302,-3.5354,-3.5245,-3.6122,-3.687,-3.7017,-3.8267,-3.9084,-3.8694,-3.8618,-3.8525,-5.3438,-5.2447,-5.1506,-5.0964,-5.0655,-4.8983,-4.8137,-4.7931,-4.7752,-4.7515,-4.7303,-4.7257,-4.714,-4.6998,-4.6998,-4.6998,-4.6998,-4.6998,-4.6998,-4.6998,-4.6998,-4.6998,-4.6998,-4.6998,-4.6998,-4.6998,-4.6998,-4.6998,-4.698,-4.6337,-4.6034,-4.5998,-4.5178,-4.4716,-4.4689,0.0,0.0,0.0,-4.5667,-4.4941,-4.3647,-4.3083,-4.1835,-3.9822,-3.8727,0.0,-3.7026,-3.6383,-3.5977,-3.5842,-3.5842,0.0,0.0,0.0,0.0,0.0,0.0,0.0,0.0,0.0,0.0,0.0,-3.2017,-3.2401,-3.2987,-3.3773,-3.4775,-3.6155,-3.5941,-3.6041,-3.6697,-3.6847,-3.6798,-3.6666,-3.6832,-3.6818,-3.657,-3.6886,-3.7036,-3.6936,-3.7019,-3.7152,-3.7301,-3.7831,-3.8245,-3.8411,-3.8907,-3.9342,-3.9565,-4.0171,-4.0638,-4.0821,-4.0829,-4.0812,-4.0685,-3.907,-3.7919,-3.7953,-3.7319,-3.6754,-3.6489,-3.6124,-3.5858,-3.5727,-3.5345,-3.4994,-3.4994,-3.5355,-3.5766,-3.571,-3.6165,-3.6738,-3.7729,-3.8305,-3.8232,-5.2622,0.0,-5.086,-5.0393,0.0,-4.8838,-4.8324,-4.8267,-4.797,-4.7639,-4.7338,-4.7205,-4.7143,-4.7143,-4.7025,-4.6998,-4.6998,-4.6998,-4.6998,-4.6998,-4.6998,-4.6998,-4.6998,-4.6998,-4.6998,-4.6998,-4.6998,-4.6783,-4.6391,-4.5998,-4.5606,-4.5213,-4.4377,-4.396,-4.3898,-4.3588,-4.4038,-4.5264,-4.5163,-4.4646,-4.3615,-4.3083,-4.1648,-3.9285,0.0,0.0,0.0,0.0,0.0,0.0,0.0,0.0,0.0,0.0,0.0,-3.3474,-3.3034,-3.2831,-3.2714,-3.2967,-3.3165,-3.3328,-3.3327,-3.3257,-3.3258,-3.3877,-3.474,-3.5782,-3.5622,-3.5787,-3.6489,-3.6675,-3.6544,-3.6217,-3.6514,-3.6549,-3.5925,-3.6419,-3.6636,-3.6092,-3.6241,-3.6455,-3.6555,-3.6854,-3.7268,-3.7632,-3.8278,-3.8642,-3.8361,-3.8825,-3.9189,-3.8841,-3.8775,-3.8811,-3.8816,-3.7983,-3.7186,-3.717,-3.6588,-3.6075,-3.6009,-3.5711,-3.5462,-3.5429,-3.5131,-3.4899,-3.498,-3.5388,-3.5844,-3.5877,-3.6299,-3.6721,-3.7386,-3.7376,-3.7153,-5.1936,-5.0878,-5.0342,-4.9895,-4.9517,-4.8655,-4.8324,-4.8267,0.0,0.0,0.0,-4.745,-4.7345,-4.7258,-4.7116,-4.7025,-4.6998,-4.6998,-4.6998,-4.6998,-4.6998,-4.6998,-4.6998,-4.6998,-4.6998,-4.6998,-4.6855,-4.6444,-4.5802,-4.5552,-4.5071,-4.441,-4.3661,-4.3202,-4.3038,-4.2749,-4.322,-4.4379,-4.4588,-4.4438,-4.3973,-4.3219,-4.1665,-3.934,-3.8481,-3.7381,-3.5893,-3.5825,-3.5757,-3.5639,-3.5639,-3.5334,-3.4742,-3.4692,-3.4421,-3.3863,-3.3795,-3.4049,-3.4641,-3.4454,-3.4451,-3.4802,-3.4448,-3.3972,-3.3469,-3.3858,-3.4457,-3.5299,-3.537,-3.5636,-3.6222,-3.6391,-3.6149,-3.5429,-3.5887,-3.5791,-3.471,-3.5512,-3.5841,-3.4955,-3.5251,-3.5646,-3.5761,-3.6108,-3.6324,-3.6903,-3.7698,-3.7864,-3.7235,-3.7599,-3.7914,-3.7433,-3.7417,-3.7218,-3.7052,-3.6589,-3.6042,-3.6108,-3.5462,-3.4932,-3.4899,-3.4899,-3.4899,-3.4965,-3.4899,-3.4899,-3.4932,-3.5568,-3.6178,-3.6212,-3.6902,-3.7356,-3.6962,-3.6437,-3.6131,-5.1602,-5.0139,-5.0693,-5.0431,-4.9517,-4.8673,-4.8324,-4.8212,-4.7359,-4.7252,-4.7699,-4.7657,-4.7511,-4.732,-4.7276,-4.7143,-4.6998,-4.6998,-4.6998,0.0,-4.6998,-4.6998,-4.6998,-4.6998,-4.6998,-4.6944,-4.6302,-4.5909,-4.5677,-4.4482,-4.3768,-4.359,-4.2858,-4.2341,-4.2025,-4.1956,-4.2426,-4.345,-4.421,-4.4421,-4.4217,-4.3306,-4.2006,-4.0351,-3.9355,-3.8142,-3.6688,-3.662,-3.6299,-3.5656,-3.5639,-3.5554,-3.547,-3.5453,-3.5419,-3.5318,-3.5301,-3.5351,-3.5408,-3.5244,-3.4988,-3.4578,-3.4497,-3.4561,-3.488,-3.4392,-3.4667,-3.5946,-3.5561,-3.527,-3.5383,-3.5383,-3.5159,-3.4509,-3.4494,-3.4545,-3.4349,-3.4611,-3.4824,-3.4595,-3.4708,-3.4889,-3.5053,-3.5993,-3.6555,-3.6473,-3.7102,-3.7649,-3.6671,-3.6787,-3.7168,-3.7135,-3.7119,-3.7119,-3.687,-3.6473,-3.5992,-3.6009,-3.5363,-3.4899,-3.4899,-3.4833,-3.4849,-3.4899,-3.48,-3.48,-3.4833,-3.5325,-3.5496,-3.545,-3.5876,-3.6171,-3.6061,-3.5941,-3.5968,-5.2066,-5.1174,-5.0675,-5.0136,-4.9517,-4.8655,-4.8324,-4.8288,-4.7824,-4.7782,-4.7992,-4.7929,-4.7788,-4.7645,-4.7536,-4.7381,-4.7143,-4.7143,-4.7133,-4.698,-4.6998,-4.6998,-4.6944,-4.6551,-4.6355,-4.6284,-4.5534,-4.4946,-4.4517,-4.3822,-4.3286,-4.2858,-4.2424,-4.2037,-4.1692,-4.1604,-4.1922,-4.2722,-4.3467,-4.3955,-4.4148,-4.3271,-4.2006,-4.0438,-3.9493,-3.8294,-3.6857,-3.6789,-3.6417,-3.5639,-3.5639,-3.5639,-3.5639,-3.5639,-3.5639,-3.5639,-3.5639,-3.5639,-3.5639,-3.5274,-3.4899,-3.4546,-3.4349,-3.438,-3.457,-3.4295,-3.4392,-3.504,-3.4781,-3.4586,-3.4603,-3.4603,-3.4457,-3.4149,-3.4134,-3.4201,-3.4201,-3.425,-3.43,-3.4399,-3.4448,-3.4497,-3.4594,-3.5284,-3.5712,-3.5415,-3.6042,-3.6257,-3.5992,-3.5909,-3.5926,-3.5909,-3.5893,-3.5893,-3.5893,-3.5644,-3.5429,-3.5396,-3.5131,-3.4916,-3.4866,-3.4618,-3.4485,-3.4733,-3.4319,-3.3938,-3.4187,-3.4365,-3.4314,-3.4219,-3.4464,-3.4703,-3.4738,-3.5011,-3.5497,-5.264,-5.2209,-5.0989,-5.0116,-4.9538,-4.8673,-4.8324,-4.8324,-4.8306,-4.8324,-4.8267,-4.8132,-4.8014,-4.801,-4.7847,-4.7639,-4.7407,-4.7407,-4.7294,-4.707,-4.707,-4.7025,-4.6908,-4.6177,-4.5802,-4.5677,-4.4839,-4.4053,-4.3554,-4.334,-4.2929,-4.2341,-4.2163,-4.1934,-4.1648,-4.1471,-4.1655,-4.2202,-4.2725,-4.3387,-4.4061,-4.3271,-4.2159,-4.0933,-3.9815,-3.8633,-3.7381,-3.728,-3.684,-3.596,-3.5876,-3.5825,-3.5639,-3.5639,-3.5639,-3.5639,-3.5639,-3.5577,-3.5424,-3.5118,-3.4739,-3.4448,-3.4201,-3.4101,-3.4101,-3.4101,-3.4101,-3.4101,-3.4149,-3.4117,-3.4133,-3.4133,-3.4101,-3.4101,-3.4101,-3.4101,-3.4101,-3.4101,-3.4134,-3.425,-3.425,-3.4349,-3.4481,-3.4742,-3.4972,-3.507,-3.4919,-3.5116,-3.5562,-3.523,-3.4932,-3.4866,-3.4767,-3.4684,-3.4634,-3.4468,-3.4386,-3.4386,-3.4352,-3.427,-3.4203,-3.3839,-3.3889,-3.427,-3.3591,-3.3342,-3.3819,-3.3929,-3.3751,-3.3664,-3.3999,-3.4086,-3.3909,-3.4167,-3.478,-5.3198,-5.251,-5.2098,-5.1111,-4.9538,-4.8655,-4.8324,-4.8324,-4.8324,-4.8324,-4.8306,-4.8267,-4.8151,-4.8032,-4.7992,-4.7829,-4.7657,-4.7657,-4.7511,-4.732,-4.7276,-4.7187,-4.6918,-4.6159,-4.5802,-4.557,-4.4285,-4.3554,-4.3411,-4.2769,-4.2376,-4.2287,-4.2145,-4.1995,-4.178,-4.1515,-4.1655,-4.2185,-4.2158,-4.2802,-4.413,-4.3306,-4.274,-4.2586,-4.0866,-3.9614,-3.8734,-3.8785,-3.8125,-3.684,-3.6654,-3.6349,-3.574,-3.5639,-3.5639,-3.5639,-3.5639,-3.5396,-3.5041,-3.493,-3.4691,-3.4201,-3.4101,-3.4101,-3.4101,-3.4101,-3.4101,-3.4101,-3.4101,-3.4101,-3.4101,-3.4101,-3.4101,-3.4101,-3.4101,-3.4101,-3.4101,-3.4101,-3.4101,-3.4101,-3.4201,-3.43,-3.4398,-3.4906,-3.5415,-3.5465,-3.5053,-3.4837,-3.5017,-3.5032,-3.4899,-3.4783,-3.4386,-3.4005,-3.3955,-3.3326,-3.3359,-3.3176,-3.3011,-3.3243,-3.3342,-3.321,-3.3061,-3.4038,-3.3326,-3.3226,-3.4143,-3.4554,-3.4182,-3.3741,-3.4058,-3.461,-3.4088,-3.3898,-3.4209,-5.3367,-5.2417,-5.186,-5.0618,-4.9009,-4.8548,-4.8381,-4.8324,-4.8324,-4.8324,-4.8324,-4.8324,-4.8286,-4.8172,-4.819,-4.8072,-4.7907,-4.7888,-4.7747,-4.7536,-4.7529,-4.7216,-4.6686,-4.587,-4.5258,-4.4754,-4.3553,-4.2933,-4.288,-4.253,-4.2246,-4.2187,-4.2103,-4.1934,-4.1692,-4.1515,-4.1446,-4.1544,-4.1816,-4.2302,-4.2802,-4.238,-4.2091,-4.1835,-4.0324,-3.9326,-3.8988,-3.8599,-3.8075,-3.7466,-3.7026,-3.6637,-3.6332,-3.5876,-3.5639,-3.5639,-3.5639,-3.5396,-3.4947,-3.4899,-3.4659,-3.4151,-3.4101,-3.4101,-3.4101,-3.4101,-3.4101,-3.4101,-3.4101,-3.4101,-3.4101,-3.4101,-3.4101,-3.4101,-3.4101,-3.4101,-3.4101,-3.4101,-3.4101,-3.4101,-3.4134,-3.4201,-3.4233,-3.4561,-3.4889,-3.5087,-3.4839,-3.4724,-3.4756,-3.4804,-3.4739,-3.4609,-3.4034,-3.3851,-3.4096,-3.4143,-3.3862,-3.3862,-3.3942,-3.3988,-3.3822,-3.3541,-3.3591,-3.427,-3.3392,-3.32,-3.4218,-3.3539,-3.2959,-3.2992,-3.2589,-3.2649,-3.2842,-3.3267,-3.3592,-5.3144,-5.2066,-5.1195,-5.0102,-4.8863,-4.8586,-4.8457,-4.8363,-4.8306,-4.8324,-4.8324,-4.8324,-4.8324,-4.8324,-4.8324,-4.8119,-4.7779,-4.7743,-4.7514,-4.7148,-4.713,-4.678,-4.6124,-4.5363,-4.4693,-4.4038,-4.3162,-4.2688,-4.267,-4.249,-4.231,-4.2169,-4.2103,-4.1909,-4.1604,-4.1408,-4.1261,-4.1145,-4.1488,-4.1681,-4.1633,-4.1437,-4.1374,-4.1274,-3.9898,-3.9037,-3.8971,-3.8481,-3.8108,-3.7905,-3.7381,-3.6992,-3.6755,-3.6045,-3.5639,-3.5639,-3.5639,-3.5379,-3.4947,-3.4899,-3.4643,-3.4151,-3.4101,-3.4101,-3.4101,-3.4101,-3.4101,-3.4101,-3.4101,-3.4101,-3.4101,-3.4101,-3.4101,-3.4101,-3.4101,-3.4101,-3.4101,-3.4101,-3.4101,-3.4101,-3.4101,-3.4003,-3.389,-3.4071,-3.4284,-3.4251,-3.4463,-3.4594,-3.4659,-3.4643,-3.4594,-3.448,-3.4022,-3.3874,-3.4281,-3.3983,-3.4131,-3.4129,-3.4008,-3.4021,-3.4286,-3.374,-3.3707,-3.3839,-3.316,-3.315,-3.3963,-3.3121,-3.2177,-3.2025,-3.1597,-3.1278,-3.1964,-3.2459,-3.2572,-5.236,-5.1379,-5.0435,-4.988,-4.9658,-4.8845,-4.8513,-4.8457,-4.8363,-4.8324,-4.8324,-4.8324,-4.8324,-4.8306,-4.8269,-4.7846,-4.7222,-4.7186,-4.6687,-4.5895,-4.5822,-4.5615,-4.5305,-4.4527,-4.4168,-4.4007,-4.3281,-4.2882,-4.2844,-4.267,-4.2512,-4.2396,-4.2163,-4.1884,-4.1604,-4.1363,-4.1198,-4.1111,-4.1069,-4.0927,-4.0831,-4.0783,-4.106,-4.1305,-4.0014,-3.9168,-3.9054,-3.8954,-3.8616,-3.7956,-3.7838,-3.7483,-3.684,-3.6045,-3.5639,-3.5639,-3.5639,-3.5396,-3.4977,-3.4947,-3.4707,-3.4201,-3.4151,-3.4101,-3.4101,-3.4101,-3.4151,-3.4101,-3.4151,-3.4151,-3.407,-3.4068,-3.4084,-3.4151,-3.4101,-3.4101,-3.4101,-3.4101,-3.4101,-3.4052,-3.3939,-3.3663,-3.321,-3.3712,-3.373,-3.3616,-3.3909,-3.4317,-3.4497,-3.4497,-3.4497,-3.4448,-3.4284,-3.4137,-3.3722,-3.3639,-3.3205,-3.33,-3.371,-3.316,-3.2878,-3.2829,-3.3309,-3.3574,-3.3326,-3.3399,-3.3779,-3.351,-3.2765,-3.2201,-3.1364,-3.117,-3.1635,-3.1234,-3.1364,-5.1757,-5.0682,-4.9672,-4.9177,-4.9012,-4.8642,-4.8475,-4.8363,-4.8306,-4.8324,-4.8324,-4.8324,-4.8324,-4.8269,-4.7774,-4.7407,-4.7094,-4.7075,-4.6654,-4.5846,-4.5773,-4.548,-4.493,-4.4601,-4.4181,-4.3689,-4.3306,-4.3013,-4.2882,-4.2806,-4.2709,-4.2534,-4.2333,-4.2121,-4.1841,-4.1515,-4.1272,-4.1134,-4.1012,-4.0871,-4.084,-4.084,-4.0882,-4.0957,-3.9825,-3.9372,-3.9848,-3.8851,-3.8599,-3.9242,-3.7973,-3.728,-3.7347,-3.6299,-3.5639,-3.5639,-3.5639,-3.5503,-3.5182,-3.5135,-3.4947,-3.4448,-3.4349,-3.4284,-3.4151,-3.425,-3.4349,-3.4349,-3.4497,-3.4446,-3.4022,-3.4023,-3.4184,-3.43,-3.4184,-3.4036,-3.4101,-3.4101,-3.3955,-3.3501,-3.308,-3.2643,-3.2562,-3.2627,-3.2853,-3.3161,-3.3453,-3.3763,-3.4235,-3.4382,-3.4268,-3.4234,-3.4184,-3.4006,-3.3435,-3.3711,-3.3839,-3.3997,-3.411,-3.4126,-3.3961,-3.3846,-3.4195,-3.4129,-3.3862,-3.3587,-3.3822,-3.2871,-3.2337,-3.1541,-3.0758,-3.1007,-3.1539,-3.1182,-3.1216,-5.0779,-5.0011,-4.9235,-4.8874,-4.8695,-4.8569,-4.8476,-4.8344,-4.8306,-4.8324,-4.8324,-4.8324,-4.8324,-4.8177,-4.7462,-4.6948,-4.6709,-4.6452,-4.5902,-4.5168,-4.5112,-4.4837,-4.4397,-4.4323,-4.403,-4.3571,-4.3375,-4.3232,-4.3123,-4.305,-4.2844,-4.2631,-4.2476,-4.2228,-4.1884,-4.1604,-4.1363,-4.1198,-4.1029,-4.0935,-4.0935,-4.0871,-4.0888,-4.0676,-4.0007,-3.9572,-3.9591,-3.8461,-3.8176,-3.8684,-3.7567,-3.6891,-3.7026,-3.6197,-3.5639,-3.5639,-3.5639,-3.5487,-3.5337,-3.5308,-3.5105,-3.4691,-3.4643,-3.4546,-3.4399,-3.4546,-3.4594,-3.461,-3.4427,-3.4209,-3.3865,-3.3582,-3.3519,-3.3713,-3.3567,-3.342,-3.342,-3.3404,-3.3194,-3.2789,-3.2384,-3.1996,-3.1737,-3.1898,-3.214,-3.2447,-3.2593,-3.3015,-3.3437,-3.3567,-3.3519,-3.347,-3.334,-3.3161,-3.2899,-3.3043,-3.3514,-3.3724,-3.4279,-3.4543,-3.4691,-3.4643,-3.4643,-3.461,-3.4393,-3.4038,-3.3345,-3.23,-3.1533,-3.0775,-3.0609,-3.0767,-3.1075,-3.1233,-3.1115,-4.9471,-4.944,-4.9244,-4.9113,-4.8925,-4.8695,-4.855,-4.8457,-4.8307,-4.8177,-4.8141,-4.8196,-4.8031,-4.7994,-4.7186,-4.6562,-4.5883,-4.5168,-4.4433,-4.3754,-4.3681,-4.3663,-4.3589,-4.3608,-4.3608,-4.3479,-4.3479,-4.3479,-4.3444,-4.3232,-4.3013,-4.2711,-4.2498,-4.2169,-4.1648,-4.1604,-4.1443,-4.1169,-4.1093,-4.0982,-4.0935,-4.0871,-4.0888,-4.0871,-4.0511,-3.9651,-3.8295,-3.8034,-3.7669,-3.711,-3.684,-3.64,-3.5893,-3.5656,-3.5639,-3.5639,-3.5639,-3.5487,-3.5321,-3.5354,-3.5228,-3.4947,-3.4899,-3.4899,-3.4804,-3.4851,-3.4851,-3.4769,-3.4145,-3.3557,-3.3548,-3.281,-3.2266,-3.2275,-3.238,-3.2271,-3.2174,-3.206,-3.2028,-3.2026,-3.188,-3.1639,-3.1283,-3.1348,-3.1589,-3.1364,-3.1639,-3.2077,-3.2351,-3.2416,-3.2141,-3.2141,-3.2352,-3.2432,-3.2331,-3.2248,-3.2733,-3.3172,-3.3858,-3.4365,-3.4496,-3.4546,-3.4594,-3.4545,-3.41,-3.3713,-3.2945,-3.2004,-3.1473,-3.0916,-3.0784,-3.0584,-3.065,-3.074,-3.0615,-4.9634,-4.9585,-4.9352,-4.9146,-4.8925,-4.8767,-4.855,-4.8271,-4.7737,-4.7498,-4.7388,-4.6893,-4.6654,-4.6471,-4.581,-4.5333,-4.5021,-4.4268,-4.3718,-4.3516,-4.3479,-4.3479,-4.3479,-4.3479,-4.3479,-4.3479,-4.3479,-4.3479,-4.3444,-4.3322,-4.3087,-4.2844,-4.2555,-4.2169,-4.1736,-4.156,-4.1353,-4.114,-4.1,-4.0935,-4.0871,-4.0871,-4.0871,-4.0819,-4.0151,-3.9238,-3.8303,-3.8048,-3.7787,-3.7483,-3.6552,-3.5859,-3.5673,-3.5639,-3.5639,-3.5639,-3.5639,-3.5577,-3.5549,-3.5503,-3.5412,-3.5245,-3.5198,-3.5088,-3.4947,-3.493,-3.4913,-3.4864,-3.4233,-3.3727,-3.3027,-3.2276,-3.19,-3.2285,-3.2136,-3.1931,-3.188,-3.1681,-3.1528,-3.1475,-3.1172,-3.0822,-3.056,-3.0745,-3.0835,-3.0895,-3.1121,-3.1364,-3.1817,-3.1866,-3.2028,-3.2028,-3.1979,-3.1688,-3.1491,-3.1551,-3.1922,-3.2409,-3.3045,-3.3876,-3.4105,-3.4284,-3.4366,-3.4168,-3.374,-3.3225,-3.2458,-3.188,-3.1401,-3.1149,-3.1046,-3.0783,-3.0448,-3.0316,-3.0333,-4.9816,-4.975,-4.9525,-4.9321,-4.9108,-4.899,-4.8563,-4.7997,-4.7463,-4.7004,-4.6599,-4.6159,-4.5902,-4.5736,-4.5057,-4.4727,-4.4617,-4.3864,-4.3479,-4.3479,-4.3479,-4.3479,-4.3479,-4.3479,-4.3479,-4.3479,-4.3479,-4.3479,-4.3479,-4.3393,-4.3196,-4.2995,-4.2673,-4.2315,-4.1892,-4.1587,-4.1353,-4.114,-4.0982,-4.0935,-4.0935,-4.0871,-4.0871,-4.0802,-4.0185,-3.9337,-3.8401,-3.8048,-3.7635,-3.7043,-3.6096,-3.5656,-3.5639,-3.5639,-3.5639,-3.5639,-3.5639,-3.5622,-3.5639,-3.5577,-3.5532,-3.5412,-3.5429,-3.5367,-3.5161,-3.4981,-3.4764,-3.471,-3.3824,-3.3088,-3.2474,-3.1679,-3.1384,-3.1616,-3.141,-3.1368,-3.1348,-3.1127,-3.0926,-3.0795,-3.056,-3.0238,-3.0103,-3.0092,-3.0196,-3.0486,-3.0538,-3.0603,-3.1089,-3.117,-3.1251,-3.1251,-3.104,-3.0797,-3.0635,-3.0826,-3.1131,-3.1586,-3.2152,-3.2966,-3.3535,-3.3697,-3.3795,-3.3512,-3.3129,-3.2838,-3.215,-3.1802,-3.1373,-3.1332,-3.1267,-3.1001,-3.0697,-3.0389,-3.0349,-5.0031,-4.9879,-4.9759,-4.9558,-4.9356,-4.9184,-4.8478,-4.7543,-4.7252,-4.6668,-4.5974,-4.5608,-4.5608,-4.5516,-4.4782,-4.4507,-4.4488,-4.3864,-4.3479,-4.3479,-4.3479,-4.3479,-4.3479,-4.3479,-4.3479,-4.3479,-4.3479,-4.3479,-4.3479,-4.3444,-4.3393,-4.316,-4.2844,-4.2534,-4.2127,-4.178,-4.1471,-4.1169,-4.1093,-4.1,-4.0871,-4.0871,-4.0871,-4.0871,-4.0491,-3.9662,-3.8504,-3.781,-3.6992,-3.5876,-3.569,-3.5639,-3.5639,-3.5639,-3.5639,-3.5639,-3.5639,-3.5639,-3.5639,-3.5639,-3.5577,-3.5577,-3.5476,-3.5509,-3.5296,-3.4695,-3.4246,-3.4179,-3.3017,-3.211,-3.1859,-3.1225,-3.0709,-3.0518,-3.0537,-3.0461,-3.045,-3.034,-3.0379,-3.0287,-3.0033,-2.9962,-2.9989,-2.9989,-3.0022,-3.0011,-3.006,-3.0201,-3.0217,-3.0407,-3.0076,-3.0124,-3.0456,-3.0396,-3.0347,-3.0308,-3.0612,-3.0794,-3.128,-3.1978,-3.2902,-3.3178,-3.3421,-3.3088,-3.2883,-3.2475,-3.2116,-3.1896,-3.1645,-3.1499,-3.1385,-3.1189,-3.0826,-3.0434,-3.0307,-5.0082,-5.0031,-4.9898,-4.9353,-4.8652,-4.8555,-4.7885,-4.675,-4.6023,-4.566,-4.5139,-4.4448,-4.4248,-4.4103,-4.3956,-4.3791,-4.3791,-4.3608,-4.3479,-4.3479,-4.3479,-4.3479,-4.3479,-4.3479,-4.3479,-4.3479,-4.3479,-4.3479,-4.3497,-4.3375,-4.3286,-4.3196,-4.2918,-4.2631,-4.2315,-4.1899,-4.1552,-4.13,-4.1059,-4.0935,-4.0935,-4.0871,-4.0871,-4.0836,-4.0229,-3.9397,-3.8247,-3.6944,-3.6113,-3.5723,-3.5639,-3.5639,-3.5639,-3.5639,-3.5639,-3.5639,-3.5639,-3.5639,-3.5639,-3.5605,-3.5605,-3.5554,-3.5064,-3.4793,-3.4759,-3.3927,-3.3453,-3.3208,-3.2462,-3.1842,-3.1632,-3.1183,-3.0758,-3.051,-3.0359,-3.0274,-3.0274,-3.0231,-3.0205,-3.0205,-3.0274,-3.0231,-3.0189,-3.0231,-3.0231,-3.0162,-3.0189,-3.0316,-3.0274,-3.0231,-3.0189,-3.0231,-3.0405,-3.0271,-3.0152,-3.0038,-3.006,-3.0113,-3.0502,-3.0989,-3.1962,-3.2756,-3.3078,-3.3188,-3.3205,-3.2968,-3.2646,-3.2378,-3.2118,-3.1681,-3.1323,-3.103,-3.0526,-3.0109,-3.0222,-4.9673,-4.9575,-4.9138,-4.8545,-4.7947,-4.7909,-4.7249,-4.6263,-4.5655,-4.5053,-4.4578,-4.3956,-4.3652,-4.3618,-4.3532,-4.3479,-4.3479,-4.3479,-4.3479,-4.3479,-4.3479,-4.3479,-4.3479,-4.3479,-4.3479,-4.3479,-4.3479,-4.3479,-4.3497,-4.3393,-4.3322,-4.3269,-4.2994,-4.2709,-4.2454,-4.1941,-4.1552,-4.1391,-4.1088,-4.0871,-4.0871,-4.0871,-4.0871,-4.0819,-4.0294,-3.9551,-3.8252,-3.6893,-3.6084,-3.5768,-3.5639,-3.5639,-3.5639,-3.5639,-3.5639,-3.5639,-3.5639,-3.5639,-3.5554,-3.5351,-3.5165,-3.5013,-3.4455,-3.41,-3.3914,-3.3229,-3.2706,-3.2622,-3.2017,-3.1599,-3.1441,-3.1187,-3.0945,-3.0733,-3.0568,-3.0468,-3.0485,-3.0401,-3.0401,-3.0443,-3.0485,-3.0485,-3.0359,-3.0426,-3.0443,-3.0359,-3.0401,-3.0426,-3.0468,-3.0426,-3.0401,-3.0401,-3.0316,-3.0162,-3.0119,-3.0033,-2.9946,-2.9951,-3.0004,-3.0409,-3.1121,-3.2125,-3.2559,-3.2882,-3.3257,-3.3371,-3.2834,-3.2429,-3.2171,-3.1702,-3.1264,-3.0949,-3.0554,-3.0049,-3.0162,-4.901,-4.8857,-4.7976,-4.7466,-4.7283,-4.7245,-4.6633,-4.5772,-4.5566,-4.5019,-4.4277,-4.3961,-4.3818,-4.3753,-4.3566,-4.3479,-4.3479,-4.3479,-4.3479,-4.3479,-4.3479,-4.3479,-4.3479,-4.3479,-4.3479,-4.3479,-4.3479,-4.3479,-4.3497,-4.3497,-4.3446,-4.3305,-4.3031,-4.2786,-4.2472,-4.1917,-4.1542,-4.1346,-4.1041,-4.0918,-4.0871,-4.0871,-4.0871,-4.0836,-4.0487,-3.9607,-3.8372,-3.7279,-3.6554,-3.5851,-3.5667,-3.5622,-3.5639,-3.5639,-3.5537,-3.5504,-3.552,-3.5588,-3.5453,-3.4996,-3.4726,-3.4658,-3.3998,-3.3406,-3.3322,-3.2688,-3.2131,-3.2114,-3.1579,-3.1303,-3.1235,-3.1168,-3.1049,-3.0871,-3.0831,-3.0814,-3.0855,-3.0651,-3.0593,-3.0814,-3.0609,-3.051,-3.051,-3.0526,-3.0551,-3.0568,-3.0609,-3.0651,-3.0651,-3.0609,-3.0526,-3.0459,-3.029,-3.0033,-3.0033,-3.0076,-2.9989,-2.9962,-2.9935,-3.0166,-3.0587,-3.1362,-3.1876,-3.2297,-3.2657,-3.2753,-3.2474,-3.2152,-3.1962,-3.1589,-3.0989,-3.0977,-3.0964,-3.0332,-3.013,-4.8499,-4.89,-4.8005,-4.7137,-4.6455,-4.6353,-4.5802,-4.4907,-4.4777,-4.4541,-4.4128,-4.3897,-4.3786,-4.3634,-4.3566,-4.3479,-4.3479,-4.3479,-4.3479,-4.3479,-4.3479,-4.3479,-4.3479,-4.3479,-4.3479,-4.3479,-4.3479,-4.3479,-4.3497,-4.3481,-4.3429,-4.334,-4.2994,-4.2649,-4.2512,-4.1959,-4.1436,-4.1346,-4.1088,-4.0918,-4.0871,-4.0871,-4.0871,-4.0836,-4.0199,-3.9299,-3.8362,-3.7393,-3.6525,-3.5949,-3.5684,-3.5639,-3.5639,-3.5588,-3.5368,-3.5115,-3.5318,-3.5351,-3.4945,-3.5081,-3.5318,-3.5047,-3.3947,-3.3389,-3.3305,-3.2171,-3.1546,-3.141,-3.1275,-3.1151,-3.1151,-3.1032,-3.0952,-3.0871,-3.0733,-3.0692,-3.079,-3.0651,-3.0568,-3.0609,-3.0609,-3.051,-3.051,-3.0733,-3.0773,-3.0814,-3.0814,-3.0895,-3.0814,-3.0773,-3.0609,-3.0501,-3.0274,-3.0033,-2.9946,-2.9989,-2.9946,-2.9902,-2.9918,-2.9891,-3.0328,-3.0716,-3.1248,-3.1686,-3.2091,-3.2073,-3.215,-3.17,-3.1461,-3.1102,-3.0774,-3.0701,-3.056,-3.0201,-3.0027,-4.7543,-4.7723,-4.6805,-4.6093,-4.5584,-4.5521,-4.5179,-4.4742,-4.4605,-4.4421,-4.4248,-4.4023,-4.3865,-4.3667,-4.3566,-4.3479,-4.3479,-4.3479,-4.3479,-4.3479,-4.3479,-4.3479,-4.3479,-4.3479,-4.3479,-4.3479,-4.3479,-4.3479,-4.3497,-4.3463,-4.3446,-4.3394,-4.3031,-4.2918,-4.2765,-4.2169,-4.1839,-4.1596,-4.13,-4.1041,-4.0918,-4.0871,-4.0871,-4.0853,-4.0345,-3.9615,-3.8391,-3.7877,-3.6905,-3.6034,-3.5622,-3.5639,-3.5537,-3.5318,-3.503,-3.5131,-3.4945,-3.5199,-3.5081,-3.4726,-3.4506,-3.459,-3.322,-3.2611,-3.2249,-3.1523,-3.1196,-3.1095,-3.1072,-3.1032,-3.0992,-3.0992,-3.0912,-3.0831,-3.0733,-3.0733,-3.0814,-3.0773,-3.0733,-3.0773,-3.0814,-3.0773,-3.0814,-3.0855,-3.0895,-3.0855,-3.0935,-3.0975,-3.0814,-3.0733,-3.0568,-3.0401,-3.0274,-3.0103,-2.9946,-2.9858,-2.9874,-2.9874,-2.9918,-2.983,-2.9948,-3.0319,-3.0674,-3.1189,-3.172,-3.2057,-3.2085,-3.1524,-3.1021,-3.0749,-3.05,-3.0293,-3.012,-3.0006,-2.9897,-4.653,-4.6426,-4.5535,-4.5057,-4.4919,-4.484,-4.4808,-4.4789,-4.4693,-4.4551,-4.4393,-4.4199,-4.4023,-4.3818,-4.3634,-4.3566,-4.3497,-4.3479,-4.3479,-4.3479,-4.3479,-4.3479,-4.3479,-4.3479,-4.3479,-4.3479,-4.3479,-4.3479,-4.3479,-4.3497,-4.3446,-4.3376,-4.3142,-4.2956,-4.288,-4.2573,-4.205,-4.1727,-4.1463,-4.1163,-4.0965,-4.0871,-4.0871,-4.0853,-4.0754,-4.0023,-3.887,-3.8247,-3.7478,-3.5972,-3.569,-3.5639,-3.5453,-3.4979,-3.4607,-3.5199,-3.459,-3.4404,-3.4421,-3.4032,-3.3525,-3.3339,-3.2215,-3.1506,-3.1438,-3.1257,-3.1049,-3.0975,-3.0952,-3.0912,-3.079,-3.0871,-3.0895,-3.0814,-3.0871,-3.0912,-3.0912,-3.0912,-3.0952,-3.1032,-3.0935,-3.0855,-3.0855,-3.0895,-3.0935,-3.0935,-3.0975,-3.0975,-3.0773,-3.0568,-3.03,-3.0215,-3.0044,-2.993,-2.977,-2.9592,-2.9592,-2.9697,-2.9786,-2.9697,-2.9701,-3.006,-3.0507,-3.0932,-3.1413,-3.1651,-3.1697,-3.1245,-3.0803,-3.0446,-3.0299,-3.0168,-3.0043,-2.9886,-2.9677,-4.6148,-4.6587,-4.5642,-4.517,-4.4986,-4.4865,-4.477,-4.4693,-4.464,-4.4578,-4.4468,-4.4344,-4.4116,-4.3897,-4.3786,-4.3652,-4.3532,-4.3479,-4.3479,-4.3479,-4.3479,-4.3479,-4.3479,-4.3479,-4.3479,-4.3479,-4.3479,-4.3479,-4.3497,-4.3446,-4.3411,-4.3305,-4.2994,-4.2765,-4.2631,-4.2234,-4.1984,-4.1727,-4.1507,-4.13,-4.1059,-4.0918,-4.0871,-4.0871,-4.084,-4.0246,-3.9397,-3.8555,-3.7716,-3.6791,-3.6039,-3.5707,-3.547,-3.4895,-3.4387,-3.4066,-3.3863,-3.366,-3.3339,-3.3339,-3.3322,-3.3178,-3.2377,-3.1914,-3.1705,-3.1328,-3.0945,-3.0895,-3.0895,-3.0871,-3.0888,-3.0871,-3.0912,-3.0871,-3.0855,-3.0871,-3.0871,-3.0871,-3.0871,-3.0912,-3.0895,-3.0855,-3.0773,-3.0692,-3.0593,-3.051,-3.0468,-3.041,-3.0241,-3.0027,-2.981,-2.981,-2.9793,-2.971,-2.9563,-2.9366,-2.9275,-2.9412,-2.9457,-2.9396,-2.948,-2.991,-3.0291,-3.0414,-3.0583,-3.0723,-3.0703,-3.0733,-3.0677,-3.0429,-3.0254,-3.0113,-2.979,-2.9515,-2.9198,-4.5706,-4.5975,-4.5512,-4.5192,-4.5038,-4.4943,-4.4865,-4.4745,-4.4659,-4.4551,-4.444,-4.4344,-4.4195,-4.3961,-4.3818,-4.3686,-4.3532,-4.3479,-4.3479,-4.3479,-4.3479,-4.3479,-4.3479,-4.3479,-4.3479,-4.3479,-4.3479,-4.3479,-4.3479,-4.3465,-4.3394,-4.3323,-4.3012,-4.286,-4.2822,-4.2613,-4.2234,-4.1924,-4.1727,-4.1463,-4.1134,-4.0995,-4.0918,-4.0888,-4.0789,-4.035,-3.9572,-3.9149,-3.8142,-3.7114,-3.648,-3.6028,-3.5537,-3.4962,-3.4336,-3.3947,-3.3575,-3.3271,-3.2814,-3.2949,-3.278,-3.2713,-3.1999,-3.1587,-3.1446,-3.1079,-3.079,-3.0733,-3.0773,-3.079,-3.079,-3.0773,-3.0773,-3.0773,-3.0733,-3.0692,-3.0692,-3.0692,-3.0651,-3.0651,-3.0526,-3.0443,-3.0443,-3.0359,-3.0258,-3.013,-2.9957,-2.9853,-2.9705,-2.9589,-2.9454,-2.9409,-2.9409,-2.938,-2.9275,-2.9137,-2.9045,-2.9183,-2.9183,-2.9075,-2.9138,-2.9454,-2.947,-2.9483,-2.9621,-2.9966,-3.0451,-3.0752,-3.0603,-3.038,-3.0213,-2.9948,-2.9494,-2.9106,-2.8795,-4.5438,-4.5438,-4.536,-4.5256,-4.5151,-4.5057,-4.4962,-4.4865,-4.4685,-4.4578,-4.4468,-4.4354,-4.4207,-4.4023,-4.3865,-4.3686,-4.3532,-4.3513,-4.3513,-4.3479,-4.3479,-4.3479,-4.3479,-4.3479,-4.3479,-4.3479,-4.3479,-4.3479,-4.3497,-4.3446,-4.3411,-4.334,-4.3215,-4.3086,-4.3049,-4.2862,-4.2691,-4.2297,-4.205,-4.1709,-4.1328,-4.1041,-4.0871,-4.0871,-4.0871,-4.05,-3.9846,-3.92,-3.8427,-3.7403,-3.67,-3.6231,-3.5656,-3.5064,-3.4607,-3.4235,-3.3575,-3.322,-3.278,-3.2425,-3.207,-3.2019,-3.1392,-3.1059,-3.0969,-3.084,-3.0609,-3.0551,-3.0593,-3.0651,-3.0651,-3.0634,-3.0651,-3.0634,-3.0551,-3.0468,-3.0485,-3.0443,-3.0316,-3.0231,-3.0103,-3.0103,-3.0146,-2.9913,-2.9782,-2.9633,-2.9499,-2.9319,-2.9227,-2.9289,-2.9152,-2.9075,-2.9029,-2.9029,-2.8951,-2.8905,-2.8858,-2.9014,-2.892,-2.8811,-2.8795,-2.8873,-2.8889,-2.8905,-2.9155,-2.9548,-3.0176,-3.0424,-2.9966,-2.9779,-2.9972,-2.9721,-2.9093,-2.8748,-2.8525,-4.5586,-4.5568,-4.5438,-4.5381,-4.5341,-4.5173,-4.5084,-4.5014,-4.4796,-4.4667,-4.4632,-4.4468,-4.4296,-4.4097,-4.3883,-4.3701,-4.3615,-4.3582,-4.3566,-4.3497,-4.3479,-4.3479,-4.3479,-4.3479,-4.3479,-4.3479,-4.3479,-4.3479,-4.3479,-4.3463,-4.3446,-4.334,-4.3233,-4.316,-4.3049,-4.2956,-4.2555,-4.2092,-4.1924,-4.1596,-4.1088,-4.0918,-4.0918,-4.0871,-4.0871,-4.072,-4.0151,-3.9286,-3.8303,-3.7789,-3.6463,-3.5825,-3.5605,-3.5571,-3.4709,-3.3761,-3.2831,-3.2138,-3.1732,-3.1546,-3.1461,-3.1421,-3.1099,-3.0952,-3.0814,-3.0692,-3.0526,-3.051,-3.051,-3.0551,-3.0568,-3.051,-3.0526,-3.0526,-3.051,-3.0468,-3.0443,-3.0274,-3.0146,-2.987,-2.9782,-2.987,-2.9913,-2.9605,-2.9335,-2.9182,-2.9044,-2.892,-2.8873,-2.9013,-2.8936,-2.8858,-2.8779,-2.8779,-2.8716,-2.8668,-2.8684,-2.8842,-2.8732,-2.8636,-2.8621,-2.8621,-2.8573,-2.8698,-2.8869,-2.8933,-2.9218,-2.9297,-2.9077,-2.9124,-2.9234,-2.8997,-2.8587,-2.8348,-2.825,-4.5586,-4.5586,-4.5531,-4.5476,-4.54,-4.532,-4.5194,-4.5014,-4.487,-4.4764,-4.4632,-4.4542,-4.4325,-4.4109,-4.3929,-4.3767,-4.3615,-4.3548,-4.3513,-4.3497,-4.3479,-4.3479,-4.3479,-4.3479,-4.3479,-4.3479,-4.3463,-4.3446,-4.3428,-4.3358,-4.3286,-4.3233,-4.3105,-4.3031,-4.3012,-4.2938,-4.275,-4.2418,-4.2092,-4.1666,-4.1255,-4.1012,-4.0871,-4.0871,-4.0871,-4.0569,-3.9963,-3.944,-3.8308,-3.7606,-3.6514,-3.6045,-3.5622,-3.5216,-3.459,-3.4184,-3.3355,-3.2442,-3.1461,-3.1196,-3.1196,-3.1049,-3.0945,-3.0773,-3.0692,-3.0584,-3.0501,-3.0468,-3.0468,-3.0468,-3.0468,-3.0468,-3.0468,-3.0468,-3.0468,-3.0342,-3.0274,-3.0146,-2.9973,-2.9694,-2.9499,-2.9649,-2.9694,-2.947,-2.9289,-2.9335,-2.9243,-2.9152,-2.9059,-2.9059,-2.8936,-2.8732,-2.8589,-2.8556,-2.8541,-2.8493,-2.8493,-2.8604,-2.8604,-2.8508,-2.8508,-2.846,-2.8444,-2.8396,-2.8473,-2.8491,-2.8462,-2.8558,-2.8653,-2.859,-2.8479,-2.835,-2.8235,-2.7974,-2.7875,-4.5586,-4.5586,-4.5586,-4.555,-4.5438,-4.54,-4.526,-4.508,-4.4914,-4.4745,-4.4632,-4.4496,-4.4354,-4.4128,-4.3992,-4.3832,-4.3649,-4.3566,-4.3532,-4.3479,-4.3479,-4.3479,-4.3479,-4.3479,-4.3479,-4.3479,-4.3463,-4.3411,-4.3322,-4.3251,-4.3196,-4.3104,-4.3049,-4.2956,-4.2938,-4.29,-4.2768,-4.2476,-4.1966,-4.1596,-4.1255,-4.0995,-4.0918,-4.0871,-4.0819,-4.0517,-3.9829,-3.9166,-3.8269,-3.7555,-3.6661,-3.609,-3.5622,-3.5233,-3.4749,-3.4378,-3.3777,-3.3086,-3.2201,-3.1756,-3.153,-3.1431,-3.1316,-3.1332,-3.09,-3.0791,-3.0626,-3.0518,-3.0468,-3.0468,-3.0468,-3.0468,-3.0426,-3.0426,-3.0443,-3.0231,-3.0103,-3.0017,-2.9973,-2.9826,-2.9649,-2.947,-2.947,-2.9289,-2.9243,-2.9425,-2.9425,-2.9396,-2.9198,-2.9013,-2.8811,-2.8589,-2.8556,-2.846,-2.846,-2.8396,-2.8411,-2.8411,-2.8411,-2.8411,-2.8411,-2.8348,-2.8299,-2.8235,-2.8186,-2.8073,-2.8008,-2.8204,-2.8286,-2.8189,-2.8042,-2.8057,-2.7925,-2.7725,-2.7625,-4.5586,-4.5586,-4.5586,-4.5586,-4.5568,-4.538,-4.5277,-4.5213,-4.487,-4.4738,-4.464,-4.4477,-4.4344,-4.4184,-4.4023,-4.3915,-4.3753,-4.3649,-4.3548,-4.3513,-4.3479,-4.3479,-4.3479,-4.3479,-4.3479,-4.3497,-4.3428,-4.3358,-4.3251,-4.316,-4.316,-4.3104,-4.3049,-4.2994,-4.29,-4.2844,-4.2595,-4.2234,-4.1709,-4.1391,-4.1134,-4.0918,-4.0918,-4.0871,-4.0871,-4.0772,-4.0525,-3.9306,-3.8294,-3.7687,-3.6622,-3.5983,-3.5622,-3.5273,-3.4901,-3.4577,-3.4229,-3.3648,-3.3091,-3.2765,-3.2849,-3.2804,-3.26,-3.2154,-3.1603,-3.152,-3.1239,-3.0709,-3.0626,-3.0468,-3.0468,-3.0468,-3.0384,-3.0342,-3.0359,-3.0258,-3.0146,-3.0017,-2.9973,-2.993,-2.9782,-2.9605,-2.956,-2.947,-2.9198,-2.9335,-2.938,-2.9289,-2.8982,-2.8795,-2.8636,-2.846,-2.846,-2.8411,-2.8411,-2.8411,-2.8411,-2.8363,-2.8363,-2.8348,-2.8348,-2.8299,-2.8088,-2.7989,-2.789,-2.7725,-2.7625,-2.7775,-2.786,-2.771,-2.7675,-2.7775,-2.7775,-2.7625,-2.7575,-4.5586,-4.5586,-4.5586,-4.5586,-4.5586,-4.5419,-4.5319,-4.5213,-4.4991,-4.477,-4.4632,-4.444,-4.4314,-4.4195,-4.3979,-4.3851,-4.3753,-4.36,-4.3548,-4.3513,-4.3479,-4.3479,-4.3479,-4.3497,-4.3497,-4.3446,-4.3358,-4.3251,-4.316,-4.3105,-4.3013,-4.2994,-4.3012,-4.2956,-4.29,-4.2768,-4.2476,-4.2192,-4.1727,-4.13,-4.1226,-4.0965,-4.0871,-4.0871,-4.0871,-4.053,-3.9954,-3.8992,-3.8157,-3.7354,-3.6361,-3.5898,-3.5554,-3.5222,-3.4998,-3.4886,-3.4589,-3.4253,-3.4046,-3.3545,-3.295,-3.2857,-3.2752,-3.2641,-3.2282,-3.1934,-3.156,-3.1189,-3.0791,-3.0626,-3.0468,-3.0468,-3.0426,-3.0384,-3.03,-3.0258,-3.013,-3.0017,-3.006,-3.006,-2.9886,-2.9649,-2.9738,-2.9766,-2.9454,-2.9182,-2.9243,-2.9152,-2.8889,-2.8668,-2.8541,-2.8411,-2.8411,-2.8348,-2.8348,-2.8411,-2.8411,-2.8314,-2.825,-2.8201,-2.8152,-2.7925,-2.7775,-2.769,-2.764,-2.7539,-2.7437,-2.7437,-2.7488,-2.7524,-2.7524,-2.7575,-2.7575,-2.7524,-2.7524,-4.5586,-4.5586,-4.5586,-4.5586,-4.5568,-4.54,-4.5279,-4.517,-4.4943,-4.4764,-4.4524,-4.4401,-4.4285,-4.4195,-4.4011,-4.3869,-4.3818,-4.3686,-4.3582,-4.3548,-4.3513,-4.3513,-4.3479,-4.3479,-4.3463,-4.3376,-4.3305,-4.3233,-4.3104,-4.2994,-4.2938,-4.2938,-4.29,-4.29,-4.2862,-4.2691,-4.2516,-4.2274,-4.1881,-4.1463,-4.1391,-4.1088,-4.0871,-4.0871,-4.0871,-4.0491,-3.9726,-3.8872,-3.7997,-3.716,-3.6327,-3.5796,-3.5436,-3.5178,-3.5065,-3.5043,-3.4985,-3.476,-3.4668,-3.4259,-3.3483,-3.3587,-3.3537,-3.3387,-3.2945,-3.2497,-3.2332,-3.151,-3.1106,-3.0775,-3.06,-3.0468,-3.0401,-3.0274,-3.0384,-3.0384,-3.0146,-3.0017,-3.0103,-3.0189,-2.9957,-2.9694,-2.9335,-2.9364,-2.9243,-2.9013,-2.8997,-2.8967,-2.8763,-2.8573,-2.8462,-2.8381,-2.8348,-2.8348,-2.8348,-2.8201,-2.8103,-2.8103,-2.8005,-2.7905,-2.779,-2.7625,-2.7473,-2.7437,-2.7386,-2.7299,-2.7248,-2.7248,-2.7335,-2.7423,-2.7423,-2.7423,-2.7437,-2.7386,-2.7437,-4.5586,-4.5586,-4.5586,-4.5586,-4.5568,-4.5319,-4.5213,-4.517,-4.4796,-4.4578,-4.444,-4.4383,-4.4314,-4.4195,-4.4023,-4.3947,-4.3883,-4.3804,-4.3719,-4.3634,-4.3582,-4.3566,-4.3532,-4.3497,-4.3428,-4.3411,-4.3323,-4.3196,-4.3067,-4.3049,-4.2994,-4.2938,-4.29,-4.29,-4.29,-4.2882,-4.2711,-4.2378,-4.2008,-4.1683,-4.1391,-4.1088,-4.0918,-4.0871,-4.0716,-4.0267,-3.9669,-3.8711,-3.7854,-3.7075,-3.627,-3.5807,-3.5509,-3.5464,-3.5402,-3.5362,-3.5287,-3.5131,-3.5038,-3.4911,-3.4698,-3.4502,-3.4336,-3.4253,-3.3872,-3.3508,-3.3077,-3.2183,-3.1576,-3.1189,-3.0858,-3.0534,-3.0474,-3.0349,-3.0476,-3.0658,-3.0434,-3.0321,-3.0457,-3.0348,-2.9995,-2.9633,-2.9136,-2.8826,-2.8842,-2.8795,-2.8811,-2.8716,-2.8605,-2.8429,-2.8332,-2.8284,-2.8201,-2.8186,-2.8137,-2.794,-2.784,-2.779,-2.774,-2.764,-2.7539,-2.7386,-2.7284,-2.7233,-2.7144,-2.7093,-2.7041,-2.6989,-2.7078,-2.7181,-2.7218,-2.7269,-2.7284,-2.7284,-2.7284,-4.5586,-4.5586,-4.5586,-4.5586,-4.5568,-4.5419,-4.53,-4.5173,-4.4846,-4.4605,-4.4505,-4.4411,-4.4314,-4.4226,-4.4073,-4.3947,-4.3897,-4.3837,-4.3753,-4.3719,-4.3649,-4.3548,-4.3479,-4.3446,-4.334,-4.3251,-4.3178,-4.316,-4.2956,-4.2994,-4.2938,-4.2882,-4.29,-4.29,-4.2844,-4.2711,-4.2476,-4.2297,-4.1881,-4.149,-4.1373,-4.1088,-4.0853,-4.0836,-4.0405,-3.9974,-3.9508,-3.8446,-3.7607,-3.7045,-3.6229,-3.579,-3.5594,-3.552,-3.5383,-3.5245,-3.5152,-3.5041,-3.4947,-3.4866,-3.4883,-3.4899,-3.4866,-3.4767,-3.4518,-3.3524,-3.311,-3.2762,-3.1957,-3.1527,-3.1279,-3.1255,-3.1077,-3.0622,-3.0681,-3.1077,-3.1095,-3.0991,-3.0947,-3.0635,-3.0279,-2.94,-2.8748,-2.851,-2.8477,-2.8429,-2.8446,-2.8574,-2.8542,-2.8284,-2.8103,-2.8103,-2.8054,-2.7989,-2.794,-2.774,-2.764,-2.7575,-2.7473,-2.7321,-2.7233,-2.713,-2.7093,-2.6989,-2.6937,-2.6846,-2.6899,-2.6884,-2.6884,-2.6922,-2.7026,-2.7078,-2.7093,-2.7093,-2.7078,-4.5163,-4.5182,-4.547,-4.5586,-4.5568,-4.5438,-4.5301,-4.5192,-4.487,-4.4712,-4.4605,-4.4411,-4.4285,-4.4226,-4.4104,-4.3979,-4.3929,-4.3897,-4.3851,-4.3818,-4.3749,-4.3615,-4.3532,-4.3446,-4.3305,-4.316,-4.3067,-4.3049,-4.2938,-4.29,-4.29,-4.29,-4.29,-4.29,-4.2844,-4.2729,-4.2555,-4.2356,-4.1924,-4.1534,-4.1346,-4.11,-4.0716,-4.0388,-3.9957,-3.9474,-3.8836,-3.805,-3.7188,-3.6764,-3.629,-3.5817,-3.5566,-3.5446,-3.5291,-3.5198,-3.5041,-3.4947,-3.4899,-3.4899,-3.4899,-3.4899,-3.4899,-3.4767,-3.4518,-3.3673,-3.3309,-3.2911,-3.2221,-3.1824,-3.1517,-3.1576,-3.1127,-3.0655,-3.0685,-3.1063,-3.1057,-3.0936,-3.0677,-3.0367,-2.9936,-2.9093,-2.8477,-2.8284,-2.8137,-2.8088,-2.8073,-2.8253,-2.8383,-2.8171,-2.797,-2.7905,-2.7855,-2.779,-2.764,-2.7503,-2.7437,-2.7372,-2.7218,-2.7063,-2.6974,-2.6922,-2.6832,-2.6779,-2.6712,-2.6712,-2.6779,-2.6779,-2.6832,-2.6832,-2.6937,-2.6937,-2.6951,-2.6937,-2.6974,-4.4278,-4.4412,-4.5163,-4.547,-4.5491,-4.517,-4.5088,-4.5084,-4.4895,-4.477,-4.4685,-4.4496,-4.4373,-4.4244,-4.4202,-4.4104,-4.4005,-4.3974,-4.3961,-4.3915,-4.3865,-4.3682,-4.3548,-4.3479,-4.3286,-4.316,-4.3049,-4.2994,-4.29,-4.29,-4.29,-4.29,-4.29,-4.29,-4.29,-4.2806,-4.2691,-4.2436,-4.2133,-4.1796,-4.1507,-4.118,-4.0585,-4.0124,-3.9577,-3.8853,-3.8146,-3.7361,-3.6844,-3.6388,-3.5983,-3.5773,-3.5594,-3.5537,-3.54,-3.5308,-3.5088,-3.5011,-3.4947,-3.4899,-3.4899,-3.4883,-3.4767,-3.4435,-3.4054,-3.364,-3.316,-3.285,-3.2309,-3.1852,-3.1479,-3.1106,-3.075,-3.0592,-3.0506,-3.0565,-3.0542,-3.0376,-3.0087,-2.9733,-2.9344,-2.8776,-2.8427,-2.8168,-2.8202,-2.794,-2.7925,-2.794,-2.8073,-2.8073,-2.7855,-2.7705,-2.7655,-2.7554,-2.7401,-2.7248,-2.7078,-2.7063,-2.6922,-2.6765,-2.6659,-2.6659,-2.6606,-2.6606,-2.6525,-2.6578,-2.6606,-2.6674,-2.6765,-2.6779,-2.6832,-2.6832,-2.6899,-2.6899,-2.6884,-4.3778,-4.4259,-4.3951,-4.4143,-4.4547,-4.3958,-4.4231,-4.5125,-4.5129,-4.4967,-4.4745,-4.4659,-4.4487,-4.4285,-4.4214,-4.4135,-4.4055,-4.4005,-4.3974,-4.3942,-4.3915,-4.3767,-4.3615,-4.3426,-4.3232,-4.3105,-4.2994,-4.2956,-4.2938,-4.29,-4.29,-4.29,-4.29,-4.29,-4.29,-4.29,-4.2806,-4.2691,-4.2378,-4.2008,-4.1709,-4.1373,-4.0631,-3.9963,-3.9198,-3.8439,-3.7715,-3.6913,-3.6431,-3.6034,-3.5861,-3.5684,-3.5291,-3.5245,-3.5135,-3.5058,-3.4963,-3.4963,-3.4899,-3.4883,-3.4833,-3.4651,-3.4402,-3.4468,-3.4054,-3.3458,-3.2784,-3.2607,-3.2319,-3.1863,-3.1741,-3.1483,-3.1144,-3.0957,-3.0965,-3.1027,-3.0999,-3.0749,-3.0434,-3.0117,-2.9701,-2.9005,-2.8621,-2.8514,-2.8485,-2.8022,-2.7775,-2.774,-2.7806,-2.779,-2.774,-2.759,-2.7386,-2.7284,-2.7144,-2.6989,-2.6817,-2.6645,-2.6553,-2.6515,-2.6447,-2.6447,-2.6379,-2.6379,-2.6365,-2.6379,-2.6394,-2.6558,-2.6808,-2.6717,-2.6756,-2.6794,-2.6794,-2.6779,-2.6727,-4.2854,-4.3258,-4.3162,-4.3393,-4.3682,-4.328,-4.3596,-4.4288,-4.4505,-4.4672,-4.487,-4.4667,-4.4468,-4.4314,-4.4244,-4.4135,-4.4005,-4.4005,-4.3974,-4.3929,-4.3915,-4.3682,-4.3495,-4.3338,-4.3196,-4.3068,-4.2956,-4.29,-4.29,-4.29,-4.29,-4.29,-4.29,-4.29,-4.29,-4.29,-4.29,-4.2768,-4.2555,-4.2192,-4.1778,-4.1455,-4.0704,-3.9755,-3.8922,-3.8232,-3.7473,-3.6697,-3.6242,-3.5993,-3.5932,-3.5728,-3.5321,-3.5182,-3.5041,-3.4849,-3.4535,-3.4452,-3.4336,-3.4054,-3.422,-3.422,-3.3826,-3.3945,-3.3664,-3.3102,-3.2793,-3.2566,-3.2212,-3.1925,-3.2014,-3.2036,-3.1716,-3.1443,-3.1612,-3.1823,-3.1629,-3.1385,-3.1126,-3.0851,-3.0258,-2.9543,-2.9154,-2.9012,-2.8677,-2.8112,-2.769,-2.7539,-2.759,-2.769,-2.7539,-2.7386,-2.7181,-2.6974,-2.6899,-2.6814,-2.664,-2.6504,-2.6447,-2.634,-2.6233,-2.6179,-2.6111,-2.6165,-2.6179,-2.6304,-2.6432,-2.6751,-2.696,-2.6831,-2.6816,-2.6931,-2.6802,-2.6539,-2.6433,-4.17,-4.1931,-4.2662,-4.2874,-4.2874,-4.2797,-4.2769,-4.2776,-4.3259,-4.4003,-4.4592,-4.4482,-4.4205,-4.3997,-4.3946,-4.3744,-4.372,-4.3745,-4.3825,-4.386,-4.3883,-4.3682,-4.3461,-4.325,-4.316,-4.3013,-4.29,-4.29,-4.29,-4.29,-4.29,-4.29,-4.29,-4.29,-4.29,-4.29,-4.29,-4.2844,-4.2559,-4.2203,-4.1586,-4.1226,-4.0819,-3.9565,-3.8819,-3.8198,-3.7404,-3.6784,-3.6259,-3.6191,-3.6062,-3.58,-3.5487,-3.5211,-3.5041,-3.4847,-3.4515,-3.4366,-3.42,-3.3935,-3.3806,-3.3627,-3.3168,-3.3551,-3.3436,-3.2813,-3.2488,-3.2629,-3.239,-3.212,-3.214,-3.2223,-3.2047,-3.1871,-3.1951,-3.2155,-3.213,-3.1706,-3.1107,-3.0876,-3.0727,-2.9976,-2.9225,-2.9052,-2.871,-2.8137,-2.764,-2.7386,-2.7269,-2.7372,-2.7299,-2.7174,-2.7156,-2.6987,-2.6881,-2.6748,-2.6554,-2.6389,-2.6332,-2.6125,-2.5962,-2.5907,-2.5839,-2.5964,-2.6048,-2.6355,-2.6606,-2.6775,-2.6874,-2.7015,-2.7029,-2.7143,-2.693,-2.6531,-2.6378,-4.0662,-4.1797,-4.2027,-4.1739,-4.1162,-4.113,-4.143,-4.1781,-4.177,-4.2606,-4.3653,-4.3737,-4.3574,-4.3343,-4.3378,-4.3085,-4.2605,-4.341,-4.3522,-4.3515,-4.3582,-4.3716,-4.3529,-4.3321,-4.3196,-4.3068,-4.2994,-4.29,-4.29,-4.29,-4.29,-4.29,-4.29,-4.29,-4.29,-4.29,-4.2882,-4.2755,-4.2605,-4.1916,-4.0961,-4.1075,-4.0814,-3.9207,-3.806,-3.7774,-3.7085,-3.644,-3.6036,-3.5844,-3.5756,-3.5577,-3.5383,-3.5245,-3.5198,-3.5148,-3.4838,-3.4592,-3.4413,-3.4134,-3.4087,-3.4121,-3.3925,-3.3779,-3.3373,-3.2574,-3.2272,-3.259,-3.2626,-3.2369,-3.2305,-3.2384,-3.2414,-3.2315,-3.2265,-3.2447,-3.2609,-3.1925,-3.1161,-3.1056,-3.0997,-3.0431,-2.9617,-2.9031,-2.8643,-2.8121,-2.7535,-2.7167,-2.6893,-2.6841,-2.6837,-2.6794,-2.7198,-2.7121,-2.7011,-2.6832,-2.6651,-2.6357,-2.6203,-2.5953,-2.5675,-2.5647,-2.5592,-2.5772,-2.5967,-2.6204,-2.6372,-2.6498,-2.6623,-2.6961,-2.7215,-2.7314,-2.703,-2.6666,-2.6582,-3.9258,-4.0123,-4.0546,-4.0623,-4.0508,-4.0511,-4.0682,-4.0978,-4.1225,-4.1724,-4.247,-4.297,-4.3031,-4.266,-4.2781,-4.2377,-4.188,-4.289,-4.3064,-4.3089,-4.3304,-4.3656,-4.3563,-4.33,-4.3268,-4.3105,-4.2975,-4.29,-4.29,-4.29,-4.29,-4.2882,-4.2882,-4.2864,-4.2864,-4.2864,-4.2647,-4.2375,-4.2375,-4.1497,-4.037,-4.0529,-4.033,-3.8695,-3.7853,-3.7499,-3.712,-3.6509,-3.6122,-3.5844,-3.5756,-3.5594,-3.5429,-3.5337,-3.5245,-3.5081,-3.4835,-3.4559,-3.4479,-3.4319,-3.4239,-3.419,-3.3952,-3.3529,-3.3892,-3.3177,-3.2884,-3.308,-3.2838,-3.2563,-3.2914,-3.3035,-3.3016,-3.2981,-3.2879,-3.295,-3.2956,-3.2694,-3.2285,-3.2269,-3.1918,-3.1129,-3.0357,-2.9524,-2.8929,-2.7691,-2.7196,-2.6803,-2.6525,-2.6483,-2.6432,-2.6564,-2.7031,-2.7286,-2.7271,-2.7101,-2.683,-2.6564,-2.6201,-2.5868,-2.5605,-2.541,-2.5298,-2.552,-2.5644,-2.5838,-2.5962,-2.6268,-2.6657,-2.7051,-2.729,-2.7457,-2.7131,-2.6889,-2.6986,-3.793,-3.8104,-3.8834,-3.9527,-4.0142,-4.0296,-4.0252,-4.0288,-4.0979,-4.1125,-4.1108,-4.2302,-4.2313,-4.2165,-4.2211,-4.1827,-4.1787,-4.224,-4.2451,-4.2483,-4.2982,-4.3158,-4.3122,-4.299,-4.283,-4.2887,-4.2941,-4.2939,-4.2956,-4.2956,-4.2938,-4.2882,-4.2792,-4.2719,-4.2719,-4.252,-4.2122,-4.1705,-4.1324,-4.0545,-4.0121,-3.9961,-3.9423,-3.8633,-3.7966,-3.756,-3.7172,-3.6784,-3.6327,-3.6036,-3.5756,-3.5639,-3.5503,-3.5383,-3.5337,-3.5128,-3.4751,-3.4426,-3.4163,-3.3776,-3.3746,-3.3606,-3.3434,-3.3535,-3.3972,-3.3856,-3.3516,-3.3255,-3.3012,-3.2992,-3.3339,-3.3459,-3.3439,-3.3403,-3.3298,-3.3261,-3.3261,-3.3171,-3.3071,-3.3024,-3.2353,-3.1605,-3.0777,-2.9954,-2.886,-2.7609,-2.6832,-2.6447,-2.6196,-2.6342,-2.6428,-2.6678,-2.7109,-2.7315,-2.7537,-2.745,-2.7235,-2.6858,-2.651,-2.5944,-2.5463,-2.5269,-2.5145,-2.5172,-2.5351,-2.5638,-2.5983,-2.6315,-2.6717,-2.7047,-2.7363,-2.7528,-2.7426,-2.7264,-2.7427,-3.7373,-3.8007,-3.818,-3.8373,-3.8604,-3.9238,-3.941,-3.9407,-4.0174,-4.0328,-4.04,-4.0873,-4.1186,-4.0918,-4.095,-4.0682,-4.0365,-4.1192,-4.1219,-4.1041,-4.1934,-4.2353,-4.2429,-4.2228,-4.1949,-4.221,-4.265,-4.3014,-4.274,-4.2812,-4.2939,-4.2719,-4.2122,-4.1959,-4.1832,-4.1542,-4.1071,-4.08,-4.0619,-4.0041,-3.9516,-3.92,-3.8734,-3.8232,-3.7883,-3.7276,-3.679,-3.6572,-3.6233,-3.5975,-3.5644,-3.5504,-3.5346,-3.5256,-3.5278,-3.5186,-3.481,-3.4818,-3.4509,-3.4206,-3.4228,-3.4182,-3.4072,-3.3925,-3.4084,-3.3933,-3.3655,-3.3451,-3.322,-3.3185,-3.3419,-3.3366,-3.333,-3.333,-3.3277,-3.3277,-3.3293,-3.3011,-3.2765,-3.2532,-3.2124,-3.1262,-3.0349,-2.952,-2.8645,-2.749,-2.6666,-2.6284,-2.612,-2.6216,-2.642,-2.6844,-2.7281,-2.7685,-2.8036,-2.7872,-2.7687,-2.7283,-2.6663,-2.5741,-2.5181,-2.5129,-2.5018,-2.4975,-2.5317,-2.5714,-2.6,-2.6031,-2.6584,-2.6971,-2.74,-2.7645,-2.7493,-2.7444,-2.7453]},{"header":{"parameterUnit":"m.s-1","parameterCategory":1,"la1":31.0,"la2":29.5877,"lo1":-88.7671,"lo2":-86.6584,"dy":0.0162,"dx":0.0185,"nx":115,"ny":88,"refTime":"2023-07-31T06:00:00:Z","depth":0,"parameterNumber":3,"parameterNumberName":"V-component_of_WINDS"},"data":[0.0,0.0,0.0,0.0,0.0,0.0,0.0,0.0,0.0,0.0,0.0,0.0,0.0,0.0,0.0,0.0,0.0,0.0,0.0,0.0,0.0,0.0,0.0,0.0,0.0,0.0,0.0,0.0,0.0,0.0,0.0,0.0,0.0,0.0,0.0,0.0,0.0,0.0,0.0,0.0,0.0,0.0,0.0,0.0,0.0,0.0,0.0,0.0,0.0,0.0,0.0,0.0,0.0,0.0,0.0,0.0,0.0,0.0,0.0,0.0,0.0,0.0,0.0,0.0,0.0,0.0,0.0,0.0,0.0,0.0,0.0,0.0,0.0,0.0,0.0,0.0,0.0,0.0,0.0,0.0,0.0,0.0,0.0,0.0,0.0,0.0,0.0,0.0,0.0,0.0,0.0,0.0,0.0,0.0,0.0,0.0,0.0,0.0,0.0,0.0,0.0,0.0,0.0,0.0,0.0,0.0,0.0,0.0,0.0,0.0,0.0,0.0,0.0,0.0,0.0,0.0,0.0,0.0,0.0,0.0,0.0,0.0,0.0,0.0,0.0,0.0,0.0,0.0,0.0,0.0,0.0,0.0,0.0,0.0,0.0,0.0,0.0,0.0,0.0,0.0,0.0,0.0,0.0,0.0,0.0,0.0,0.0,0.0,0.0,0.0,0.0,0.0,0.0,0.0,0.0,0.0,0.0,0.0,0.0,0.0,0.0,0.0,0.0,0.0,0.0,0.0,0.0,0.0,0.0,0.0,0.0,0.0,0.0,0.0,0.0,0.0,0.0,0.0,0.0,0.0,0.0,0.0,0.0,0.0,0.0,0.0,0.0,0.0,0.0,0.0,0.0,0.0,0.0,0.0,0.0,0.0,0.0,0.0,0.0,0.0,0.0,0.0,0.0,0.0,0.0,0.0,0.0,0.0,0.0,0.0,0.0,0.0,0.0,0.0,0.0,0.0,0.0,0.0,0.0,0.0,0.0,0.0,0.0,0.0,0.0,0.0,0.0,0.0,0.0,0.0,0.0,0.0,0.0,0.0,0.0,0.0,0.0,0.0,0.0,0.0,0.0,0.0,0.0,0.0,0.0,0.0,0.0,0.0,0.0,0.0,0.0,0.0,0.0,0.0,0.0,0.0,0.0,0.0,0.0,0.0,0.0,0.0,0.0,0.0,0.0,0.0,0.0,0.0,0.0,0.0,0.0,0.0,0.0,0.0,0.0,0.0,0.0,0.0,0.0,0.0,0.0,0.0,0.0,0.0,0.0,0.0,0.0,0.0,0.0,0.0,0.0,0.0,0.0,0.0,0.0,0.0,0.0,0.0,0.0,0.0,0.0,0.0,0.0,0.0,0.0,0.0,0.0,0.0,0.0,0.0,0.0,0.0,0.0,0.0,0.0,0.0,0.0,0.0,0.0,0.0,0.0,0.0,0.0,0.0,0.0,0.0,0.0,0.0,0.0,0.0,0.0,0.0,0.0,0.0,0.0,0.0,0.0,0.0,0.0,0.0,0.0,0.0,0.0,0.0,0.0,0.0,0.0,0.0,0.0,0.0,0.0,0.0,0.0,0.0,0.0,0.0,0.0,0.0,0.0,0.0,0.0,0.0,0.0,0.0,0.0,0.0,0.0,0.0,0.0,0.0,0.0,0.0,0.0,0.0,0.0,0.0,0.0,0.0,0.0,0.0,0.0,0.0,0.0,0.0,0.0,0.0,0.0,0.0,0.0,0.0,0.0,0.0,0.0,0.0,0.0,0.0,0.0,0.0,0.0,0.0,0.0,0.0,0.0,0.0,0.0,0.0,0.0,0.0,0.0,0.0,0.0,0.0,0.0,0.0,0.0,0.0,0.0,0.0,0.0,0.0,0.0,0.0,0.0,0.0,0.0,0.0,0.0,0.0,0.0,0.0,0.0,0.0,0.0,0.0,0.0,0.0,0.0,0.0,0.0,0.0,0.0,0.0,0.0,0.0,0.0,0.0,0.0,0.0,0.0,0.0,0.0,0.0,0.0,0.0,0.0,0.0,0.0,0.0,0.0,0.0,0.0,0.0,0.0,0.0,0.0,0.0,0.0,0.0,0.0,0.0,0.0,0.0,0.0,0.0,0.0,0.0,0.0,0.0,0.0,0.0,0.0,0.0,0.0,0.0,0.0,0.0,0.0,0.0,0.0,0.0,0.0,0.0,0.0,0.0,0.0,0.0,0.0,0.0,0.0,0.0,0.0,0.0,0.0,0.0,0.0,0.0,0.0,0.0,0.0,0.0,0.0,0.0,0.0,0.0,0.0,0.0,0.0,0.0,0.0,0.0,0.0,0.0,0.0,0.0,0.0,0.0,0.0,0.0,0.0,0.0,0.0,0.0,0.0,0.0,0.0,0.0,0.0,0.0,0.0,0.0,0.0,0.0,0.0,0.0,0.0,0.0,0.0,0.0,0.0,0.0,0.0,0.0,0.0,0.0,0.0,0.0,0.0,0.0,0.0,0.0,0.0,0.0,0.0,0.0,0.0,0.0,0.0,0.0,0.0,0.0,0.0,0.0,0.0,0.0,0.0,0.0,0.0,0.0,0.0,0.0,0.0,0.0,0.0,0.0,0.0,0.0,0.0,0.0,0.0,0.0,0.0,0.0,0.0,0.0,0.0,0.0,0.0,0.0,0.0,0.0,0.0,0.0,0.0,0.0,0.0,0.0,0.0,0.0,0.0,0.0,0.0,0.0,0.0,0.0,0.0,0.0,0.0,0.0,0.0,0.0,0.0,0.0,0.0,0.0,0.0,0.0,0.0,0.0,0.0,0.0,0.0,0.0,0.0,0.0,0.0,0.0,0.0,0.0,0.0,0.0,0.0,0.0,0.0,0.0,0.0,0.0,0.0,0.0,0.0,0.0,0.0,0.0,0.0,0.0,0.0,0.0,0.0,0.0,0.0,0.0,0.0,0.0,0.0,0.0,0.0,0.0,0.0,0.0,0.0,0.0,0.0,0.0,0.0,0.0,0.0,0.0,0.0,0.0,0.0,0.0,0.0,0.0,0.0,0.0,0.0,0.0,0.0,0.0,0.0,0.0,0.0,0.0,0.0,0.0,0.0,0.0,0.0,0.0,0.0,0.0,0.0,0.0,0.0,0.0,0.0,0.0,0.0,0.0,0.0,0.0,0.0,0.0,0.0,0.0,0.0,0.0,0.0,0.0,0.0,0.0,0.0,0.0,0.0,0.0,0.0,0.0,0.0,0.0,0.0,0.0,0.0,0.0,0.0,0.0,0.0,0.0,0.0,0.0,0.0,0.0,0.0,0.0,0.0,0.0,0.0,0.0,0.0,0.0,0.0,0.0,0.0,0.0,0.0,0.0,0.0,0.0,0.0,0.0,0.0,0.0,0.0,0.0,0.0,0.0,0.0,0.0,0.0,0.0,0.0,0.0,0.0,0.0,0.0,0.0,0.0,0.0,0.0,0.0,0.0,0.0,0.0,0.0,0.0,0.0,0.0,0.0,0.0,0.0,0.0,0.0,0.0,0.0,0.0,0.0,0.0,0.0,0.0,0.0,0.0,0.0,0.0,0.0,0.0,0.0,0.0,0.0,0.0,0.0,0.0,0.0,0.0,0.0,0.0,0.0,0.0,0.0,0.0,0.0,0.0,0.0,0.0,0.0,0.0,0.0,0.0,0.0,0.0,0.0,0.0,0.0,0.0,0.0,0.0,0.0,0.0,0.0,0.0,0.0,0.0,0.0,0.0,0.0,0.0,0.0,0.0,0.0,0.0,0.0,0.0,0.0,0.0,0.0,0.0,0.0,0.0,0.0,0.0,0.0,0.0,0.0,0.0,0.0,0.0,0.0,0.0,0.0,0.0,0.0,0.0,0.0,0.0,0.0,0.0,0.0,0.0,0.0,0.0,0.0,0.0,0.0,0.0,0.0,0.0,0.0,0.0,0.0,0.0,0.0,0.0,0.0,0.0,0.0,0.0,0.0,0.0,0.0,0.0,0.0,0.0,0.0,0.0,0.0,0.0,0.0,0.0,0.0,0.0,0.0,0.0,0.0,0.0,0.0,0.0,0.0,0.0,0.0,0.0,0.0,0.0,0.0,0.0,0.0,0.0,0.0,0.0,0.0,0.0,0.0,0.0,0.0,0.0,0.0,0.0,0.0,0.0,0.0,0.0,0.0,0.0,0.0,0.0,0.0,0.0,0.0,0.0,0.0,0.0,0.0,0.0,0.0,0.0,0.0,0.0,0.0,0.0,0.0,0.0,0.0,0.0,0.0,0.0,0.0,0.0,0.0,0.0,0.0,0.2669,0.0,0.0,0.0,0.0,0.0,0.0,0.0,0.0,0.0,0.0,0.0,0.0,0.0,0.0,0.0,0.0,0.0,0.0,0.0,0.0,0.0,0.0,0.0,0.0,0.0,0.0,0.0,0.0,0.0,0.0,0.0,0.0,0.0,0.0,0.0,0.0,0.0,0.0,0.0,0.0,0.0,0.0,0.0,0.0,0.0,0.0,0.0,0.0,0.0,0.0,0.0,0.0,0.0,0.0,0.0,0.0,0.0,0.0,0.0,0.0,0.0,0.0,0.0,0.0,0.0,0.0,0.0,0.0,0.0,0.0,0.0,0.0,0.0,0.0,0.0,0.0,0.0,0.0,0.0,0.0,0.0,0.0,0.0,0.0,0.0,0.0,0.0,0.0,0.0,0.0,0.0,0.0,0.0,0.0,0.0,0.0,0.0,0.0,0.0,0.0,0.0,0.0,0.0,0.0,0.0,0.0,0.0,0.0,0.0,0.0,0.2808,0.2369,0.2143,0.1832,0.1426,0.0,0.0,0.0,0.0,0.0,0.0,0.0,0.0,0.0,0.0,0.0,0.0,0.0,0.0,0.0,0.0,0.0,0.0,0.0,0.0,0.0,0.0,0.0,0.0,0.0,0.0,0.0,0.0,0.0,0.0,0.0,0.0,0.0,0.0,0.0,0.0,0.0,0.0,0.0,0.0,0.0,0.0,0.0,0.0,0.0,0.0,0.0,0.0,0.0,0.0,0.0,0.0,0.0,0.0,0.0,0.0,0.0,0.0,0.0,0.0,0.0,0.0,0.0,0.0,0.0,0.0,0.0,0.0,0.0,0.0,0.0,0.0,0.0,0.0,0.0,0.0,0.0,0.0,0.0,0.0,0.0,0.0,0.0,0.0,0.0,0.0,0.0,0.0,0.0,0.0,0.0,0.0,0.0,0.0,0.0,0.0,0.0,0.0,0.0,0.0,0.0,0.0,0.0,0.0,0.0,0.0,0.0,0.0,0.0,0.0,0.0,0.0,0.1024,0.0723,0.0179,0.0,0.0,0.0,0.0,0.0,0.0,0.0,0.0,0.0,0.0,0.0,0.0,0.0,0.0,0.0,0.0,0.0,0.0,0.0,0.0,0.0,0.0,0.0,0.0,0.0,0.0,0.0,0.0,0.0,0.0,0.0,0.0,0.0,0.0,0.0,0.0,0.0,0.0,0.0,0.0,0.0,0.0,0.0,0.0,0.0,0.0,0.0,0.0,0.0,0.0,0.0,0.0,0.0,0.0,0.0,0.0,0.0,0.0,0.0,0.0,0.0,0.0,0.0,0.0,0.0,0.0,0.0,0.0,0.0,0.0,0.0,0.0,0.0,0.0,0.0,0.0,0.0,0.0,0.0,0.0,0.0,0.0,0.0,0.0,0.0,0.0,0.0,0.0,0.0,0.0,0.0,0.0,0.0,0.0,0.0,0.0,0.0,0.0,0.0,0.0,0.0,0.0,0.0,0.0,0.0,0.0,0.0,0.0,0.0,0.0,0.0423,0.0158,-0.0049,0.0,-0.0763,0.0,0.0,0.0,0.0,0.0,0.0,0.0,0.0,0.0,0.0,0.0,0.0,0.0,0.0,0.0,0.0,0.0,0.0,0.0,0.0,0.0,0.0,0.0,0.0,0.0,0.0,0.0,0.0,0.0,0.0,0.0,0.0,0.0,0.0,0.0,0.0,0.0,0.0,0.0,0.0,0.0,0.0,0.0,0.0,0.0,0.0,0.0,0.0,0.0,0.0,0.0,0.0,0.0,0.0,0.0,0.0,0.0,0.0,0.0,0.0,0.0,0.0,0.0,0.0,0.0,0.0,0.0,0.0,0.0,0.0,0.0,0.0,0.0,0.0,0.0,0.0,0.0,0.0,0.0,0.0,0.0,0.0,0.0,0.0,0.0,0.0,0.0,0.0,0.0,0.0,0.0,0.0,0.0,0.0,0.0,0.0,0.0,0.0,0.0,0.0,0.0,0.0,0.0,0.0,0.0,0.0,0.0,0.0,0.0,0.0,-0.0533,-0.0746,-0.0942,-0.1228,0.0,0.0,0.0,0.0,0.0,0.0,0.0,0.0,0.0,0.0,0.0,0.0,0.0,0.0,0.0,0.0,0.0,0.0,0.0,0.0,0.0,0.0,0.0,0.0,0.0,0.0,0.0,0.0,0.0,0.0,0.0,0.0,0.0,0.0,0.0,0.0,0.0,0.0,0.0,0.0,0.0,0.0,0.0,0.0,0.0,0.0,0.0,0.0,0.0,0.0,0.0,0.0,0.0,0.0,0.0,0.0,0.0,0.0,0.0,0.0,0.0,0.0,0.0,0.0,0.0,0.0,0.0,0.0,0.0,0.0,0.0,0.0,0.0,0.0,0.0,0.0,0.0,0.0,0.0,0.0,0.0,0.0,0.0,0.0,0.0,0.0,0.0,0.0,0.0,0.0,0.0,0.0,0.0,0.0,0.0,0.0,0.0,0.0,0.0,0.0,0.0,0.0,0.0,0.0,0.0,0.0,0.0,0.0,0.0,0.0,-0.1314,-0.1451,-0.17,-0.1871,-0.2138,-0.2422,0.0,0.0,0.0,0.0,0.0,0.0,0.0,0.0,0.0,0.0,0.0,0.0,0.0,0.0,0.0,0.0,0.0,0.0,0.0,0.0,0.0,0.0,0.0,0.0,0.0,0.0,0.0,0.0,0.0,0.0,0.0,0.0,0.0,0.0,0.0,0.0,0.0,0.0,0.0,0.0,0.0,0.0,0.0,0.0,0.0,0.0,0.0,0.0,0.0,0.0,0.0,0.0,0.0,0.0,0.0,0.0,0.0,0.0,0.0,0.0,0.0,0.0,0.0,0.0,0.0,0.0,0.0,0.0,0.0,0.0,0.0,0.0,0.0,0.0,0.0,0.0,0.0,0.0,0.0,0.0,0.0,0.0,0.0,0.0,0.0,0.0,0.0,0.0,0.0,0.0,0.0,0.0,0.0,0.0,0.0,0.0,0.0,0.0,0.0,0.0,0.0,0.0,0.0,0.0,0.0,0.0,0.0,0.0,-0.2128,-0.235,-0.253,-0.2713,-0.2856,-0.3019,0.0,0.0,0.0,0.0,0.0,0.0,0.0,0.0,0.0,0.0,0.0,0.0,0.0,0.0,0.0,0.0,0.0,0.0,0.0,0.0,0.0,0.0,0.0,0.0,0.0,0.0,0.0,0.0,0.0,0.0,0.0,0.0,0.0,0.0,0.0,0.0,0.0,0.0,0.0,0.0,0.0,0.0,0.0,0.0,0.0,0.0,0.0,0.0,0.0,0.0,0.0,0.0,0.0,0.0,0.0,0.0,0.0,0.0,0.0,0.0,0.0,0.0,0.0,0.0,0.0,0.0,0.0,0.0,0.0,0.0,0.0,0.0,0.0,0.0,0.0,0.0,0.0,0.0,0.0,0.0,0.0,0.0,0.0,0.0,0.0,0.0,0.0,0.0,0.0,0.0,0.0,0.0,0.0,0.0,0.0,0.0,0.0,0.0,0.0,0.0,0.0,0.0,0.0,0.0,0.0,0.0,0.0,0.0,0.0,-0.3113,-0.347,-0.369,-0.3688,-0.377,-0.3872,0.0,0.0,0.0,0.0,0.0,0.0,0.0,0.0,0.0,0.0,0.0,0.0,0.0,0.0,0.0,0.0,0.0,0.0,0.0,0.0,0.0,0.0,0.0,0.0,0.0,0.0,0.0,0.0,0.0,0.0,0.0,0.0,0.0,0.0,0.0,0.0,0.0,0.0,0.0,0.0,0.0,0.0,0.0,0.0,0.0,0.0,0.0,0.0,0.0,0.0,0.0,0.0,0.0,0.0,0.0,0.0,0.0,0.0,0.0,0.0,0.0,0.0,0.0,0.0,0.0,0.0,0.0,0.0,0.0,0.0,0.0,0.0,0.0,0.0,0.0,0.0,0.0,0.0,0.0,0.0,0.0,0.0,0.0,0.0,0.0,0.0,0.0,0.0,0.0,0.0,0.0,0.0,0.0,0.0,0.0,0.0,0.0,0.0,0.0,0.0,0.0,0.0,0.0,0.0,0.0,0.0,0.0,0.0,0.0,-0.4162,0.0,-0.4642,-0.4713,-0.4694,-0.4634,0.0,0.0,0.0,0.0,0.0,0.0,0.0,0.0,0.0,0.0,0.0,0.0,0.0,0.0,0.0,0.0,0.0,0.0,0.0,0.0,0.0,0.0,0.0,0.0,0.0,0.0,0.0,0.0,0.0,0.0,0.0,0.0,0.0,0.0,0.0,0.0,0.0,0.0,0.0,0.0,0.0,0.0,0.0,0.0,0.0,0.0,0.0,0.0,0.0,0.0,0.0,0.0,0.0,0.0,0.0,0.0,0.0,0.0,0.0,0.0,0.0,0.0,0.0,0.0,0.0,0.0,0.0,0.0,0.0,0.0,0.0,0.0,0.0,0.0,0.0,0.0,0.0,0.0,0.0,0.0,0.0,0.0,0.0,0.0,0.0,0.0,0.0,0.0,0.0,0.0,0.0,0.0,0.0,0.0,0.0,0.0,0.0,0.0,0.0,0.0,0.0,0.0,0.0,0.0,0.0,0.0,0.0,0.0,-0.4813,-0.5325,-0.5337,-0.5549,-0.5773,-0.5596,-0.5486,0.0,0.0,0.0,0.0,0.0,0.0,0.0,0.0,0.0,0.0,0.0,0.0,0.0,0.0,0.0,0.0,0.0,0.0,0.0,0.0,0.0,0.0,0.0,0.0,0.0,0.0,0.0,0.0,0.0,0.0,0.0,0.0,0.0,0.0,0.0,0.0,0.0,0.0,0.0,0.0,0.0,0.0,0.0,0.0,0.0,0.0,0.0,0.0,0.0,0.0,0.0,0.0,0.0,0.0,0.0,0.0,0.0,0.0,0.0,0.0,0.0,0.0,0.0,0.0,0.0,0.0,0.0,0.0,0.0,0.0,0.0,0.0,0.0,0.0,0.0,0.0,0.0,0.0,0.0,0.0,0.0,0.0,0.0,0.0,0.0,0.0,0.0,0.0,0.0,0.0,0.0,0.0,0.0,0.0,0.0,0.0,0.0,0.0,0.0,0.0,0.0,0.0,0.0,0.0,0.0,0.0,0.0,0.0,0.0,-0.6746,-0.7292,-0.7574,-0.7492,-0.7473,-0.7113,0.0,0.0,0.0,0.0,0.0,0.0,0.0,0.0,0.0,0.0,0.0,0.0,0.0,0.0,0.0,0.0,0.0,0.0,0.0,0.0,0.0,0.0,0.0,0.0,0.0,0.0,0.0,0.0,0.0,0.0,0.0,0.0,0.0,0.0,0.0,0.0,0.0,0.0,0.0,0.0,0.0,0.0,0.0,0.0,0.0,0.0,0.0,0.0,0.0,0.0,0.0,0.0,0.0,0.0,0.0,0.0,0.0,0.0,0.0,0.0,0.0,0.0,0.0,0.0,0.0,0.0,0.0,0.0,0.0,0.0,0.0,0.0,0.0,0.0,0.0,0.0,0.0,0.0,0.0,0.0,0.0,0.0,0.0,0.0,0.0,0.0,0.0,0.0,0.0,0.0,0.0,0.0,0.0,0.0,0.0,0.0,0.0,0.0,0.0,0.0,0.0,0.0,0.0,0.0,0.0,0.0,0.0,0.0,0.0,-0.9619,-0.9751,-0.9785,-0.9727,-0.9699,-0.9098,-0.8037,0.0,0.0,0.0,0.0,0.0,0.0,0.0,0.0,0.0,0.0,0.0,0.0,0.0,0.0,0.0,0.0,0.0,0.0,0.0,0.0,0.0,0.0,0.0,0.0,0.0,0.0,0.0,0.0,0.0,0.0,0.0,0.0,0.0,0.0,0.0,0.0,0.0,0.0,0.0,0.0,0.0,0.0,0.0,0.0,0.0,0.0,0.0,0.0,0.0,0.0,0.0,0.0,0.0,0.0,0.0,0.0,0.0,0.0,0.0,0.0,0.0,0.0,0.0,0.0,0.0,0.0,0.0,0.0,0.0,0.0,0.0,0.0,0.0,0.0,0.0,0.0,0.0,0.0,0.0,0.0,0.0,0.0,0.0,0.0,0.0,0.0,0.0,0.0,0.0,0.0,0.0,0.0,0.0,0.0,0.0,0.0,0.0,0.0,0.0,0.0,0.0,0.0,0.0,0.0,0.0,0.0,0.0,0.0,-1.3591,-1.2753,-1.2296,-1.2308,-1.2157,-1.1317,0.0,0.0,0.0,0.0,0.0,0.0,0.0,0.0,0.0,0.0,0.0,0.0,0.0,0.0,0.0,0.0,0.0,0.0,0.0,0.0,0.0,0.0,0.0,0.0,0.0,0.0,0.0,0.0,0.0,0.0,0.0,0.0,0.0,0.0,0.0,0.0,0.0,0.0,0.0,0.0,0.0,0.0,0.0,0.0,0.0,0.0,0.0,0.0,0.0,0.0,0.0,0.0,0.0,0.0,0.0,0.0,0.0,0.0,0.0,0.0,0.0,0.0,0.0,0.0,0.0,0.0,0.0,0.0,0.0,0.0,0.0,0.0,0.0,0.0,0.0,0.0,0.0,0.0,0.0,0.0,0.0,0.0,0.0,0.0,0.0,0.0,0.0,0.0,0.0,0.0,0.0,0.0,0.0,0.0,0.0,0.0,0.0,0.0,0.0,0.0,0.0,0.0,0.0,0.0,0.0,0.0,0.0,0.0,0.0,-1.5886,-1.6981,-1.6508,-1.4607,-1.428,-1.3246,0.0,0.0,0.0,0.0,0.0,0.0,0.0,0.0,0.0,0.0,0.0,0.0,0.0,0.0,0.0,0.0,0.0,0.0,0.0,0.0,0.0,0.0,0.0,0.0,0.0,0.0,0.0,0.0,0.0,0.0,0.0,0.0,0.0,0.0,0.0,0.0,0.0,0.0,0.0,0.0,0.0,0.0,0.0,0.0,0.0,0.0,0.0,0.0,0.0,0.0,0.0,0.0,0.0,0.0,0.0,0.0,0.0,0.0,0.0,0.0,0.0,0.0,0.0,0.0,0.0,0.0,0.0,0.0,0.0,0.0,0.0,0.0,0.0,0.0,0.0,0.0,0.0,0.0,0.0,0.0,0.0,0.0,0.0,0.0,0.0,0.0,0.0,0.0,0.0,0.0,0.0,0.0,0.0,0.0,0.0,0.0,0.0,0.0,0.0,0.0,0.0,0.0,0.0,0.0,0.0,0.0,0.0,0.0,-1.5529,-1.7458,-1.9382,-1.9542,-1.7812,-1.6794,-1.5272,0.0,0.0,0.0,0.0,0.0,0.0,0.0,0.0,0.0,0.0,0.0,0.0,0.0,0.0,0.0,0.0,0.0,0.0,0.0,0.0,0.0,0.0,0.0,0.0,0.0,0.0,0.0,0.0,0.0,0.0,0.0,0.0,0.0,0.0,0.0,0.0,0.0,0.0,0.0,0.0,0.0,0.0,0.0,0.0,0.0,0.0,0.0,0.0,0.0,0.0,0.0,0.0,0.0,0.0,0.0,0.0,0.0,0.0,0.0,0.0,0.0,0.0,0.0,0.0,0.0,0.0,0.0,0.0,0.0,0.0,0.0,0.0,0.0,0.0,0.0,0.0,0.0,0.0,0.0,0.0,0.0,0.0,0.0,0.0,0.0,0.0,0.0,0.0,0.0,0.0,0.0,0.0,0.0,0.0,0.0,0.0,0.0,0.0,0.0,0.0,0.0,0.0,0.0,0.0,0.0,0.0,0.0,0.0,-1.685,-1.8374,-2.0447,-2.1443,-2.1162,-1.9285,-1.7417,0.0,0.0,0.0,0.0,0.0,0.0,0.0,0.0,0.0,0.0,0.0,0.0,0.0,0.0,0.0,0.0,0.0,0.0,0.0,0.0,0.0,0.0,0.0,0.0,0.0,0.0,0.0,0.0,0.0,0.0,0.0,0.0,0.0,0.0,0.0,0.0,0.0,0.0,0.0,0.0,0.0,0.0,0.0,0.0,0.0,0.0,0.0,0.0,0.0,0.0,0.0,0.0,0.0,0.0,0.0,0.0,0.0,0.0,0.0,0.0,0.0,0.0,0.0,0.0,0.0,0.0,0.0,0.0,0.0,0.0,0.0,0.0,0.0,0.0,0.0,0.0,0.0,0.0,0.0,0.0,0.0,0.0,0.0,0.0,0.0,0.0,0.0,0.0,0.0,0.0,0.0,0.0,0.0,0.0,0.0,0.0,0.0,0.0,0.0,0.0,0.0,0.0,0.0,0.0,0.0,0.0,0.0,0.0,-1.7442,-1.9526,-2.0903,-2.163,-2.1784,-2.0321,-1.8437,0.0,0.0,0.0,0.0,0.0,0.0,0.0,0.0,0.0,0.0,0.0,0.0,0.0,0.0,0.0,0.0,0.0,0.0,0.0,0.0,0.0,0.0,0.0,0.0,0.0,0.0,0.0,0.0,0.0,0.0,0.0,0.0,0.0,0.0,0.0,0.0,0.0,0.0,0.0,0.0,0.0,0.0,0.0,0.0,0.0,0.0,0.0,0.0,-1.0073,0.0,0.0,0.0,0.0,0.0,0.0,0.0,0.0,0.0,0.0,0.0,0.0,0.0,0.0,0.0,0.0,0.0,0.0,0.0,0.0,0.0,0.0,0.0,0.0,0.0,0.0,0.0,0.0,0.0,0.0,0.0,0.0,0.0,0.0,0.0,0.0,0.0,0.0,0.0,0.0,0.0,0.0,0.0,0.0,0.0,0.0,0.0,0.0,0.0,0.0,0.0,0.0,0.0,0.0,0.0,0.0,0.0,0.0,0.0,-1.7896,-1.9804,-2.083,-2.155,-2.1911,-2.0819,-1.9435,0.0,0.0,0.0,0.0,0.0,0.0,0.0,0.0,0.0,0.0,0.0,0.0,0.0,0.0,0.0,0.0,0.0,0.0,0.0,0.0,0.0,0.0,0.0,0.0,0.0,0.0,0.0,0.0,0.0,0.0,0.0,0.0,0.0,0.0,0.0,0.0,0.0,0.0,0.0,0.0,0.0,0.0,0.0,0.0,0.0,0.0,0.0,0.0,0.0,0.0,0.0,0.0,0.0,0.0,0.0,0.0,0.0,0.0,0.0,0.0,0.0,0.0,0.0,0.0,0.0,0.0,0.0,0.0,0.0,0.0,0.0,0.0,0.0,0.0,0.0,0.0,0.0,0.0,0.0,0.0,0.0,0.0,0.0,0.0,0.0,0.0,0.0,0.0,0.0,0.0,0.0,0.0,0.0,0.0,0.0,0.0,0.0,0.0,0.0,0.0,0.0,0.0,0.0,0.0,0.0,0.0,0.0,-1.6516,-1.8125,-1.9784,-2.0637,-2.1303,-2.1941,-2.1175,-2.0117,-1.8812,0.0,0.0,0.0,0.0,0.0,0.0,0.0,0.0,0.0,0.0,0.0,0.0,0.0,0.0,0.0,0.0,0.0,0.0,0.0,0.0,0.0,0.0,0.0,0.0,0.0,0.0,0.0,0.0,0.0,0.0,0.0,0.0,0.0,0.0,0.0,0.0,0.0,0.0,-0.5755,-0.723,0.0,0.0,0.0,0.0,0.0,0.0,0.0,0.0,-1.2029,0.0,0.0,0.0,0.0,0.0,0.0,0.0,0.0,0.0,0.0,0.0,0.0,0.0,0.0,0.0,0.0,0.0,0.0,0.0,0.0,0.0,0.0,0.0,0.0,0.0,0.0,0.0,0.0,0.0,0.0,0.0,0.0,0.0,0.0,0.0,0.0,0.0,0.0,0.0,0.0,0.0,0.0,0.0,0.0,0.0,0.0,0.0,0.0,0.0,0.0,0.0,0.0,0.0,0.0,0.0,0.0,-1.5778,-1.671,-1.8118,-2.0059,-2.0568,-2.1034,-2.1597,-2.1081,-2.0233,-1.912,0.0,0.0,0.0,0.0,0.0,0.0,0.0,0.0,0.0,0.0,0.0,0.0,0.0,0.0,0.0,0.0,0.0,0.0,0.0,0.0,0.0,0.0,0.0,0.0,0.0,0.0,0.0,0.0,0.0,0.0,0.0,0.0,0.0,0.0,0.0,0.0,0.0,0.0,0.0,-0.9005,-1.0191,0.0,0.0,0.0,0.0,0.0,0.0,0.0,0.0,-1.3078,0.0,0.0,0.0,0.0,0.0,0.0,0.0,0.0,0.0,0.0,0.0,0.0,0.0,0.0,0.0,0.0,0.0,0.0,0.0,0.0,0.0,0.0,0.0,0.0,0.0,0.0,0.0,0.0,0.0,0.0,0.0,0.0,0.0,0.0,0.0,0.0,0.0,0.0,0.0,0.0,0.0,0.0,0.0,0.0,0.0,0.0,0.0,0.0,0.0,0.0,0.0,0.0,0.0,0.0,0.0,-1.6308,-1.7015,-1.837,-2.041,-2.0509,-2.0841,-2.16,-2.0998,-2.0245,0.0,0.0,0.0,0.0,0.0,0.0,0.0,0.0,0.0,0.0,0.0,0.0,0.0,0.0,0.0,0.0,0.0,0.0,0.0,0.0,0.0,0.0,0.0,0.0,0.0,0.0,0.0,0.0,0.0,0.0,0.0,0.0,0.0,0.0,0.0,0.0,0.0,0.0,0.0,0.0,-1.0616,-1.195,-1.3292,0.0,0.0,0.0,0.0,0.0,0.0,-1.4746,-1.4339,0.0,0.0,0.0,0.0,0.0,0.0,0.0,0.0,0.0,0.0,0.0,0.0,0.0,0.0,0.0,0.0,0.0,0.0,0.0,0.0,0.0,0.0,0.0,0.0,0.0,0.0,0.0,0.0,0.0,0.0,0.0,0.0,0.0,0.0,0.0,0.0,0.0,0.0,0.0,0.0,0.0,0.0,0.0,0.0,0.0,0.0,0.0,0.0,0.0,0.0,0.0,0.0,0.0,0.0,0.0,-1.6745,-1.7468,-1.8782,-2.0706,-2.0669,-2.1053,-2.1802,-2.1072,-2.0229,0.0,0.0,0.0,0.0,0.0,0.0,0.0,0.0,0.0,0.0,0.0,0.0,0.0,0.0,0.0,0.0,0.0,0.0,0.0,0.0,0.0,0.0,0.0,0.0,0.0,0.0,0.0,0.0,0.0,0.0,0.0,0.0,0.0,0.0,0.0,0.0,0.0,0.0,0.0,0.0,0.0,-1.3655,-1.5035,-1.536,0.0,0.0,0.0,0.0,-1.5935,-1.6004,0.0,0.0,0.0,0.0,0.0,0.0,0.0,0.0,0.0,0.0,0.0,0.0,0.0,0.0,0.0,0.0,0.0,0.0,0.0,0.0,0.0,0.0,0.0,0.0,0.0,0.0,0.0,0.0,0.0,0.0,0.0,0.0,0.0,0.0,0.0,0.0,0.0,0.0,0.0,0.0,0.0,0.0,0.0,0.0,0.0,0.0,0.0,0.0,0.0,0.0,0.0,0.0,0.0,0.0,0.0,0.0,-1.723,-1.7981,-1.9234,-2.1003,-2.1587,-2.2004,-2.2329,-2.1734,-2.0732,0.0,0.0,0.0,0.0,0.0,0.0,0.0,0.0,0.0,0.0,0.0,0.0,0.0,0.0,0.0,0.0,0.0,0.0,0.0,0.0,0.0,0.0,0.0,0.0,0.0,0.0,0.0,0.0,0.0,0.0,0.0,0.0,0.0,0.0,0.0,0.0,0.0,0.0,0.0,0.0,0.0,-1.4971,-1.6718,-1.7218,-1.7401,0.0,0.0,-1.7619,-1.7449,-1.7698,0.0,0.0,0.0,0.0,0.0,0.0,0.0,0.0,0.0,0.0,0.0,0.0,0.0,0.0,0.0,0.0,0.0,0.0,0.0,0.0,0.0,0.0,0.0,0.0,0.0,0.0,0.0,0.0,0.0,0.0,0.0,0.0,0.0,0.0,0.0,0.0,0.0,0.0,0.0,0.0,0.0,0.0,0.0,0.0,0.0,0.0,0.0,0.0,0.0,0.0,0.0,0.0,0.0,0.0,0.0,-1.4979,-1.7359,-1.8189,-1.9455,-2.1269,-2.1478,-2.1888,-2.263,-2.1544,-2.0591,0.0,0.0,0.0,0.0,0.0,0.0,0.0,0.0,0.0,0.0,0.0,0.0,0.0,0.0,0.0,0.0,0.0,0.0,0.0,0.0,0.0,0.0,0.0,0.0,0.0,0.0,0.0,0.0,0.0,0.0,0.0,0.0,0.0,0.0,0.0,0.0,0.0,0.0,0.0,0.0,0.0,0.0,-1.7272,-1.8157,0.0,0.0,0.0,-1.8478,-1.8351,0.0,0.0,0.0,0.0,0.0,0.0,0.0,0.0,0.0,0.0,0.0,0.0,0.0,0.0,0.0,0.0,0.0,0.0,0.0,0.0,0.0,0.0,0.0,0.0,0.0,0.0,0.0,0.0,0.0,0.0,0.0,0.0,0.0,0.0,0.0,0.0,0.0,0.0,0.0,0.0,0.0,0.0,0.0,0.0,0.0,0.0,0.0,0.0,0.0,0.0,0.0,0.0,0.0,0.0,0.0,0.0,0.0,-1.7633,-1.86,-1.993,-2.1676,-2.1687,-2.2025,-2.2878,-2.1818,0.0,0.0,0.0,0.0,0.0,0.0,0.0,0.0,0.0,0.0,0.0,0.0,0.0,0.0,0.0,0.0,0.0,0.0,0.0,0.0,0.0,0.0,0.0,0.0,0.0,0.0,0.0,-0.8896,0.0,0.0,0.0,0.0,0.0,0.0,0.0,0.0,0.0,0.0,0.0,0.0,0.0,0.0,-1.7062,-1.7929,-1.8971,-1.9686,0.0,0.0,-1.9364,-1.9269,-1.9626,-1.945,0.0,0.0,0.0,0.0,0.0,0.0,0.0,0.0,0.0,0.0,0.0,0.0,0.0,0.0,0.0,0.0,0.0,0.0,0.0,0.0,0.0,0.0,0.0,0.0,0.0,0.0,0.0,0.0,0.0,0.0,0.0,0.0,0.0,0.0,0.0,0.0,0.0,0.0,0.0,0.0,0.0,0.0,0.0,0.0,0.0,0.0,0.0,0.0,0.0,0.0,0.0,0.0,0.0,0.0,0.0,-1.8342,-1.947,-2.0734,-2.2199,-2.2975,-2.3406,-2.3462,-2.2889,-2.1944,0.0,0.0,0.0,0.0,0.0,0.0,0.0,0.0,0.0,0.0,0.0,0.0,0.0,0.0,0.0,0.0,0.0,0.0,0.0,0.0,0.0,0.0,0.0,0.0,0.0,0.0,0.0,0.0,0.0,0.0,0.0,0.0,0.0,0.0,0.0,0.0,0.0,0.0,0.0,0.0,0.0,-1.7625,-1.8716,-1.9664,-2.042,0.0,0.0,-2.061,-2.0491,-2.097,-2.0841,-1.9223,0.0,0.0,0.0,0.0,0.0,0.0,0.0,0.0,0.0,0.0,0.0,0.0,0.0,0.0,0.0,0.0,0.0,0.0,0.0,0.0,0.0,0.0,0.0,0.0,0.0,0.0,0.0,0.0,0.0,0.0,0.0,0.0,0.0,0.0,0.0,0.0,0.0,0.0,0.0,0.0,0.0,0.0,0.0,0.0,0.0,0.0,0.0,0.0,0.0,0.0,0.0,0.0,0.0,-1.6784,-1.8696,-1.9742,-2.0816,-2.2112,-2.2492,-2.2903,-2.3476,-2.2865,-2.224,0.0,0.0,0.0,0.0,0.0,0.0,0.0,0.0,0.0,0.0,0.0,0.0,0.0,0.0,0.0,0.0,0.0,0.0,0.0,0.0,0.0,0.0,0.0,0.0,0.0,0.0,0.0,0.0,-1.225,-1.2435,-1.2104,0.0,0.0,0.0,0.0,0.0,0.0,0.0,0.0,0.0,0.0,-1.7956,-1.9106,-1.9917,0.0,0.0,-2.0685,-2.0567,-2.0554,-2.0814,-2.0732,-1.9756,-1.9099,0.0,0.0,0.0,0.0,0.0,0.0,0.0,0.0,0.0,0.0,0.0,0.0,0.0,0.0,0.0,0.0,0.0,0.0,0.0,0.0,0.0,0.0,0.0,0.0,0.0,0.0,0.0,0.0,0.0,0.0,0.0,0.0,0.0,0.0,0.0,0.0,0.0,0.0,0.0,0.0,0.0,0.0,0.0,0.0,0.0,0.0,0.0,0.0,0.0,0.0,0.0,0.0,-1.7439,-1.8988,-1.9908,-2.0917,-2.2114,-2.2333,-2.2736,-2.3338,-2.2974,-2.2494,0.0,0.0,0.0,0.0,0.0,0.0,0.0,0.0,0.0,0.0,0.0,0.0,0.0,0.0,0.0,0.0,0.0,0.0,0.0,0.0,0.0,0.0,0.0,0.0,0.0,0.0,0.0,0.0,-1.3278,-1.329,-1.2641,0.0,0.0,0.0,0.0,0.0,0.0,0.0,0.0,0.0,0.0,-1.8398,-1.9333,-2.0153,-2.0655,-2.0854,-2.0803,-2.0716,-2.0916,-2.1076,-2.0931,-2.0426,0.0,0.0,0.0,0.0,0.0,0.0,0.0,0.0,0.0,0.0,0.0,0.0,0.0,0.0,0.0,0.0,0.0,0.0,0.0,0.0,0.0,0.0,0.0,0.0,0.0,0.0,0.0,0.0,0.0,0.0,0.0,0.0,0.0,0.0,0.0,0.0,0.0,0.0,0.0,0.0,0.0,0.0,0.0,0.0,0.0,0.0,0.0,0.0,0.0,0.0,0.0,0.0,0.0,-1.7684,-1.9171,-2.0194,-2.1105,-2.2097,-2.2937,-2.3356,-2.3438,-2.3465,-2.3067,-2.2337,0.0,0.0,0.0,0.0,0.0,0.0,0.0,0.0,0.0,0.0,0.0,0.0,0.0,0.0,0.0,0.0,0.0,0.0,0.0,0.0,0.0,0.0,0.0,0.0,0.0,0.0,-1.3353,-1.3506,-1.3433,0.0,0.0,0.0,0.0,0.0,0.0,0.0,0.0,0.0,0.0,-1.7782,-1.9038,-1.9659,-2.0173,-2.0826,-2.1356,-2.1215,-2.1207,-2.174,-2.1844,-2.1721,0.0,0.0,0.0,0.0,0.0,0.0,0.0,0.0,0.0,0.0,0.0,0.0,0.0,0.0,0.0,0.0,0.0,0.0,0.0,0.0,0.0,0.0,0.0,0.0,0.0,0.0,0.0,-1.3907,-1.3906,0.0,0.0,0.0,0.0,0.0,0.0,0.0,0.0,0.0,0.0,0.0,-1.7485,-1.7168,0.0,0.0,0.0,0.0,0.0,0.0,0.0,0.0,0.0,0.0,0.0,0.0,-1.8274,-1.9654,-2.0392,-2.1301,-2.261,-2.3138,-2.3538,-2.3836,-2.3651,-2.3033,-2.224,0.0,0.0,0.0,0.0,0.0,0.0,0.0,0.0,0.0,0.0,0.0,0.0,0.0,0.0,0.0,0.0,0.0,0.0,0.0,0.0,0.0,0.0,0.0,0.0,0.0,-1.3857,0.0,0.0,0.0,0.0,0.0,0.0,0.0,0.0,0.0,0.0,0.0,-1.6334,-1.7547,-1.8607,-1.9487,-2.0446,-2.0711,-2.0961,0.0,0.0,0.0,0.0,0.0,0.0,0.0,0.0,0.0,0.0,0.0,0.0,0.0,0.0,-1.6573,-1.5715,-1.595,-1.6274,-1.6353,0.0,0.0,0.0,0.0,0.0,0.0,0.0,0.0,0.0,0.0,0.0,0.0,0.0,0.0,0.0,0.0,-1.5425,0.0,0.0,0.0,0.0,0.0,0.0,0.0,0.0,-1.8126,-1.8373,-1.8365,-1.8133,-1.7792,0.0,-1.7482,-1.6962,0.0,0.0,0.0,0.0,0.0,0.0,0.0,0.0,-1.8717,-2.0104,-2.064,-2.1595,-2.2902,-2.3338,-2.3628,-2.4125,-2.3943,-2.3485,-2.2815,-2.1561,-2.0514,0.0,0.0,0.0,0.0,0.0,0.0,0.0,0.0,0.0,0.0,0.0,0.0,0.0,0.0,0.0,0.0,0.0,0.0,0.0,0.0,0.0,0.0,0.0,-1.4973,0.0,0.0,0.0,0.0,0.0,0.0,0.0,0.0,0.0,-1.5412,-1.6507,-1.7681,-1.8699,-1.9438,-2.0178,-2.1026,0.0,0.0,0.0,0.0,0.0,0.0,0.0,-2.1786,-2.1894,-2.188,-2.1679,-2.112,-2.0264,-1.9735,-1.986,0.0,0.0,-1.7491,-1.7598,-1.7938,-1.8012,-1.826,-1.8508,-1.8516,-1.8672,-1.8754,0.0,0.0,0.0,0.0,0.0,0.0,0.0,0.0,-1.5799,-1.6075,0.0,-1.6329,0.0,0.0,0.0,0.0,0.0,0.0,0.0,0.0,-1.9581,-1.9519,-1.8915,-1.8891,-1.8867,-1.8883,-1.9193,-1.8994,-1.8295,-1.721,0.0,0.0,0.0,0.0,0.0,0.0,-1.8953,-2.0441,-2.087,-2.171,-2.302,-2.3438,-2.3827,-2.4097,-2.4216,-2.4174,-2.3913,-2.2999,-2.1835,-2.038,-1.8924,0.0,0.0,0.0,0.0,0.0,0.0,0.0,0.0,0.0,0.0,0.0,0.0,0.0,0.0,0.0,0.0,0.0,0.0,0.0,0.0,-1.5607,0.0,0.0,0.0,0.0,0.0,0.0,0.0,0.0,0.0,0.0,-1.7435,-1.826,-1.9018,-1.9645,0.0,0.0,0.0,0.0,-2.1725,-2.1733,-2.1725,-2.1827,-2.203,-2.2123,-2.2224,-2.2535,0.0,0.0,-2.203,-2.1362,-2.1006,-2.1338,-2.132,-2.0838,-1.9212,-1.9084,-1.929,-1.9453,-1.9709,-1.9965,-1.9965,-1.9956,-1.9965,-1.5252,0.0,0.0,0.0,0.0,-1.5246,-1.5937,-1.6706,-1.7539,-1.787,-1.7789,-1.8308,0.0,0.0,0.0,0.0,0.0,0.0,-1.9192,-1.9613,-1.9812,-1.9892,-1.9948,-1.9948,-1.9812,-1.9574,-1.9669,-1.9495,-1.909,-1.9004,-1.8403,-1.7202,0.0,0.0,0.0,0.0,-1.9621,-2.0466,-2.1289,-2.2244,-2.3238,-2.3728,-2.4095,-2.4206,-2.4363,-2.4127,-2.3611,-2.2882,-2.2155,-2.1442,-1.982,0.0,0.0,0.0,0.0,0.0,0.0,0.0,0.0,0.0,0.0,0.0,0.0,0.0,0.0,0.0,0.0,0.0,0.0,0.0,-1.5579,-1.6207,-1.6345,0.0,0.0,0.0,0.0,0.0,0.0,0.0,0.0,0.0,-1.9074,-1.9423,-1.9984,0.0,0.0,-2.142,-2.203,-2.1725,-2.1522,-2.1615,0.0,0.0,0.0,-2.2333,-2.2837,-2.3338,-2.3206,-2.2691,-2.1741,-2.1552,-2.155,-2.1338,-2.1436,-2.1441,-2.0976,-2.0902,-2.0898,-2.066,-2.0766,-2.0952,-2.0961,-2.104,-2.1119,-1.671,-1.6091,-1.4981,-1.5028,-1.603,-1.6441,-1.7181,-1.803,-1.8824,-1.914,-1.9174,-1.9544,-1.9419,-1.9065,-1.9047,0.0,0.0,0.0,-1.9779,-2.0075,-2.0075,-2.0114,-2.0178,-2.0178,-2.0075,-1.9876,-2.0011,-1.99,-1.9566,-1.9908,-1.9479,-1.8327,0.0,0.0,-1.8414,-1.9224,-2.0155,-2.1198,-2.1836,-2.2652,-2.3538,-2.3987,-2.4281,-2.4431,-2.4378,-2.4205,-2.3851,-2.329,-2.2744,-2.2148,-2.0635,-1.9394,0.0,0.0,0.0,0.0,0.0,0.0,0.0,0.0,0.0,0.0,0.0,-1.4771,-1.4586,0.0,0.0,0.0,-1.6351,-1.6703,-1.7229,-1.7557,0.0,0.0,0.0,0.0,0.0,0.0,0.0,-1.8959,-1.9612,-2.0277,-2.1013,-2.1069,-2.1292,-2.1799,-2.1685,-2.1835,-2.2577,0.0,-2.1669,-2.2013,-2.203,-2.208,-2.2221,-2.2472,-2.2877,-2.3035,-2.2695,-2.2366,-2.1835,-2.1561,-2.1491,-2.1697,-2.1599,-2.1577,-2.1749,-2.2045,-2.2145,-2.1596,-2.1472,-2.1482,-2.1482,-2.1651,-2.1731,-1.812,-1.83,-1.6381,-1.6231,-1.7363,-1.7823,-1.8431,-1.9327,-1.9723,-2.0032,-2.0308,-2.0098,-2.0114,-2.0369,-2.0051,0.0,0.0,-2.0392,-2.0384,-2.0392,-2.0392,-2.0226,-1.9916,-1.994,-1.9948,-1.9963,-2.0273,-2.0273,-1.9979,-2.0273,-2.0257,-1.9892,-1.9272,-1.9209,-1.9645,-1.967,-2.0653,-2.2362,-2.2414,-2.2885,-2.3791,-2.41,-2.4374,-2.4564,-2.4384,-2.4307,-2.4297,-2.3867,-2.3252,-2.2422,-2.123,-2.0166,-1.9307,0.0,0.0,0.0,0.0,0.0,0.0,0.0,0.0,0.0,0.0,0.0,0.0,0.0,0.0,0.0,-1.8395,0.0,-1.9562,-1.935,0.0,0.0,0.0,-1.8824,-1.8972,-1.9354,-1.9907,-2.0571,0.0,0.0,0.0,0.0,-2.2859,-2.229,-2.2209,-2.2378,-2.2937,-2.2549,-2.2304,-2.2624,-2.2719,-2.2798,-2.3028,-2.2853,-2.2665,-2.2451,-2.1759,-2.1832,-2.2115,-2.1595,-2.1491,-2.2347,-2.1932,-2.1422,-2.1889,-2.2575,-2.2918,-2.2155,-2.1863,-2.1731,-2.1756,-2.1649,-2.163,-1.8514,-1.893,-1.7563,-1.729,-1.7823,-1.817,-1.8401,-1.8716,-1.96,-2.0092,-2.0161,-2.0499,-2.0567,-2.0384,-2.0305,-2.0313,-2.0392,-2.0392,-2.0392,-2.0392,-2.0392,-2.0345,-2.0281,-2.0543,-2.067,-2.0678,-2.0758,-2.075,-2.0678,-2.075,-2.0615,-2.0281,-2.0287,-2.0273,-2.0134,-2.0782,-2.1421,-2.2059,-2.2758,-2.3305,-2.3587,-2.3776,-2.3852,-2.3918,-2.3567,-2.3447,-2.3457,-2.2744,-2.209,-2.1553,-2.0918,-2.0176,-1.9336,-1.8594,0.0,0.0,0.0,0.0,0.0,0.0,0.0,0.0,0.0,-1.7324,-1.7599,0.0,-1.8754,0.0,-1.9879,-2.0082,-1.9936,-2.012,0.0,0.0,-2.0537,-2.0673,-2.0673,-2.1043,-2.1384,-2.1578,-2.1967,-2.2262,-2.2399,-2.3076,-2.3496,-2.3171,-2.3174,-2.3327,-2.3598,-2.35,-2.3432,-2.3444,-2.3797,-2.395,-2.3616,-2.3928,-2.3721,-2.2728,-2.3047,-2.3229,-2.2441,-2.2332,-2.2308,-2.2257,-2.2264,-2.2229,-2.231,-2.2291,-2.2105,-2.202,-2.2073,-2.2161,-2.1851,-2.1516,-2.1172,-1.8391,-1.8796,-1.7831,-1.7721,-1.8217,-1.83,-1.8442,-1.864,-1.9605,-2.0162,-2.03,-2.0947,-2.0956,-2.0631,-2.0631,-2.0623,-2.0631,-2.0631,-2.0631,-2.0631,-2.0623,-2.0623,-2.0631,-2.0829,-2.0925,-2.0925,-2.0925,-2.0925,-2.0925,-2.0925,-2.0821,-2.0631,-2.0672,-2.0702,-2.0729,-2.1303,-2.1875,-2.2417,-2.3231,-2.3737,-2.3901,-2.3824,-2.3615,-2.3572,-2.3046,-2.2773,-2.2598,-2.2129,-2.168,-2.126,-2.0996,-2.0469,-1.9609,-1.8975,-1.8173,0.0,0.0,0.0,0.0,0.0,0.0,0.0,0.0,0.0,0.0,0.0,-1.9992,0.0,-2.0984,0.0,-2.1308,-2.1401,-2.1471,-2.135,-2.173,-2.184,-2.1529,-2.212,-2.2432,-2.216,-2.2521,-2.2862,-2.2978,-2.3473,-2.3886,-2.3907,-2.3998,-2.3906,-2.39,-2.367,-2.3495,-2.3682,-2.3907,-2.3927,-2.3632,-2.3563,-2.3387,-2.2801,-2.264,-2.2572,-2.2168,-2.2034,-2.1949,-2.198,-2.184,-2.1769,-2.1883,-2.2261,-2.2349,-2.2284,-2.2444,-2.2312,-2.1399,-2.1013,-2.0759,-1.8027,-1.8326,-1.7692,-1.7929,-1.845,-1.8369,-1.8372,-1.8644,-1.9545,-2.0246,-2.0634,-2.1168,-2.1211,-2.0925,-2.0925,-2.0925,-2.0925,-2.0925,-2.0925,-2.0925,-2.0925,-2.0925,-2.0925,-2.0925,-2.0925,-2.0925,-2.0925,-2.0925,-2.0925,-2.0877,-2.0853,-2.0845,-2.0504,-2.0627,-2.1048,-2.1337,-2.2034,-2.3046,-2.3546,-2.3998,-2.4272,-2.389,-2.3547,-2.3175,-2.2679,-2.2227,-2.1826,-2.1748,-2.1543,-2.1172,-2.1143,-2.0801,-2.0029,-1.9228,-1.8613,0.0,-1.7422,0.0,0.0,0.0,0.0,0.0,0.0,0.0,0.0,-2.0298,-2.0853,-2.1814,-2.1951,-2.2339,-2.295,-2.2859,-2.2625,-2.2418,-2.2785,-2.2703,-2.2128,-2.2697,-2.3029,-2.2635,-2.2946,-2.335,-2.3712,-2.3836,-2.4043,-2.4279,-2.4454,-2.439,-2.4137,-2.367,-2.3501,-2.3734,-2.3689,-2.3866,-2.3634,-2.3003,-2.2583,-2.2562,-2.2028,-2.1366,-2.1994,-2.1561,-2.1306,-2.1701,-2.1527,-2.1138,-2.1282,-2.2244,-2.2705,-2.2352,-2.2429,-2.2225,-2.1119,-2.0642,-2.0484,-1.775,-1.8059,-1.7609,-1.7922,-1.8437,-1.7949,-1.7759,-1.7921,-1.893,-1.9925,-2.0814,-2.0917,-2.0988,-2.0925,-2.0925,-2.0925,-2.0925,-2.0925,-2.0925,-2.0925,-2.0925,-2.0925,-2.0925,-2.0925,-2.0925,-2.0925,-2.0925,-2.0925,-2.0917,-2.0631,-2.0496,-2.048,-2.0351,-2.0378,-2.0484,0.0,0.0,0.0,-2.3646,-2.3644,-2.3208,-2.3514,-2.3189,-2.2187,-2.2022,0.0,-2.1377,-2.1006,-2.0771,-2.0693,-2.0693,0.0,0.0,0.0,0.0,0.0,0.0,0.0,0.0,0.0,0.0,0.0,-2.0006,-2.0642,-2.132,-2.1723,-2.2368,-2.3256,-2.3118,-2.3071,-2.3604,-2.3587,-2.3556,-2.3471,-2.3465,-2.3343,-2.3186,-2.3161,-2.3143,-2.308,-2.3132,-2.3215,-2.3308,-2.3639,-2.3898,-2.4002,-2.4312,-2.4464,-2.4364,-2.4496,-2.4781,-2.4893,-2.4654,-2.4644,-2.4325,-2.3825,-2.3237,-2.3144,-2.2982,-2.2744,-2.2801,-2.2463,-2.2189,-2.2325,-2.1979,-2.1655,-2.1655,-2.1665,-2.1703,-2.1457,-2.1303,-2.1211,-2.1564,-2.1015,-2.0328,-1.7479,0.0,-1.7388,-1.7721,0.0,-1.7776,-1.7589,-1.7687,-1.8534,-1.9368,-2.0094,-2.0403,-2.0498,-2.0498,-2.0814,-2.0925,-2.0925,-2.0925,-2.0925,-2.0925,-2.0925,-2.0925,-2.0925,-2.0925,-2.0925,-2.0925,-2.0925,-2.0829,-2.0655,-2.048,-2.0305,-2.013,-1.999,-1.9918,-2.0006,-2.0674,-2.1717,-2.3063,-2.326,-2.3365,-2.3558,-2.3636,-2.3205,-2.2226,0.0,0.0,0.0,0.0,0.0,0.0,0.0,0.0,0.0,0.0,0.0,-1.9326,-1.9072,-1.8955,-1.9078,-1.9419,-1.9928,-2.0524,-2.1334,-2.1908,-2.2013,-2.2422,-2.2994,-2.3684,-2.3466,-2.3463,-2.3924,-2.3817,-2.3732,-2.3519,-2.3599,-2.3509,-2.3108,-2.3313,-2.3228,-2.2772,-2.2866,-2.3002,-2.2842,-2.3029,-2.3287,-2.3515,-2.3919,-2.4146,-2.3971,-2.426,-2.4488,-2.4271,-2.4229,-2.4134,-2.3903,-2.3505,-2.3124,-2.2889,-2.2642,-2.2542,-2.2501,-2.2315,-2.2159,-2.2139,-2.1952,-2.1807,-2.1752,-2.1686,-2.1537,-2.1557,-2.1382,-2.1201,-2.126,-2.0718,-2.0068,-1.7252,-1.7395,-1.7211,-1.7546,-1.8023,-1.7709,-1.7589,-1.7687,0.0,0.0,0.0,-1.9776,-1.9975,-2.0181,-2.0609,-2.0814,-2.0925,-2.0925,-2.0925,-2.0925,-2.0925,-2.0925,-2.0925,-2.0925,-2.0925,-2.0925,-2.0861,-2.0678,-2.0392,-2.0281,-2.0067,-1.9773,-1.9439,-1.9461,-1.9727,-2.039,-2.1431,-2.2734,-2.2841,-2.3257,-2.4125,-2.3834,-2.3334,-2.2485,-2.2217,-2.1582,-2.0723,-2.0684,-2.0644,-2.0576,-2.0576,-2.04,-2.0059,-2.0029,-1.9873,-1.9551,-1.9512,-1.9658,-2.0,-2.0397,-2.1008,-2.1852,-2.2478,-2.2807,-2.2575,-2.2837,-2.3241,-2.3809,-2.3633,-2.3587,-2.3975,-2.3859,-2.3588,-2.3118,-2.3417,-2.3243,-2.2648,-2.3062,-2.3165,-2.2376,-2.2457,-2.26,-2.2455,-2.2563,-2.2697,-2.306,-2.3557,-2.366,-2.3267,-2.3494,-2.3691,-2.3391,-2.3381,-2.3256,-2.3153,-2.2863,-2.2522,-2.2563,-2.2159,-2.1828,-2.1807,-2.1807,-2.1807,-2.1849,-2.1807,-2.1807,-2.1828,-2.169,-2.1738,-2.1758,-2.1629,-2.1351,-2.07,-2.0197,-1.9822,-1.7141,-1.7142,-1.7331,-1.7611,-1.8023,-1.7716,-1.7589,-1.7667,-1.7943,-1.8494,-1.9272,-1.9376,-1.968,-2.0086,-2.0189,-2.0498,-2.0925,-2.0925,-2.0925,0.0,-2.0925,-2.0925,-2.0925,-2.0925,-2.0925,-2.0901,-2.0615,-2.044,-2.0337,-1.9805,-1.9487,-1.9407,-1.9082,-1.9184,-1.982,-2.0012,-2.0922,-2.2618,-2.2892,-2.3247,-2.3634,-2.3636,-2.3284,-2.2482,-2.238,-2.2021,-2.1182,-2.1143,-2.0957,-2.0586,-2.0576,-2.0527,-2.0478,-2.0469,-2.0449,-2.0391,-2.0381,-2.041,-2.0546,-2.0864,-2.1441,-2.2241,-2.2402,-2.2767,-2.3417,-2.3198,-2.3383,-2.4246,-2.3874,-2.3678,-2.3754,-2.3754,-2.3492,-2.3058,-2.294,-2.2757,-2.2628,-2.2692,-2.2615,-2.2359,-2.2218,-2.2227,-2.2224,-2.271,-2.2842,-2.2791,-2.3184,-2.3525,-2.2915,-2.2987,-2.3225,-2.3205,-2.3194,-2.3194,-2.3039,-2.2791,-2.249,-2.2501,-2.2097,-2.1807,-2.1807,-2.1766,-2.1776,-2.1807,-2.1745,-2.1745,-2.1766,-2.1225,-2.1013,-2.1091,-2.0713,-2.0153,-1.9989,-1.9923,-1.9835,-1.7295,-1.7496,-1.7325,-1.7508,-1.8023,-1.7709,-1.7589,-1.7575,-1.7762,-1.7984,-1.8422,-1.8639,-1.8945,-1.925,-1.9569,-1.999,-2.0498,-2.0498,-2.0617,-2.0917,-2.0925,-2.0925,-2.0901,-2.0726,-2.0639,-2.0607,-2.0273,-2.0011,-1.982,-1.9511,-1.9272,-1.9082,-1.8999,-1.9379,-2.011,-2.0292,-2.1016,-2.224,-2.2627,-2.3126,-2.3721,-2.3739,-2.3404,-2.2646,-2.2572,-2.2109,-2.1279,-2.124,-2.1025,-2.0576,-2.0576,-2.0576,-2.0576,-2.0576,-2.0576,-2.0576,-2.0576,-2.0576,-2.0576,-2.1195,-2.1807,-2.2327,-2.2628,-2.2864,-2.3318,-2.3132,-2.3198,-2.3635,-2.346,-2.3329,-2.334,-2.334,-2.3241,-2.3034,-2.2916,-2.2852,-2.2852,-2.2777,-2.2703,-2.2553,-2.2478,-2.2402,-2.2252,-2.2478,-2.2533,-2.2345,-2.2631,-2.2656,-2.249,-2.2439,-2.2449,-2.2439,-2.2428,-2.2428,-2.2428,-2.2273,-2.2139,-2.2118,-2.1952,-2.1818,-2.1787,-2.1631,-2.1549,-2.1704,-2.1445,-2.1207,-2.1362,-2.0547,-2.0212,-2.0257,-1.9798,-1.9336,-1.9355,-1.9507,-1.9676,-1.7486,-1.785,-1.7433,-1.7624,-1.7908,-1.7716,-1.7589,-1.7589,-1.7582,-1.7589,-1.7687,-1.7996,-1.8311,-1.8429,-1.8848,-1.9368,-1.9879,-1.9879,-2.0197,-2.0712,-2.0712,-2.0814,-2.0885,-2.0559,-2.0392,-2.0337,-1.9963,-1.9614,-1.9391,-1.9296,-1.9113,-1.8851,-1.9104,-1.9554,-2.0201,-2.0564,-2.111,-2.1969,-2.236,-2.2948,-2.3799,-2.3739,-2.349,-2.3041,-2.2756,-2.2305,-2.1582,-2.1523,-2.1269,-2.0762,-2.0713,-2.0684,-2.0576,-2.0576,-2.0576,-2.0576,-2.0576,-2.0644,-2.0867,-2.1415,-2.2025,-2.2478,-2.2852,-2.3001,-2.3001,-2.3001,-2.3001,-2.3001,-2.3034,-2.3012,-2.3023,-2.3023,-2.3001,-2.3001,-2.3001,-2.3001,-2.3001,-2.3001,-2.2916,-2.2777,-2.2777,-2.2628,-2.2499,-2.2347,-2.2387,-2.2342,-2.2032,-2.205,-2.2221,-2.2014,-2.1828,-2.1787,-2.1725,-2.1673,-2.1642,-2.1538,-2.1487,-2.1487,-2.1466,-2.1414,-2.1373,-2.1145,-2.1176,-2.1414,-2.099,-2.0834,-2.103,-2.0286,-1.9782,-1.9929,-1.9432,-1.8797,-1.8796,-1.9134,-1.9478,-1.7542,-1.7569,-1.7812,-1.7974,-1.7908,-1.7709,-1.7589,-1.7589,-1.7589,-1.7589,-1.7582,-1.7687,-1.8003,-1.8318,-1.8422,-1.884,-1.9376,-1.9376,-1.968,-2.0086,-2.0189,-2.0395,-2.0767,-2.0551,-2.0392,-2.0289,-1.9717,-1.9391,-1.9328,-1.9042,-1.8867,-1.8827,-1.9096,-1.9471,-1.9928,-2.0473,-2.111,-2.196,-2.218,-2.2758,-2.3464,-2.3636,-2.3691,-2.3606,-2.3239,-2.2871,-2.2363,-2.2393,-2.2012,-2.1269,-2.1162,-2.0986,-2.0635,-2.0576,-2.0576,-2.0576,-2.0576,-2.0954,-2.1578,-2.1721,-2.2101,-2.2852,-2.3001,-2.3001,-2.3001,-2.3001,-2.3001,-2.3001,-2.3001,-2.3001,-2.3001,-2.3001,-2.3001,-2.3001,-2.3001,-2.3001,-2.3001,-2.3001,-2.3001,-2.3001,-2.2852,-2.2703,-2.266,-2.2777,-2.2889,-2.2594,-2.2224,-2.198,-2.1987,-2.189,-2.1807,-2.1735,-2.1487,-2.1248,-2.1217,-2.0824,-2.0845,-2.0731,-2.0627,-2.0772,-2.0834,-2.0752,-2.0659,-2.1269,-2.0824,-2.0762,-2.1025,-2.0762,-1.9934,-1.9875,-1.9367,-1.8694,-1.8508,-1.8693,-1.906,-1.7211,-1.7538,-1.7478,-1.7429,-1.7475,-1.743,-1.749,-1.7589,-1.7589,-1.7589,-1.7589,-1.7589,-1.7694,-1.7891,-1.7898,-1.8213,-1.875,-1.8743,-1.9049,-1.9569,-1.9687,-1.9678,-1.9577,-1.9353,-1.9094,-1.8882,-1.8712,-1.8668,-1.8645,-1.8714,-1.892,-1.9004,-1.9188,-1.9554,-2.011,-2.0473,-2.1004,-2.1626,-2.2117,-2.2492,-2.2758,-2.313,-2.3331,-2.3429,-2.3047,-2.2705,-2.251,-2.2285,-2.1982,-2.1631,-2.1377,-2.1152,-2.0977,-2.0713,-2.0576,-2.0576,-2.0576,-2.0954,-2.1731,-2.1807,-2.2187,-2.2927,-2.3001,-2.3001,-2.3001,-2.3001,-2.3001,-2.3001,-2.3001,-2.3001,-2.3001,-2.3001,-2.3001,-2.3001,-2.3001,-2.3001,-2.3001,-2.3001,-2.3001,-2.3001,-2.2916,-2.2852,-2.2874,-2.2875,-2.2766,-2.2461,-2.2195,-2.2122,-2.2035,-2.1959,-2.2025,-2.2048,-2.1787,-2.1565,-2.1617,-2.1543,-2.1365,-2.1365,-2.1312,-2.1238,-2.1135,-2.0959,-2.099,-2.1414,-2.0866,-2.0545,-2.0866,-2.0252,-1.9511,-1.9531,-1.9292,-1.8566,-1.8581,-1.8822,-1.9199,-1.6756,-1.7295,-1.7129,-1.7007,-1.7184,-1.7205,-1.7279,-1.7483,-1.7582,-1.7589,-1.7589,-1.7589,-1.7589,-1.7589,-1.7589,-1.7752,-1.8102,-1.8088,-1.8358,-1.881,-1.8803,-1.8782,-1.8635,-1.8328,-1.8057,-1.7905,-1.7878,-1.79,-1.7893,-1.8365,-1.8727,-1.8996,-1.9188,-1.9654,-2.0292,-2.0645,-2.1024,-2.1419,-2.1943,-2.2162,-2.2253,-2.2616,-2.2934,-2.3233,-2.2689,-2.2425,-2.25,-2.2217,-2.2002,-2.1885,-2.1582,-2.1357,-2.1221,-2.081,-2.0576,-2.0576,-2.0576,-2.0944,-2.1731,-2.1807,-2.2176,-2.2927,-2.3001,-2.3001,-2.3001,-2.3001,-2.3001,-2.3001,-2.3001,-2.3001,-2.3001,-2.3001,-2.3001,-2.3001,-2.3001,-2.3001,-2.3001,-2.3001,-2.3001,-2.3001,-2.3001,-2.2936,-2.2859,-2.2765,-2.2692,-2.2243,-2.2167,-2.2252,-2.2187,-2.2176,-2.2252,-2.2392,-2.2094,-2.1998,-2.1945,-2.1649,-2.1744,-2.1638,-2.1354,-2.1259,-2.1424,-2.1083,-2.1062,-2.1145,-2.0721,-2.0514,-2.0609,-2.0,-1.9143,-1.8864,-1.8705,-1.8516,-1.8269,-1.874,-1.909,-1.6383,-1.6694,-1.6753,-1.6932,-1.722,-1.7177,-1.7179,-1.7279,-1.7483,-1.7589,-1.7589,-1.7589,-1.7589,-1.7582,-1.7569,-1.7533,-1.7304,-1.7291,-1.7456,-1.7617,-1.7589,-1.7853,-1.8419,-1.8103,-1.7845,-1.7669,-1.7486,-1.7326,-1.7419,-1.7893,-1.8265,-1.8434,-1.9104,-1.9754,-2.0292,-2.0736,-2.1105,-2.1401,-2.1607,-2.1876,-2.2054,-2.2143,-2.241,-2.2896,-2.2524,-2.2273,-2.2434,-2.249,-2.2295,-2.1914,-2.1846,-2.1641,-2.1269,-2.081,-2.0576,-2.0576,-2.0576,-2.0954,-2.1645,-2.1731,-2.2111,-2.2852,-2.2927,-2.3001,-2.3001,-2.3001,-2.2927,-2.3001,-2.2927,-2.2927,-2.2872,-2.2979,-2.299,-2.2927,-2.3001,-2.3001,-2.3001,-2.3001,-2.3001,-2.2968,-2.2892,-2.2706,-2.24,-2.2739,-2.2537,-2.225,-2.2338,-2.2606,-2.2402,-2.2402,-2.2402,-2.2478,-2.2478,-2.2381,-2.1587,-2.1534,-2.1052,-2.1011,-2.1167,-2.0721,-2.0545,-2.0514,-2.0814,-2.0979,-2.0824,-2.0668,-2.0498,-2.0036,-1.93,-1.8873,-1.8753,-1.8544,-1.8449,-1.8398,-1.8753,-1.5208,-1.5859,-1.6259,-1.6574,-1.6876,-1.7106,-1.7285,-1.7483,-1.7582,-1.7589,-1.7589,-1.7589,-1.7589,-1.7569,-1.7388,-1.7255,-1.7257,-1.725,-1.7096,-1.7027,-1.7,-1.7004,-1.7023,-1.6898,-1.6739,-1.6661,-1.6732,-1.7052,-1.7326,-1.7512,-1.78,-1.8164,-1.8627,-1.9196,-1.9845,-2.0473,-2.0916,-2.1186,-2.1463,-2.1731,-2.183,-2.183,-2.2082,-2.2354,-2.2303,-2.2389,-2.266,-2.2318,-2.2285,-2.2656,-2.1924,-2.1523,-2.1562,-2.0957,-2.0576,-2.0576,-2.0576,-2.0809,-2.1349,-2.1425,-2.1731,-2.2478,-2.2628,-2.2692,-2.2927,-2.2777,-2.2628,-2.2628,-2.2402,-2.2157,-2.2094,-2.2519,-2.2841,-2.2703,-2.2841,-2.2957,-2.3001,-2.3001,-2.2903,-2.2597,-2.2313,-2.2018,-2.1964,-2.2007,-2.2056,-2.2053,-2.2142,-2.2347,-2.2553,-2.2542,-2.2574,-2.2767,-2.2841,-2.2615,-2.1921,-2.1892,-2.1766,-2.1554,-2.1522,-2.1532,-2.1428,-2.1355,-2.168,-2.1638,-2.1365,-2.0885,-2.0726,-1.9848,-1.9143,-1.8952,-1.8849,-1.8816,-1.8764,-1.8829,-1.9036,-1.4441,-1.5051,-1.5642,-1.5998,-1.6411,-1.6842,-1.7166,-1.7477,-1.7582,-1.7589,-1.7589,-1.7589,-1.7589,-1.7535,-1.7275,-1.7088,-1.7001,-1.6907,-1.6707,-1.644,-1.642,-1.6319,-1.6159,-1.6132,-1.6025,-1.5858,-1.6109,-1.6487,-1.677,-1.6958,-1.7419,-1.7986,-1.8249,-1.8912,-1.9754,-2.0292,-2.0736,-2.1105,-2.1472,-2.1651,-2.1651,-2.1731,-2.1741,-2.1971,-2.2176,-2.2275,-2.2399,-2.2094,-2.2041,-2.2334,-2.1689,-2.1299,-2.1377,-2.0898,-2.0576,-2.0576,-2.0576,-2.0799,-2.1128,-2.1215,-2.1512,-2.2101,-2.2176,-2.2327,-2.2553,-2.2327,-2.2252,-2.2155,-2.1933,-2.1584,-2.1471,-2.2017,-2.2396,-2.2103,-2.2323,-2.2542,-2.2542,-2.2531,-2.239,-2.2116,-2.1843,-2.1581,-2.1407,-2.1516,-2.1577,-2.168,-2.1778,-2.206,-2.2237,-2.2323,-2.2396,-2.2469,-2.2488,-2.2263,-2.1776,-2.1664,-2.1764,-2.1692,-2.1838,-2.2006,-2.2101,-2.2176,-2.2176,-2.2155,-2.1805,-2.1269,-2.0534,-1.9697,-1.9229,-1.9044,-1.8942,-1.8946,-1.9043,-1.9233,-1.9349,-1.4186,-1.4293,-1.4821,-1.525,-1.5779,-1.6411,-1.6955,-1.7279,-1.7463,-1.7535,-1.7522,-1.7542,-1.7482,-1.7468,-1.7174,-1.6947,-1.67,-1.644,-1.6172,-1.5925,-1.5899,-1.5892,-1.5865,-1.5872,-1.5872,-1.5825,-1.5825,-1.5825,-1.592,-1.6487,-1.7052,-1.7692,-1.8149,-1.8996,-2.0201,-2.0292,-2.0663,-2.1203,-2.1392,-2.1562,-2.1651,-2.1731,-2.1741,-2.1731,-2.211,-2.2092,-2.1556,-2.1738,-2.1748,-2.1426,-2.1269,-2.1016,-2.0723,-2.0586,-2.0576,-2.0576,-2.0576,-2.0799,-2.1118,-2.1138,-2.1272,-2.1731,-2.1807,-2.1807,-2.1959,-2.1883,-2.1883,-2.1832,-2.1648,-2.1481,-2.1167,-2.1307,-2.1458,-2.1161,-2.1534,-2.1767,-2.1701,-2.1625,-2.1603,-2.1501,-2.1403,-2.1341,-2.1101,-2.1144,-2.1207,-2.1155,-2.1341,-2.1636,-2.1718,-2.1762,-2.168,-2.168,-2.1822,-2.1773,-2.1501,-2.1344,-2.146,-2.1645,-2.1988,-2.2211,-2.2295,-2.2327,-2.2252,-2.222,-2.1829,-2.1272,-2.0586,-1.9805,-1.9476,-1.9225,-1.9142,-1.9204,-1.9245,-1.9396,-1.941,-1.3532,-1.3635,-1.4385,-1.5143,-1.5779,-1.6199,-1.6836,-1.745,-1.7375,-1.7288,-1.7248,-1.7068,-1.6981,-1.6914,-1.6673,-1.65,-1.6386,-1.6112,-1.5912,-1.5838,-1.5825,-1.5825,-1.5825,-1.5825,-1.5825,-1.5825,-1.5825,-1.5825,-1.592,-1.6305,-1.6864,-1.7419,-1.8064,-1.8996,-2.0019,-2.0382,-2.0843,-2.1302,-2.1571,-2.1651,-2.1731,-2.1731,-2.1731,-2.1704,-2.1914,-2.175,-2.1341,-2.1636,-2.1816,-2.1641,-2.1103,-2.0703,-2.0596,-2.0576,-2.0576,-2.0576,-2.0576,-2.0644,-2.0731,-2.0809,-2.0964,-2.1282,-2.1359,-2.1502,-2.1731,-2.1721,-2.1711,-2.168,-2.1288,-2.0769,-2.0638,-2.0365,-2.0519,-2.0966,-2.1371,-2.1538,-2.1403,-2.1069,-2.0769,-2.0636,-2.0243,-1.9921,-2.0036,-2.0253,-2.0506,-2.0839,-2.0992,-2.1155,-2.1461,-2.1494,-2.1603,-2.1603,-2.157,-2.1374,-2.1141,-2.0982,-2.1129,-2.1349,-2.1768,-2.221,-2.236,-2.2371,-2.2317,-2.2083,-2.1702,-2.1167,-2.0479,-2.0115,-1.9812,-1.9844,-1.997,-1.98,-1.9491,-1.9407,-1.9417,-1.2767,-1.3098,-1.3851,-1.4493,-1.5131,-1.5446,-1.6131,-1.6879,-1.6808,-1.6876,-1.6961,-1.68,-1.6707,-1.6647,-1.64,-1.6279,-1.6239,-1.5965,-1.5825,-1.5825,-1.5825,-1.5825,-1.5825,-1.5825,-1.5825,-1.5825,-1.5825,-1.5825,-1.5825,-1.6116,-1.6581,-1.7044,-1.7785,-1.8619,-1.9646,-2.0283,-2.0843,-2.1302,-2.1562,-2.1651,-2.1651,-2.1731,-2.1731,-2.1695,-2.1933,-2.1693,-2.1286,-2.1636,-2.1728,-2.1387,-2.084,-2.0586,-2.0576,-2.0576,-2.0576,-2.0576,-2.0576,-2.0566,-2.0576,-2.0644,-2.0722,-2.0964,-2.0974,-2.1041,-2.1231,-2.1227,-2.1095,-2.0959,-2.0424,-1.998,-1.99,-1.9699,-1.9802,-2.0239,-2.0593,-2.0762,-2.0651,-2.0311,-2.0084,-1.9998,-1.9751,-1.9637,-1.9736,-1.9823,-1.9986,-2.0466,-2.0598,-2.0642,-2.097,-2.1024,-2.1079,-2.1079,-2.0937,-2.0773,-2.0664,-2.0695,-2.0801,-2.1105,-2.1382,-2.1923,-2.2302,-2.2304,-2.2262,-2.1659,-2.1207,-2.0719,-2.0089,-2.0456,-2.0471,-2.064,-2.0597,-2.0325,-1.9935,-1.9547,-1.9428,-1.1896,-1.2436,-1.2985,-1.3511,-1.3804,-1.4336,-1.5053,-1.5792,-1.5925,-1.6183,-1.6506,-1.66,-1.66,-1.6567,-1.6299,-1.6199,-1.6192,-1.5965,-1.5825,-1.5825,-1.5825,-1.5825,-1.5825,-1.5825,-1.5825,-1.5825,-1.5825,-1.5825,-1.5825,-1.592,-1.6116,-1.6676,-1.7419,-1.8164,-1.9088,-1.9928,-2.0564,-2.1203,-2.1392,-2.1571,-2.1731,-2.1731,-2.1731,-2.1731,-2.1985,-2.1872,-2.1343,-2.1501,-2.1357,-2.0713,-2.0605,-2.0576,-2.0576,-2.0576,-2.0576,-2.0576,-2.0576,-2.0576,-2.0576,-2.0576,-2.0644,-2.0644,-2.0585,-2.0605,-2.0584,-2.0335,-2.0173,-2.0133,-1.9643,-1.9294,-1.9332,-1.9134,-1.9189,-1.9162,-1.9642,-1.9687,-1.9306,-1.9515,-1.9634,-1.9669,-1.9878,-2.002,-1.9944,-1.9944,-1.9965,-2.0053,-2.0085,-2.0084,-2.0095,-2.0126,-2.0096,-2.0129,-2.0159,-2.0214,-2.0182,-2.0347,-2.0454,-2.0673,-2.1,-2.1468,-2.2088,-2.2169,-2.2121,-2.1488,-2.105,-2.049,-2.0362,-2.0813,-2.0946,-2.0849,-2.0773,-2.0644,-2.0307,-1.9764,-1.9494,-1.1678,-1.1896,-1.2441,-1.2994,-1.3492,-1.3694,-1.4184,-1.5077,-1.5288,-1.5388,-1.5763,-1.5959,-1.5996,-1.6052,-1.5999,-1.5939,-1.5939,-1.5872,-1.5825,-1.5825,-1.5825,-1.5825,-1.5825,-1.5825,-1.5825,-1.5825,-1.5825,-1.5825,-1.5832,-1.6109,-1.64,-1.6581,-1.734,-1.7986,-1.8619,-1.9538,-2.0266,-2.0817,-2.1374,-2.1651,-2.1651,-2.1731,-2.1731,-2.1713,-2.1729,-2.1502,-2.1201,-2.1009,-2.085,-2.0625,-2.0576,-2.0576,-2.0576,-2.0576,-2.0576,-2.0576,-2.0576,-2.0576,-2.0576,-2.0557,-2.0557,-2.0527,-2.0244,-2.0088,-2.0068,-1.9984,-1.9902,-1.9855,-1.9505,-1.9322,-1.9479,-1.9015,-1.8849,-1.9065,-1.9341,-1.9473,-1.9473,-1.9539,-1.9615,-1.9615,-1.9473,-1.9539,-1.9605,-1.9539,-1.9539,-1.9681,-1.9605,-1.9407,-1.9473,-1.9539,-1.9605,-1.9539,-1.9557,-1.9658,-1.9768,-1.9976,-2.0085,-2.0216,-2.0477,-2.0804,-2.1457,-2.199,-2.1894,-2.1656,-2.1667,-2.1206,-2.12,-2.1431,-2.1258,-2.1069,-2.0831,-2.0636,-2.0301,-1.9834,-1.9626,-1.1012,-1.1445,-1.1684,-1.2216,-1.2735,-1.2725,-1.3214,-1.3814,-1.4067,-1.4421,-1.4807,-1.5242,-1.5458,-1.5553,-1.5737,-1.5825,-1.5825,-1.5825,-1.5825,-1.5825,-1.5825,-1.5825,-1.5825,-1.5825,-1.5825,-1.5825,-1.5825,-1.5825,-1.5832,-1.6116,-1.6305,-1.6501,-1.7153,-1.78,-1.835,-1.9446,-2.0266,-2.0637,-2.1275,-2.1731,-2.1731,-2.1731,-2.1731,-2.1704,-2.1651,-2.1586,-2.1313,-2.098,-2.0624,-2.0547,-2.0576,-2.0576,-2.0576,-2.0576,-2.0576,-2.0576,-2.0576,-2.0576,-2.0527,-2.041,-2.0303,-2.0215,-1.9893,-1.9687,-1.958,-1.9476,-1.9362,-1.9312,-1.8954,-1.8893,-1.8891,-1.8554,-1.8502,-1.8741,-1.9008,-1.9131,-1.9142,-1.9274,-1.9274,-1.9208,-1.9142,-1.9142,-1.9341,-1.9198,-1.9208,-1.9341,-1.9274,-1.9198,-1.9131,-1.9198,-1.9274,-1.9274,-1.9407,-1.9681,-1.9747,-1.9878,-2.0009,-2.0107,-2.0238,-2.0511,-2.0992,-2.1669,-2.1653,-2.1661,-2.1908,-2.1983,-2.1732,-2.1566,-2.1496,-2.1283,-2.0989,-2.0582,-2.0223,-1.9889,-1.9681,-1.0194,-1.1167,-1.1076,-1.1286,-1.1789,-1.1779,-1.2278,-1.2694,-1.2851,-1.3335,-1.396,-1.4496,-1.4981,-1.5172,-1.5642,-1.5825,-1.5825,-1.5825,-1.5825,-1.5825,-1.5825,-1.5825,-1.5825,-1.5825,-1.5825,-1.5825,-1.5825,-1.5825,-1.5832,-1.5832,-1.6028,-1.6407,-1.7059,-1.7613,-1.8357,-1.9546,-2.0374,-2.0727,-2.1365,-2.1642,-2.1731,-2.1731,-2.1731,-2.1713,-2.1868,-2.1729,-2.1379,-2.1091,-2.0787,-2.0284,-2.0489,-2.0566,-2.0576,-2.0576,-2.0518,-2.0498,-2.0508,-2.0547,-2.0469,-2.0205,-2.0049,-2.001,-1.9629,-1.9287,-1.9238,-1.8968,-1.8644,-1.8635,-1.8232,-1.8164,-1.8125,-1.8086,-1.8289,-1.8549,-1.8617,-1.8607,-1.8539,-1.8875,-1.8931,-1.8607,-1.8942,-1.9065,-1.9065,-1.9075,-1.8998,-1.9008,-1.8942,-1.8875,-1.8875,-1.8942,-1.9075,-1.9218,-1.9483,-1.9878,-1.9878,-1.9813,-1.9944,-2.002,-2.0096,-2.0347,-2.0631,-2.1054,-2.1198,-2.1377,-2.1718,-2.1679,-2.1392,-2.1382,-2.1457,-2.1207,-2.0804,-2.0504,-2.0204,-1.9886,-1.966,-0.9867,-1.0617,-1.0862,-1.1317,-1.1798,-1.188,-1.2059,-1.2454,-1.284,-1.3299,-1.3913,-1.4688,-1.5077,-1.5452,-1.5642,-1.5825,-1.5825,-1.5825,-1.5825,-1.5825,-1.5825,-1.5825,-1.5825,-1.5825,-1.5825,-1.5825,-1.5825,-1.5825,-1.5832,-1.5933,-1.613,-1.6312,-1.7153,-1.7994,-1.8265,-1.9455,-2.0546,-2.0727,-2.1275,-2.1642,-2.1731,-2.1731,-2.1731,-2.1713,-2.1826,-2.156,-2.1155,-2.1048,-2.0876,-2.0546,-2.0498,-2.0576,-2.0576,-2.0547,-2.042,-2.0273,-2.0391,-2.041,-2.0176,-2.0254,-2.0391,-2.0234,-1.96,-1.9277,-1.9228,-1.8574,-1.8213,-1.8135,-1.8057,-1.8076,-1.8076,-1.8279,-1.8414,-1.8549,-1.8741,-1.8808,-1.8684,-1.8875,-1.9008,-1.8942,-1.8942,-1.9065,-1.9065,-1.8741,-1.8674,-1.8607,-1.8607,-1.8472,-1.8607,-1.8674,-1.8942,-1.9152,-1.9473,-1.9878,-2.0009,-1.9944,-2.0009,-2.0074,-2.0085,-2.0161,-2.0456,-2.0718,-2.0978,-2.1272,-2.1544,-2.1431,-2.128,-2.1181,-2.1221,-2.088,-2.0563,-2.032,-2.0036,-1.9801,-1.9781,-0.9565,-1.0144,-1.0591,-1.1066,-1.1577,-1.1667,-1.1895,-1.2093,-1.237,-1.2948,-1.3528,-1.4304,-1.4783,-1.5356,-1.5642,-1.5825,-1.5825,-1.5825,-1.5825,-1.5825,-1.5825,-1.5825,-1.5825,-1.5825,-1.5825,-1.5825,-1.5825,-1.5825,-1.5832,-1.5927,-1.6028,-1.6224,-1.7059,-1.734,-1.7714,-1.8996,-1.9621,-2.0175,-2.0817,-2.1365,-2.1642,-2.1731,-2.1731,-2.1722,-2.1678,-2.1509,-2.1062,-2.1104,-2.088,-2.0595,-2.0566,-2.0576,-2.0518,-2.0391,-2.0225,-2.0283,-2.0176,-2.0322,-2.0254,-2.0049,-1.9922,-1.9971,-1.918,-1.8828,-1.8713,-1.8291,-1.8193,-1.8134,-1.8212,-1.8279,-1.8347,-1.8347,-1.8482,-1.8617,-1.8741,-1.8741,-1.8607,-1.8674,-1.8741,-1.8674,-1.8607,-1.8674,-1.8607,-1.8539,-1.8472,-1.8539,-1.8405,-1.8337,-1.8607,-1.8741,-1.9008,-1.9274,-1.9473,-1.9736,-2.0009,-2.014,-2.0151,-2.0151,-2.0085,-2.0216,-2.0391,-2.0643,-2.0885,-2.1136,-2.1396,-2.142,-2.1237,-2.1163,-2.0826,-2.0353,-2.0092,-2.0051,-2.003,-1.9955,-1.9977,-0.9255,-0.9762,-1.0095,-1.0609,-1.1096,-1.1492,-1.1693,-1.1688,-1.1975,-1.2565,-1.3044,-1.3619,-1.4304,-1.4981,-1.5452,-1.5642,-1.5832,-1.5825,-1.5825,-1.5825,-1.5825,-1.5825,-1.5825,-1.5825,-1.5825,-1.5825,-1.5825,-1.5825,-1.5825,-1.5832,-1.6028,-1.6218,-1.6777,-1.7246,-1.7434,-1.8071,-1.9163,-1.9903,-2.0447,-2.1087,-2.1553,-2.1731,-2.1731,-2.1722,-2.1784,-2.1618,-2.1325,-2.1201,-2.1096,-2.0664,-2.0605,-2.0576,-2.0469,-2.0195,-1.998,-2.0322,-1.9971,-1.9863,-1.9873,-1.9648,-1.9355,-1.9248,-1.8693,-1.8282,-1.8242,-1.832,-1.8289,-1.8337,-1.8414,-1.8482,-1.8684,-1.8549,-1.8472,-1.8607,-1.8549,-1.8482,-1.8482,-1.8482,-1.8414,-1.8279,-1.8405,-1.8539,-1.8539,-1.8472,-1.8405,-1.8405,-1.8337,-1.8337,-1.8674,-1.9008,-1.9396,-1.9528,-1.9791,-1.9998,-2.027,-2.0529,-2.0529,-2.041,-2.0281,-2.041,-2.0509,-2.0951,-2.1163,-2.1061,-2.1188,-2.1149,-2.1079,-2.0877,-2.0485,-1.9961,-1.9865,-2.0063,-2.0074,-2.0064,-2.0302,-0.8553,-0.9267,-0.9598,-1.0117,-1.0904,-1.1394,-1.1683,-1.1975,-1.217,-1.2467,-1.2856,-1.3346,-1.4016,-1.4688,-1.5077,-1.5458,-1.5737,-1.5825,-1.5825,-1.5825,-1.5825,-1.5825,-1.5825,-1.5825,-1.5825,-1.5825,-1.5825,-1.5825,-1.5832,-1.6028,-1.6123,-1.6407,-1.7153,-1.7714,-1.7986,-1.8804,-1.9355,-1.9903,-2.0357,-2.0817,-2.1374,-2.1642,-2.1731,-2.1731,-2.183,-2.1738,-2.1502,-2.1371,-2.123,-2.0922,-2.0703,-2.0615,-2.0478,-2.0146,-1.9853,-1.9668,-1.9551,-1.9434,-1.9248,-1.9248,-1.9238,-1.9252,-1.8882,-1.8705,-1.8676,-1.8546,-1.8502,-1.8472,-1.8472,-1.8549,-1.8559,-1.8549,-1.8482,-1.8549,-1.8539,-1.8549,-1.8549,-1.8549,-1.8549,-1.8482,-1.8472,-1.8539,-1.8674,-1.8808,-1.8931,-1.9065,-1.9131,-1.9187,-1.9452,-1.9781,-2.0107,-2.0107,-2.0096,-2.0324,-2.0604,-2.085,-2.0978,-2.0786,-2.0722,-2.0775,-2.1028,-2.1433,-2.1606,-2.1296,-2.1019,-2.0918,-2.0807,-2.0729,-2.0497,-2.0236,-2.0215,-2.0216,-2.0379,-2.0571,-2.1019,-0.8574,-0.8937,-0.9363,-1.0019,-1.0605,-1.0998,-1.1394,-1.178,-1.2175,-1.2565,-1.2953,-1.3346,-1.3829,-1.4496,-1.4981,-1.5363,-1.5737,-1.5825,-1.5825,-1.5825,-1.5825,-1.5825,-1.5825,-1.5825,-1.5825,-1.5825,-1.5825,-1.5825,-1.5825,-1.6035,-1.6224,-1.6414,-1.716,-1.7535,-1.7628,-1.7978,-1.8804,-1.9438,-1.9903,-2.0447,-2.1186,-2.1454,-2.1642,-2.1741,-2.1802,-2.1794,-2.171,-2.1589,-2.147,-2.1105,-2.0956,-2.0801,-2.0518,-2.0185,-1.9824,-1.96,-1.9385,-1.9209,-1.8945,-1.9023,-1.8926,-1.8887,-1.8755,-1.8606,-1.8616,-1.8582,-1.8684,-1.8741,-1.8674,-1.8684,-1.8684,-1.8674,-1.8674,-1.8674,-1.8741,-1.8808,-1.8808,-1.8808,-1.8875,-1.8875,-1.9075,-1.9208,-1.9208,-1.9341,-1.9462,-1.966,-1.9922,-2.0042,-2.0226,-2.0431,-2.0624,-2.0688,-2.0688,-2.0764,-2.0978,-2.1169,-2.1296,-2.1106,-2.1106,-2.1221,-2.1267,-2.1597,-2.1509,-2.1225,-2.1031,-2.0983,-2.0831,-2.084,-2.0642,-2.0588,-2.0764,-2.0872,-2.0941,-2.1146,-2.16,-0.8627,-0.873,-0.9229,-0.9723,-1.0113,-1.0609,-1.1002,-1.1394,-1.2078,-1.2467,-1.2856,-1.3244,-1.3727,-1.4304,-1.4783,-1.5363,-1.5737,-1.573,-1.573,-1.5825,-1.5825,-1.5825,-1.5825,-1.5825,-1.5825,-1.5825,-1.5825,-1.5825,-1.5832,-1.6028,-1.6123,-1.6312,-1.6697,-1.6972,-1.7066,-1.7426,-1.7792,-1.8611,-1.9163,-1.9894,-2.0718,-2.1365,-2.1731,-2.1731,-2.1731,-2.1762,-2.1861,-2.1617,-2.152,-2.1269,-2.1082,-2.0918,-2.0586,-2.0244,-1.998,-1.9766,-1.9385,-1.918,-1.8926,-1.8721,-1.8516,-1.8486,-1.8399,-1.8387,-1.8424,-1.8714,-1.8942,-1.8998,-1.8931,-1.8875,-1.8875,-1.8865,-1.8875,-1.8865,-1.8998,-1.9131,-1.9142,-1.9208,-1.9407,-1.9539,-1.9736,-1.9736,-1.9671,-1.9987,-2.0183,-2.0366,-2.056,-2.0816,-2.0944,-2.0892,-2.1083,-2.1221,-2.1285,-2.1285,-2.1423,-2.1486,-2.1549,-2.1371,-2.1498,-2.1612,-2.16,-2.1659,-2.1474,-2.1486,-2.1574,-2.1567,-2.1228,-2.1008,-2.0983,-2.1045,-2.128,-2.1495,-2.1527,-2.1663,-2.1987,-0.8038,-0.8137,-0.873,-0.8924,-0.9122,-1.0015,-1.0408,-1.0703,-1.1585,-1.2073,-1.2273,-1.2856,-1.3437,-1.401,-1.479,-1.5261,-1.5445,-1.554,-1.5642,-1.5832,-1.5825,-1.5825,-1.5825,-1.5825,-1.5825,-1.5825,-1.5825,-1.5825,-1.5825,-1.5927,-1.6028,-1.6312,-1.6595,-1.6784,-1.7066,-1.7246,-1.8064,-1.9072,-1.9438,-2.0175,-2.1275,-2.1642,-2.1642,-2.1731,-2.1731,-2.1765,-2.1914,-2.1664,-2.1341,-2.138,-2.0946,-2.0684,-2.0557,-2.0537,-2.0039,-1.9492,-1.8955,-1.8555,-1.832,-1.8213,-1.8164,-1.8233,-1.8319,-1.8414,-1.8607,-1.8808,-1.9075,-1.9065,-1.9065,-1.8998,-1.9008,-1.9065,-1.9075,-1.9075,-1.9065,-1.9131,-1.9208,-1.9473,-1.9671,-2.0053,-2.0183,-2.0053,-1.9987,-2.0442,-2.0828,-2.1008,-2.1198,-2.14,-2.1463,-2.1273,-2.1411,-2.1549,-2.1686,-2.1686,-2.1737,-2.18,-2.1812,-2.1635,-2.1749,-2.1874,-2.1862,-2.1862,-2.1925,-2.1922,-2.2052,-2.2001,-2.1719,-2.1481,-2.1418,-2.1452,-2.1632,-2.1851,-2.2035,-2.2247,-2.2371,-0.8038,-0.8038,-0.8233,-0.8531,-0.8825,-0.9324,-0.9916,-1.0703,-1.1292,-1.1785,-1.2273,-1.2667,-1.334,-1.3908,-1.4592,-1.507,-1.5445,-1.5635,-1.573,-1.5832,-1.5825,-1.5825,-1.5825,-1.5825,-1.5825,-1.5825,-1.5927,-1.6028,-1.6021,-1.6211,-1.64,-1.6595,-1.6871,-1.7059,-1.716,-1.7239,-1.7598,-1.8334,-1.9072,-1.9985,-2.0907,-2.1463,-2.1731,-2.1731,-2.1731,-2.1799,-2.1811,-2.1749,-2.1453,-2.1385,-2.0975,-2.081,-2.0566,-2.0332,-1.9971,-1.9736,-1.9258,-1.873,-1.8164,-1.8193,-1.8193,-1.8289,-1.8502,-1.8674,-1.8808,-1.9019,-1.9152,-1.9131,-1.9131,-1.9131,-1.9131,-1.9131,-1.9131,-1.9131,-1.9131,-1.933,-1.9473,-1.9671,-1.9933,-2.0313,-2.056,-2.0377,-2.0313,-2.0635,-2.0892,-2.0828,-2.0955,-2.1083,-2.121,-2.121,-2.1411,-2.1749,-2.1937,-2.2011,-2.1999,-2.2061,-2.2061,-2.1949,-2.1949,-2.2073,-2.2073,-2.2135,-2.2123,-2.2185,-2.2246,-2.2159,-2.2037,-2.1913,-2.1788,-2.1839,-2.1951,-2.2149,-2.2359,-2.2653,-2.2775,-0.8038,-0.8038,-0.8038,-0.8237,-0.8627,-0.8825,-0.9517,-1.0511,-1.1198,-1.178,-1.2273,-1.2759,-1.3244,-1.3913,-1.44,-1.4879,-1.535,-1.5642,-1.5737,-1.5825,-1.5825,-1.5825,-1.5825,-1.5825,-1.5825,-1.5825,-1.5927,-1.6123,-1.6305,-1.6494,-1.669,-1.6979,-1.7066,-1.7246,-1.7239,-1.7333,-1.7606,-1.8249,-1.9347,-2.0175,-2.0907,-2.1454,-2.1642,-2.1731,-2.1704,-2.1771,-2.1851,-2.1598,-2.1322,-2.1356,-2.0953,-2.0732,-2.0566,-2.0342,-2.0164,-1.9948,-1.9698,-1.9295,-1.8873,-1.8706,-1.8665,-1.8793,-1.8909,-1.9295,-1.9215,-1.9241,-1.9137,-1.9162,-1.9131,-1.9131,-1.9131,-1.9131,-1.9198,-1.9198,-1.9208,-1.9539,-1.9736,-1.9868,-1.9933,-2.0118,-2.0377,-2.0635,-2.0635,-2.0892,-2.0955,-2.07,-2.07,-2.0775,-2.1019,-2.1273,-2.1612,-2.1937,-2.2011,-2.2135,-2.2135,-2.2185,-2.2197,-2.2197,-2.2197,-2.2197,-2.2197,-2.2247,-2.2309,-2.2359,-2.242,-2.2531,-2.258,-2.2334,-2.2199,-2.2322,-2.2506,-2.2519,-2.2714,-2.2957,-2.3078,-0.8038,-0.8038,-0.8038,-0.8038,-0.8137,-0.913,-0.9624,-0.992,-1.1292,-1.1883,-1.217,-1.2754,-1.3346,-1.3931,-1.4304,-1.4694,-1.5172,-1.535,-1.5635,-1.573,-1.5825,-1.5825,-1.5825,-1.5825,-1.5825,-1.5832,-1.6021,-1.6211,-1.6494,-1.6676,-1.6784,-1.6979,-1.7066,-1.7153,-1.7333,-1.7419,-1.7971,-1.8804,-1.9894,-2.0637,-2.1186,-2.1642,-2.1642,-2.1731,-2.1731,-2.1793,-2.2003,-2.1342,-2.1117,-2.1322,-2.0825,-2.0566,-2.0566,-2.0468,-2.0252,-2.0266,-2.0163,-1.9919,-1.9785,-1.9493,-1.9543,-1.9808,-1.988,-1.9897,-1.9748,-1.9696,-1.952,-1.9189,-1.9137,-1.9131,-1.9131,-1.9131,-1.9264,-1.933,-1.9341,-1.9462,-1.9671,-1.9868,-1.9933,-1.9998,-2.0183,-2.0442,-2.0506,-2.0635,-2.1019,-2.0828,-2.0764,-2.0892,-2.1348,-2.16,-2.1874,-2.2135,-2.2135,-2.2197,-2.2197,-2.2197,-2.2197,-2.2259,-2.2259,-2.2247,-2.2247,-2.2309,-2.2543,-2.2665,-2.2787,-2.2957,-2.3078,-2.2896,-2.2763,-2.2944,-2.3017,-2.2896,-2.2896,-2.3078,-2.3138,-0.8038,-0.8038,-0.8038,-0.8038,-0.8038,-0.8829,-0.9426,-0.992,-1.0801,-1.1683,-1.2273,-1.2953,-1.3443,-1.3829,-1.4502,-1.4885,-1.5172,-1.5547,-1.5635,-1.573,-1.5825,-1.5825,-1.5825,-1.5832,-1.5832,-1.6028,-1.6211,-1.6494,-1.6784,-1.6871,-1.7052,-1.7153,-1.716,-1.7246,-1.7333,-1.7606,-1.8249,-1.8896,-1.9903,-2.0817,-2.1006,-2.1553,-2.1731,-2.1731,-2.1731,-2.1664,-2.1581,-2.1061,-2.1042,-2.0919,-2.0572,-2.0517,-2.0527,-2.0438,-2.0513,-2.0549,-2.0476,-2.0581,-2.066,-2.0356,-2.0093,-2.0135,-2.0267,-2.0298,-2.0172,-1.9955,-1.9817,-1.9489,-1.9241,-1.9137,-1.9131,-1.9131,-1.9198,-1.9264,-1.9396,-1.9462,-1.966,-1.9868,-1.9802,-1.9802,-2.0064,-2.0377,-2.0248,-2.0172,-2.0624,-2.1008,-2.0955,-2.1083,-2.1474,-2.18,-2.1999,-2.2197,-2.2197,-2.2247,-2.2247,-2.2197,-2.2197,-2.2321,-2.2371,-2.2432,-2.2494,-2.2714,-2.2896,-2.303,-2.309,-2.321,-2.333,-2.333,-2.3271,-2.3198,-2.3198,-2.3138,-2.3138,-2.3198,-2.3198,-0.8038,-0.8038,-0.8038,-0.8038,-0.8137,-0.8825,-0.9521,-1.0117,-1.0998,-1.1785,-1.2662,-1.3152,-1.3539,-1.3829,-1.4406,-1.4892,-1.4981,-1.5363,-1.554,-1.5635,-1.573,-1.573,-1.5825,-1.5825,-1.5927,-1.6218,-1.6407,-1.6595,-1.6979,-1.7153,-1.7239,-1.7239,-1.7333,-1.7333,-1.7426,-1.7792,-1.8156,-1.8711,-1.953,-2.0447,-2.0637,-2.1275,-2.1731,-2.1731,-2.1731,-2.153,-2.1346,-2.0996,-2.0846,-2.0704,-2.0553,-2.0459,-2.0459,-2.0515,-2.0552,-2.0745,-2.0918,-2.0989,-2.1141,-2.1097,-2.072,-2.0885,-2.0855,-2.0762,-2.0586,-2.0307,-2.0203,-1.9785,-1.9437,-1.923,-1.9214,-1.9131,-1.9274,-1.9473,-1.9264,-1.9264,-1.9671,-1.9868,-1.9736,-1.9605,-1.9922,-2.0313,-2.0828,-2.0752,-2.0955,-2.1273,-2.1262,-2.1336,-2.1675,-2.1925,-2.2037,-2.2173,-2.2247,-2.2247,-2.2247,-2.2432,-2.2555,-2.2555,-2.2678,-2.28,-2.2909,-2.3078,-2.3258,-2.333,-2.339,-2.3522,-2.3582,-2.3582,-2.345,-2.3318,-2.3318,-2.3318,-2.333,-2.339,-2.333,-0.8038,-0.8038,-0.8038,-0.8038,-0.8137,-0.9426,-0.992,-1.0117,-1.1585,-1.2467,-1.2953,-1.3147,-1.3443,-1.3829,-1.4304,-1.4598,-1.479,-1.5083,-1.5267,-1.5452,-1.554,-1.5642,-1.5737,-1.5832,-1.6021,-1.6123,-1.6414,-1.669,-1.7073,-1.7066,-1.7153,-1.7239,-1.7333,-1.7333,-1.7333,-1.7326,-1.7692,-1.8427,-1.9255,-1.9994,-2.0637,-2.1275,-2.1642,-2.1731,-2.1649,-2.141,-2.1204,-2.08,-2.066,-2.0657,-2.0416,-2.0362,-2.0605,-2.0682,-2.075,-2.0934,-2.1098,-2.1318,-2.1471,-2.1603,-2.1576,-2.1559,-2.1455,-2.1404,-2.1166,-2.0938,-2.0669,-2.011,-1.9827,-1.9489,-1.9282,-1.9173,-1.9414,-1.9428,-1.9229,-1.9343,-1.9764,-1.9974,-1.9873,-1.9897,-2.0042,-2.0366,-2.1071,-2.1526,-2.1537,-2.16,-2.1514,-2.1639,-2.1851,-2.2111,-2.2235,-2.2297,-2.2432,-2.242,-2.2482,-2.2726,-2.2848,-2.2909,-2.2969,-2.309,-2.321,-2.339,-2.3509,-2.3569,-2.37,-2.376,-2.3819,-2.3878,-2.3747,-2.3628,-2.3556,-2.3497,-2.3509,-2.3509,-2.3509,-0.8038,-0.8038,-0.8038,-0.8038,-0.8137,-0.8829,-0.9422,-1.0015,-1.1389,-1.237,-1.2657,-1.305,-1.3443,-1.3732,-1.4214,-1.4598,-1.4688,-1.4987,-1.5172,-1.5267,-1.535,-1.5635,-1.5825,-1.6028,-1.6312,-1.6602,-1.6791,-1.6784,-1.7246,-1.7153,-1.7239,-1.7326,-1.7333,-1.7333,-1.7419,-1.7692,-1.8249,-1.8611,-1.953,-2.0348,-2.0628,-2.1275,-2.1722,-2.1713,-2.1484,-2.1255,-2.1007,-2.055,-2.0419,-2.0429,-2.0289,-2.0352,-2.0654,-2.0819,-2.1051,-2.1282,-2.1436,-2.1578,-2.1731,-2.1787,-2.1797,-2.1807,-2.1787,-2.1725,-2.1569,-2.0948,-2.069,-2.0472,-2.0066,-1.9796,-1.964,-1.953,-1.9703,-1.9509,-1.9452,-1.9703,-2.0001,-2.0126,-2.0194,-2.0277,-2.0424,-2.0971,-2.1663,-2.1975,-2.2049,-2.2111,-2.2025,-2.1827,-2.1901,-2.2297,-2.2555,-2.2555,-2.2616,-2.2665,-2.2726,-2.2969,-2.309,-2.3138,-2.3258,-2.3437,-2.3569,-2.3688,-2.376,-2.3878,-2.3936,-2.4067,-2.4008,-2.3995,-2.3995,-2.3923,-2.3806,-2.3747,-2.376,-2.376,-2.3747,-0.7963,-0.7967,-0.8018,-0.8038,-0.8137,-0.8627,-0.932,-1.0019,-1.1292,-1.198,-1.237,-1.305,-1.3539,-1.3732,-1.4118,-1.4502,-1.4592,-1.4688,-1.4885,-1.4981,-1.5064,-1.5445,-1.5737,-1.6028,-1.6407,-1.6784,-1.7073,-1.7066,-1.7239,-1.7333,-1.7333,-1.7333,-1.7333,-1.7333,-1.7419,-1.7699,-1.8064,-1.8527,-1.9438,-2.0257,-2.0727,-2.1168,-2.1649,-2.1475,-2.1245,-2.0989,-2.0649,-2.0338,-2.0086,-2.017,-2.022,-2.0264,-2.0741,-2.0984,-2.1205,-2.1359,-2.1578,-2.1731,-2.1807,-2.1807,-2.1807,-2.1807,-2.1807,-2.1725,-2.1569,-2.1041,-2.0814,-2.0565,-2.0232,-1.9983,-1.9885,-1.9827,-1.9735,-1.953,-1.9737,-1.998,-2.0169,-2.0283,-2.0497,-2.0676,-2.1059,-2.1626,-2.2049,-2.2297,-2.2482,-2.2543,-2.2531,-2.2273,-2.2075,-2.2408,-2.2751,-2.28,-2.286,-2.2909,-2.309,-2.3283,-2.333,-2.3378,-2.3556,-2.3734,-2.3865,-2.3923,-2.4054,-2.4112,-2.4157,-2.4157,-2.4112,-2.4112,-2.4054,-2.4054,-2.3936,-2.3936,-2.3949,-2.3936,-2.3865,-0.7807,-0.7831,-0.7963,-0.8018,-0.8124,-0.878,-0.9481,-1.0408,-1.1194,-1.1683,-1.2078,-1.2759,-1.3249,-1.3738,-1.3937,-1.4118,-1.4298,-1.4394,-1.4496,-1.4694,-1.4783,-1.5255,-1.5635,-1.5825,-1.64,-1.6784,-1.7066,-1.7153,-1.7333,-1.7333,-1.7333,-1.7333,-1.7333,-1.7333,-1.7333,-1.7512,-1.7792,-1.8342,-1.898,-1.9712,-2.0357,-2.1096,-2.1353,-2.1222,-2.1044,-2.0659,-2.0283,-1.997,-1.9901,-1.9963,-2.0048,-2.0342,-2.0654,-2.0829,-2.1061,-2.1215,-2.1502,-2.1665,-2.1731,-2.1807,-2.1807,-2.1797,-2.1725,-2.1518,-2.128,-2.1021,-2.0721,-2.0627,-2.0386,-2.0195,-2.0054,-1.9912,-1.9779,-1.9772,-1.9905,-2.0135,-2.0312,-2.0489,-2.0775,-2.111,-2.1516,-2.1981,-2.2209,-2.2506,-2.2837,-2.2726,-2.2714,-2.2726,-2.2531,-2.2531,-2.286,-2.3042,-2.3103,-2.3223,-2.3403,-2.3582,-2.3747,-2.3734,-2.3923,-2.4099,-2.4216,-2.4216,-2.4274,-2.4274,-2.4305,-2.4247,-2.4274,-2.4229,-2.4099,-2.4112,-2.4054,-2.4054,-2.4008,-2.4008,-2.3995,-0.7719,-0.7804,-0.775,-0.7784,-0.7855,-0.8147,-0.8798,-0.9592,-1.0212,-1.09,-1.178,-1.2175,-1.2861,-1.3539,-1.3835,-1.4022,-1.4208,-1.4298,-1.4394,-1.449,-1.4694,-1.507,-1.5445,-1.5913,-1.6487,-1.6871,-1.7153,-1.7246,-1.7239,-1.7333,-1.7333,-1.7333,-1.7333,-1.7333,-1.7333,-1.7333,-1.7512,-1.7792,-1.8427,-1.9255,-1.9894,-2.0628,-2.0926,-2.1025,-2.0842,-2.0438,-2.0053,-1.973,-1.9678,-2.0077,-2.0186,-2.0498,-2.1205,-2.1282,-2.1425,-2.1589,-2.1741,-2.1741,-2.1807,-2.1797,-2.1766,-2.1652,-2.1497,-2.1538,-2.128,-2.0907,-2.0585,-2.0573,-2.0589,-2.0397,-2.0514,-2.0445,-2.0322,-2.0393,-2.0593,-2.1027,-2.1206,-2.1431,-2.1708,-2.1881,-2.228,-2.2357,-2.2563,-2.2885,-2.317,-2.2997,-2.2896,-2.2969,-2.2921,-2.2909,-2.2969,-2.315,-2.339,-2.3509,-2.37,-2.3878,-2.4041,-2.4203,-2.4332,-2.4403,-2.4447,-2.4447,-2.4492,-2.4492,-2.4478,-2.4492,-2.4505,-2.4443,-2.4458,-2.4268,-2.4197,-2.4125,-2.4125,-2.4112,-2.4171,-0.7556,-0.7628,-0.7611,-0.7651,-0.7702,-0.7729,-0.8277,-0.901,-0.9867,-1.0622,-1.1292,-1.2073,-1.2856,-1.3443,-1.3738,-1.4022,-1.4298,-1.4298,-1.4394,-1.4592,-1.4694,-1.5255,-1.5724,-1.6096,-1.6581,-1.6965,-1.7246,-1.7333,-1.7333,-1.7333,-1.7333,-1.7333,-1.7333,-1.7333,-1.7333,-1.7333,-1.7333,-1.7606,-1.8064,-1.8896,-1.9704,-2.0331,-2.074,-2.0916,-2.0695,-2.0328,-1.9925,-1.9512,-1.9576,-1.9951,-2.002,-2.042,-2.1118,-2.1349,-2.1578,-2.1776,-2.158,-2.1528,-2.1455,-2.128,-2.1383,-2.1383,-2.124,-2.1417,-2.124,-2.0886,-2.0791,-2.0747,-2.072,-2.0732,-2.0989,-2.1204,-2.1192,-2.1109,-2.1625,-2.2076,-2.2353,-2.2594,-2.2718,-2.2829,-2.2904,-2.2874,-2.3086,-2.3389,-2.343,-2.3071,-2.303,-2.321,-2.315,-2.303,-2.321,-2.339,-2.3628,-2.3865,-2.4008,-2.4249,-2.4411,-2.45,-2.4447,-2.4563,-2.4677,-2.4734,-2.4778,-2.4721,-2.4734,-2.4744,-2.4865,-2.4837,-2.4813,-2.4694,-2.4681,-2.4786,-2.4667,-2.4319,-2.4434,-0.7353,-0.7394,-0.7522,-0.756,-0.756,-0.7546,-0.8023,-0.8703,-0.9888,-1.0564,-1.1118,-1.2231,-1.2989,-1.3346,-1.3646,-1.3897,-1.41,-1.4214,-1.4345,-1.4675,-1.479,-1.5255,-1.5818,-1.6386,-1.6676,-1.7052,-1.7333,-1.7333,-1.7333,-1.7333,-1.7333,-1.7333,-1.7333,-1.7333,-1.7333,-1.7333,-1.7333,-1.7419,-1.7956,-1.868,-1.9835,-2.0442,-2.0686,-2.0816,-2.064,-2.031,-1.9888,-1.9558,-1.9381,-1.9548,-1.9784,-2.0255,-2.0799,-2.1262,-2.1578,-2.1669,-2.1463,-2.137,-2.1267,-2.1102,-2.1124,-2.1115,-2.0928,-2.1272,-2.1199,-2.0904,-2.0797,-2.119,-2.1236,-2.1361,-2.1577,-2.1837,-2.1923,-2.2007,-2.2268,-2.2725,-2.313,-2.3248,-2.3335,-2.3479,-2.3578,-2.3525,-2.3247,-2.3526,-2.3667,-2.3194,-2.309,-2.339,-2.3497,-2.3378,-2.3522,-2.3726,-2.4131,-2.4406,-2.4524,-2.4726,-2.4762,-2.4824,-2.4771,-2.4791,-2.4962,-2.5018,-2.5061,-2.5073,-2.5154,-2.5229,-2.5249,-2.5298,-2.5392,-2.5413,-2.5427,-2.5534,-2.5333,-2.4958,-2.4922,-0.717,-0.737,-0.7411,-0.736,-0.7258,-0.7437,-0.7959,-0.8786,-0.9739,-1.0524,-1.1086,-1.1617,-1.2289,-1.3148,-1.3366,-1.3585,-1.374,-1.4105,-1.4141,-1.4349,-1.4582,-1.5159,-1.5629,-1.6197,-1.6581,-1.6965,-1.7153,-1.7333,-1.7333,-1.7333,-1.7333,-1.7333,-1.7333,-1.7333,-1.7333,-1.7333,-1.7326,-1.7274,-1.7539,-1.8117,-1.91,-1.9592,-1.9906,-2.0193,-2.0237,-2.0191,-1.9823,-1.958,-1.9872,-2.0177,-2.0333,-2.0644,-2.1051,-2.1282,-2.1359,-2.1328,-2.1349,-2.1302,-2.1295,-2.1226,-2.13,-2.1321,-2.1302,-2.1313,-2.1261,-2.0952,-2.1058,-2.1571,-2.1903,-2.2039,-2.2203,-2.2466,-2.2697,-2.2838,-2.2908,-2.3359,-2.3801,-2.3839,-2.391,-2.4046,-2.4218,-2.399,-2.3664,-2.3614,-2.3717,-2.3701,-2.3517,-2.3616,-2.3897,-2.3956,-2.4164,-2.4445,-2.4813,-2.507,-2.5189,-2.5351,-2.5513,-2.5453,-2.5415,-2.5392,-2.5341,-2.5313,-2.5369,-2.5548,-2.5629,-2.5638,-2.569,-2.5813,-2.5935,-2.6036,-2.6167,-2.6261,-2.6217,-2.5864,-2.5782,-0.6922,-0.7075,-0.7149,-0.7163,-0.7143,-0.7234,-0.7816,-0.8524,-0.9234,-1.0017,-1.0983,-1.1614,-1.2339,-1.3042,-1.3182,-1.3361,-1.3507,-1.3936,-1.4096,-1.4209,-1.4489,-1.5032,-1.5534,-1.5974,-1.6393,-1.6871,-1.7145,-1.7333,-1.7333,-1.7333,-1.7333,-1.7326,-1.7326,-1.7318,-1.7318,-1.7318,-1.723,-1.7121,-1.7121,-1.7508,-1.8185,-1.8684,-1.9562,-2.0036,-2.0127,-2.0044,-1.9841,-1.9617,-1.9715,-2.0177,-2.0333,-2.0654,-2.0974,-2.1128,-2.1282,-2.1288,-2.1242,-2.1281,-2.1336,-2.1445,-2.1499,-2.1468,-2.1734,-2.167,-2.2221,-2.2064,-2.1869,-2.2313,-2.2254,-2.238,-2.2833,-2.3239,-2.3334,-2.3417,-2.3561,-2.383,-2.4054,-2.4082,-2.4108,-2.4097,-2.4271,-2.443,-2.4147,-2.4122,-2.4167,-2.3755,-2.3641,-2.4028,-2.4305,-2.4696,-2.4865,-2.5208,-2.5652,-2.6007,-2.6221,-2.6285,-2.6366,-2.6219,-2.6086,-2.5756,-2.5605,-2.5633,-2.5744,-2.5744,-2.5869,-2.5951,-2.6076,-2.6268,-2.6541,-2.6699,-2.6818,-2.6982,-2.6895,-2.6889,-2.6986,-0.6688,-0.6719,-0.6848,-0.697,-0.7078,-0.7105,-0.746,-0.8197,-0.8617,-0.9494,-1.0631,-1.1831,-1.2433,-1.2791,-1.3107,-1.3288,-1.3477,-1.3725,-1.3896,-1.4112,-1.459,-1.486,-1.5376,-1.5967,-1.6227,-1.657,-1.6915,-1.7131,-1.7246,-1.7246,-1.7239,-1.7326,-1.7289,-1.726,-1.726,-1.7179,-1.7018,-1.685,-1.6801,-1.6898,-1.7445,-1.8001,-1.9015,-1.9685,-1.9869,-1.9761,-1.9661,-1.9558,-1.9417,-1.9872,-2.0333,-2.0576,-2.0809,-2.1051,-2.1128,-2.1211,-2.1192,-2.12,-2.1141,-2.1208,-2.1292,-2.1513,-2.1816,-2.2302,-2.2807,-2.2944,-2.282,-2.2855,-2.2795,-2.2994,-2.3453,-2.3756,-2.3852,-2.3936,-2.4082,-2.4166,-2.4166,-2.4322,-2.436,-2.4325,-2.4602,-2.4804,-2.4591,-2.4583,-2.4432,-2.4,-2.4054,-2.4447,-2.4859,-2.5327,-2.5632,-2.6103,-2.664,-2.696,-2.7179,-2.7212,-2.7235,-2.6976,-2.6743,-2.6286,-2.5911,-2.5827,-2.5812,-2.584,-2.5911,-2.6204,-2.644,-2.6662,-2.6951,-2.7284,-2.7603,-2.7769,-2.7788,-2.7865,-2.8278,-0.659,-0.6702,-0.6732,-0.6766,-0.6807,-0.6919,-0.7393,-0.8018,-0.8265,-0.9125,-1.0167,-1.0761,-1.1325,-1.2121,-1.2422,-1.2632,-1.2921,-1.3285,-1.3393,-1.3434,-1.4031,-1.4377,-1.4817,-1.5265,-1.5684,-1.6097,-1.6586,-1.6835,-1.6944,-1.708,-1.7131,-1.726,-1.7018,-1.6952,-1.6901,-1.6784,-1.6594,-1.6484,-1.6514,-1.6585,-1.6875,-1.7453,-1.7959,-1.8338,-1.8477,-1.8993,-1.9254,-1.9038,-1.9469,-1.9942,-2.0372,-2.0498,-2.0613,-2.0767,-2.0884,-2.1038,-2.1019,-2.1232,-2.1251,-2.1478,-2.1701,-2.1881,-2.2232,-2.2561,-2.299,-2.3213,-2.3239,-2.3531,-2.3587,-2.367,-2.3948,-2.402,-2.4105,-2.4105,-2.4177,-2.4177,-2.4189,-2.4539,-2.4802,-2.5075,-2.5438,-2.5203,-2.4686,-2.477,-2.5011,-2.4753,-2.4758,-2.5162,-2.5556,-2.5988,-2.642,-2.6962,-2.752,-2.7806,-2.8036,-2.8116,-2.8052,-2.7764,-2.7251,-2.654,-2.6076,-2.5909,-2.5907,-2.5976,-2.6217,-2.6512,-2.6806,-2.6721,-2.7409,-2.7687,-2.825,-2.8503,-2.8595,-2.8669,-2.893]}]]